[[{"header":{"parameterUnit":"m.s-1","parameterCategory":1,"la1":31.0,"la2":29.5877,"lo1":-88.7671,"lo2":-86.6584,"dy":0.0162,"dx":0.0185,"nx":115,"ny":88,"refTime":"2023-02-23T06:00:00:Z","depth":0,"parameterNumber":2,"parameterNumberName":"U-component_of_WINDS"},"data":[0.0,0.0,0.0,0.0,0.0,0.0,0.0,0.0,0.0,0.0,0.0,0.0,0.0,0.0,0.0,0.0,0.0,0.0,0.0,0.0,0.0,0.0,0.0,0.0,0.0,0.0,0.0,0.0,0.0,0.0,0.0,0.0,0.0,0.0,0.0,0.0,0.0,0.0,0.0,0.0,0.0,0.0,0.0,0.0,0.0,0.0,0.0,0.0,0.0,0.0,0.0,0.0,0.0,0.0,0.0,0.0,0.0,0.0,0.0,0.0,0.0,0.0,0.0,0.0,0.0,0.0,0.0,0.0,0.0,0.0,0.0,0.0,0.0,0.0,0.0,0.0,0.0,0.0,0.0,0.0,0.0,0.0,0.0,0.0,0.0,0.0,0.0,0.0,0.0,0.0,0.0,0.0,0.0,0.0,0.0,0.0,0.0,0.0,0.0,0.0,0.0,0.0,0.0,0.0,0.0,0.0,0.0,0.0,0.0,0.0,0.0,0.0,0.0,0.0,0.0,0.0,0.0,0.0,0.0,0.0,0.0,0.0,0.0,0.0,0.0,0.0,0.0,0.0,0.0,0.0,0.0,0.0,0.0,0.0,0.0,0.0,0.0,0.0,0.0,0.0,0.0,0.0,0.0,0.0,0.0,0.0,0.0,0.0,0.0,0.0,0.0,0.0,0.0,0.0,0.0,0.0,0.0,0.0,0.0,0.0,0.0,0.0,0.0,0.0,0.0,0.0,0.0,0.0,0.0,0.0,0.0,0.0,0.0,0.0,0.0,0.0,0.0,0.0,0.0,0.0,0.0,0.0,0.0,0.0,0.0,0.0,0.0,0.0,0.0,0.0,0.0,0.0,0.0,0.0,0.0,0.0,0.0,0.0,0.0,0.0,0.0,0.0,0.0,0.0,0.0,0.0,0.0,0.0,0.0,0.0,0.0,0.0,0.0,0.0,0.0,0.0,0.0,0.0,0.0,0.0,0.0,0.0,0.0,0.0,0.0,0.0,0.0,0.0,0.0,0.0,0.0,0.0,0.0,0.0,0.0,0.0,0.0,0.0,0.0,0.0,0.0,0.0,0.0,0.0,0.0,0.0,0.0,0.0,0.0,0.0,0.0,0.0,0.0,0.0,0.0,0.0,0.0,0.0,0.0,0.0,0.0,0.0,0.0,0.0,0.0,0.0,0.0,0.0,0.0,0.0,0.0,0.0,0.0,0.0,0.0,0.0,0.0,0.0,0.0,0.0,0.0,0.0,0.0,0.0,0.0,0.0,0.0,0.0,0.0,0.0,0.0,0.0,0.0,0.0,0.0,0.0,0.0,0.0,0.0,0.0,0.0,0.0,0.0,0.0,0.0,0.0,0.0,0.0,0.0,0.0,0.0,0.0,0.0,0.0,0.0,0.0,0.0,0.0,0.0,0.0,0.0,0.0,0.0,0.0,0.0,0.0,0.0,0.0,0.0,0.0,0.0,0.0,0.0,0.0,0.0,0.0,0.0,0.0,0.0,0.0,0.0,0.0,0.0,0.0,0.0,0.0,0.0,0.0,0.0,0.0,0.0,0.0,0.0,0.0,0.0,0.0,0.0,0.0,0.0,0.0,0.0,0.0,0.0,0.0,0.0,0.0,0.0,0.0,0.0,0.0,0.0,0.0,0.0,0.0,0.0,0.0,0.0,0.0,0.0,0.0,0.0,0.0,0.0,0.0,0.0,0.0,0.0,0.0,0.0,0.0,0.0,0.0,0.0,0.0,0.0,0.0,0.0,0.0,0.0,0.0,0.0,0.0,0.0,0.0,0.0,0.0,0.0,0.0,0.0,0.0,0.0,0.0,0.0,0.0,0.0,0.0,0.0,0.0,0.0,0.0,0.0,0.0,0.0,0.0,0.0,0.0,0.0,0.0,0.0,0.0,0.0,0.0,0.0,0.0,0.0,0.0,0.0,0.0,0.0,0.0,0.0,0.0,0.0,0.0,0.0,0.0,0.0,0.0,0.0,0.0,0.0,0.0,0.0,0.0,0.0,0.0,0.0,0.0,0.0,0.0,0.0,0.0,0.0,0.0,0.0,0.0,0.0,0.0,0.0,0.0,0.0,0.0,0.0,0.0,0.0,0.0,0.0,0.0,0.0,0.0,0.0,0.0,0.0,0.0,0.0,0.0,0.0,0.0,0.0,0.0,0.0,0.0,0.0,0.0,0.0,0.0,0.0,0.0,0.0,0.0,0.0,0.0,0.0,0.0,0.0,0.0,0.0,0.0,0.0,0.0,0.0,0.0,0.0,0.0,0.0,0.0,0.0,0.0,0.0,0.0,0.0,0.0,0.0,0.0,0.0,0.0,0.0,0.0,0.0,0.0,0.0,0.0,0.0,0.0,0.0,0.0,0.0,0.0,0.0,0.0,0.0,0.0,0.0,0.0,0.0,0.0,0.0,0.0,0.0,0.0,0.0,0.0,0.0,0.0,0.0,0.0,0.0,0.0,0.0,0.0,0.0,0.0,0.0,0.0,0.0,0.0,0.0,0.0,0.0,0.0,0.0,0.0,0.0,0.0,0.0,0.0,0.0,0.0,0.0,0.0,0.0,0.0,0.0,0.0,0.0,0.0,0.0,0.0,0.0,0.0,0.0,0.0,0.0,0.0,0.0,0.0,0.0,0.0,0.0,0.0,0.0,0.0,0.0,0.0,0.0,0.0,0.0,0.0,0.0,0.0,0.0,0.0,0.0,0.0,0.0,0.0,0.0,0.0,0.0,0.0,0.0,0.0,0.0,0.0,0.0,0.0,0.0,0.0,0.0,0.0,0.0,0.0,0.0,0.0,0.0,0.0,0.0,0.0,0.0,0.0,0.0,0.0,0.0,0.0,0.0,0.0,0.0,0.0,0.0,0.0,0.0,0.0,0.0,0.0,0.0,0.0,0.0,0.0,0.0,0.0,0.0,0.0,0.0,0.0,0.0,0.0,0.0,0.0,0.0,0.0,0.0,0.0,0.0,0.0,0.0,0.0,0.0,0.0,0.0,0.0,0.0,0.0,0.0,0.0,0.0,0.0,0.0,0.0,0.0,0.0,0.0,0.0,0.0,0.0,0.0,0.0,0.0,0.0,0.0,0.0,0.0,0.0,0.0,0.0,0.0,0.0,0.0,0.0,0.0,0.0,0.0,0.0,0.0,0.0,0.0,0.0,0.0,0.0,0.0,0.0,0.0,0.0,0.0,0.0,0.0,0.0,0.0,0.0,0.0,0.0,0.0,0.0,0.0,0.0,0.0,0.0,0.0,0.0,0.0,0.0,0.0,0.0,0.0,0.0,0.0,0.0,0.0,0.0,0.0,0.0,0.0,0.0,0.0,0.0,0.0,0.0,0.0,0.0,0.0,0.0,0.0,0.0,0.0,0.0,0.0,0.0,0.0,0.0,0.0,0.0,0.0,0.0,0.0,0.0,0.0,0.0,0.0,0.0,0.0,0.0,0.0,0.0,0.0,0.0,0.0,0.0,0.0,0.0,0.0,0.0,0.0,0.0,0.0,0.0,0.0,0.0,0.0,0.0,0.0,0.0,0.0,0.0,0.0,0.0,0.0,0.0,0.0,0.0,0.0,0.0,0.0,0.0,0.0,0.0,0.0,0.0,0.0,0.0,0.0,0.0,0.0,0.0,0.0,0.0,0.0,0.0,0.0,0.0,0.0,0.0,0.0,0.0,0.0,0.0,0.0,0.0,0.0,0.0,0.0,0.0,0.0,0.0,0.0,0.0,0.0,0.0,0.0,0.0,0.0,0.0,0.0,0.0,0.0,0.0,0.0,0.0,0.0,0.0,0.0,0.0,0.0,0.0,0.0,0.0,0.0,0.0,0.0,0.0,0.0,0.0,0.0,0.0,0.0,0.0,0.0,0.0,0.0,0.0,0.0,0.0,0.0,0.0,0.0,0.0,0.0,0.0,0.0,0.0,0.0,0.0,0.0,0.0,0.0,0.0,0.0,0.0,0.0,0.0,0.0,0.0,0.0,0.0,0.0,0.0,0.0,0.0,0.0,0.0,0.0,0.0,0.0,0.0,0.0,0.0,0.0,0.0,0.0,0.0,0.0,0.0,0.0,0.0,0.0,0.0,0.0,0.0,0.0,0.0,0.0,0.0,0.0,0.0,0.0,0.0,0.0,0.0,0.0,0.0,0.0,0.0,0.0,0.0,0.0,0.0,0.0,0.0,0.0,0.0,0.0,0.0,0.0,0.0,0.0,0.0,0.0,0.0,0.0,0.0,0.0,0.0,0.0,0.0,0.0,0.0,0.0,0.0,-5.6003,0.0,0.0,0.0,0.0,0.0,0.0,0.0,0.0,0.0,0.0,0.0,0.0,0.0,0.0,0.0,0.0,0.0,0.0,0.0,0.0,0.0,0.0,0.0,0.0,0.0,0.0,0.0,0.0,0.0,0.0,0.0,0.0,0.0,0.0,0.0,0.0,0.0,0.0,0.0,0.0,0.0,0.0,0.0,0.0,0.0,0.0,0.0,0.0,0.0,0.0,0.0,0.0,0.0,0.0,0.0,0.0,0.0,0.0,0.0,0.0,0.0,0.0,0.0,0.0,0.0,0.0,0.0,0.0,0.0,0.0,0.0,0.0,0.0,0.0,0.0,0.0,0.0,0.0,0.0,0.0,0.0,0.0,0.0,0.0,0.0,0.0,0.0,0.0,0.0,0.0,0.0,0.0,0.0,0.0,0.0,0.0,0.0,0.0,0.0,0.0,0.0,0.0,0.0,0.0,0.0,0.0,0.0,0.0,0.0,0.0,-5.6003,-5.6003,-5.6003,-5.6003,-5.6003,0.0,0.0,0.0,0.0,0.0,0.0,0.0,0.0,0.0,0.0,0.0,0.0,0.0,0.0,0.0,0.0,0.0,0.0,0.0,0.0,0.0,0.0,0.0,0.0,0.0,0.0,0.0,0.0,0.0,0.0,0.0,0.0,0.0,0.0,0.0,0.0,0.0,0.0,0.0,0.0,0.0,0.0,0.0,0.0,0.0,0.0,0.0,0.0,0.0,0.0,0.0,0.0,0.0,0.0,0.0,0.0,0.0,0.0,0.0,0.0,0.0,0.0,0.0,0.0,0.0,0.0,0.0,0.0,0.0,0.0,0.0,0.0,0.0,0.0,0.0,0.0,0.0,0.0,0.0,0.0,0.0,0.0,0.0,0.0,0.0,0.0,0.0,0.0,0.0,0.0,0.0,0.0,0.0,0.0,0.0,0.0,0.0,0.0,0.0,0.0,0.0,0.0,0.0,0.0,0.0,0.0,0.0,0.0,0.0,0.0,0.0,0.0,-5.6003,-5.6003,-5.6003,0.0,0.0,0.0,0.0,0.0,0.0,0.0,0.0,0.0,0.0,0.0,0.0,0.0,0.0,0.0,0.0,0.0,0.0,0.0,0.0,0.0,0.0,0.0,0.0,0.0,0.0,0.0,0.0,0.0,0.0,0.0,0.0,0.0,0.0,0.0,0.0,0.0,0.0,0.0,0.0,0.0,0.0,0.0,0.0,0.0,0.0,0.0,0.0,0.0,0.0,0.0,0.0,0.0,0.0,0.0,0.0,0.0,0.0,0.0,0.0,0.0,0.0,0.0,0.0,0.0,0.0,0.0,0.0,0.0,0.0,0.0,0.0,0.0,0.0,0.0,0.0,0.0,0.0,0.0,0.0,0.0,0.0,0.0,0.0,0.0,0.0,0.0,0.0,0.0,0.0,0.0,0.0,0.0,0.0,0.0,0.0,0.0,0.0,0.0,0.0,0.0,0.0,0.0,0.0,0.0,0.0,0.0,0.0,0.0,0.0,-5.6003,-5.6003,-5.6003,0.0,-5.6003,0.0,0.0,0.0,0.0,0.0,0.0,0.0,0.0,0.0,0.0,0.0,0.0,0.0,0.0,0.0,0.0,0.0,0.0,0.0,0.0,0.0,0.0,0.0,0.0,0.0,0.0,0.0,0.0,0.0,0.0,0.0,0.0,0.0,0.0,0.0,0.0,0.0,0.0,0.0,0.0,0.0,0.0,0.0,0.0,0.0,0.0,0.0,0.0,0.0,0.0,0.0,0.0,0.0,0.0,0.0,0.0,0.0,0.0,0.0,0.0,0.0,0.0,0.0,0.0,0.0,0.0,0.0,0.0,0.0,0.0,0.0,0.0,0.0,0.0,0.0,0.0,0.0,0.0,0.0,0.0,0.0,0.0,0.0,0.0,0.0,0.0,0.0,0.0,0.0,0.0,0.0,0.0,0.0,0.0,0.0,0.0,0.0,0.0,0.0,0.0,0.0,0.0,0.0,0.0,0.0,0.0,0.0,0.0,0.0,0.0,-5.6003,-5.6003,-5.6003,-5.6003,0.0,0.0,0.0,0.0,0.0,0.0,0.0,0.0,0.0,0.0,0.0,0.0,0.0,0.0,0.0,0.0,0.0,0.0,0.0,0.0,0.0,0.0,0.0,0.0,0.0,0.0,0.0,0.0,0.0,0.0,0.0,0.0,0.0,0.0,0.0,0.0,0.0,0.0,0.0,0.0,0.0,0.0,0.0,0.0,0.0,0.0,0.0,0.0,0.0,0.0,0.0,0.0,0.0,0.0,0.0,0.0,0.0,0.0,0.0,0.0,0.0,0.0,0.0,0.0,0.0,0.0,0.0,0.0,0.0,0.0,0.0,0.0,0.0,0.0,0.0,0.0,0.0,0.0,0.0,0.0,0.0,0.0,0.0,0.0,0.0,0.0,0.0,0.0,0.0,0.0,0.0,0.0,0.0,0.0,0.0,0.0,0.0,0.0,0.0,0.0,0.0,0.0,0.0,0.0,0.0,0.0,0.0,0.0,0.0,0.0,-5.6003,-5.6003,-5.6003,-5.6003,-5.6003,-5.6003,0.0,0.0,0.0,0.0,0.0,0.0,0.0,0.0,0.0,0.0,0.0,0.0,0.0,0.0,0.0,0.0,0.0,0.0,0.0,0.0,0.0,0.0,0.0,0.0,0.0,0.0,0.0,0.0,0.0,0.0,0.0,0.0,0.0,0.0,0.0,0.0,0.0,0.0,0.0,0.0,0.0,0.0,0.0,0.0,0.0,0.0,0.0,0.0,0.0,0.0,0.0,0.0,0.0,0.0,0.0,0.0,0.0,0.0,0.0,0.0,0.0,0.0,0.0,0.0,0.0,0.0,0.0,0.0,0.0,0.0,0.0,0.0,0.0,0.0,0.0,0.0,0.0,0.0,0.0,0.0,0.0,0.0,0.0,0.0,0.0,0.0,0.0,0.0,0.0,0.0,0.0,0.0,0.0,0.0,0.0,0.0,0.0,0.0,0.0,0.0,0.0,0.0,0.0,0.0,0.0,0.0,0.0,0.0,-5.6003,-5.6003,-5.6003,-5.6003,-5.6003,-5.6003,0.0,0.0,0.0,0.0,0.0,0.0,0.0,0.0,0.0,0.0,0.0,0.0,0.0,0.0,0.0,0.0,0.0,0.0,0.0,0.0,0.0,0.0,0.0,0.0,0.0,0.0,0.0,0.0,0.0,0.0,0.0,0.0,0.0,0.0,0.0,0.0,0.0,0.0,0.0,0.0,0.0,0.0,0.0,0.0,0.0,0.0,0.0,0.0,0.0,0.0,0.0,0.0,0.0,0.0,0.0,0.0,0.0,0.0,0.0,0.0,0.0,0.0,0.0,0.0,0.0,0.0,0.0,0.0,0.0,0.0,0.0,0.0,0.0,0.0,0.0,0.0,0.0,0.0,0.0,0.0,0.0,0.0,0.0,0.0,0.0,0.0,0.0,0.0,0.0,0.0,0.0,0.0,0.0,0.0,0.0,0.0,0.0,0.0,0.0,0.0,0.0,0.0,0.0,0.0,0.0,0.0,0.0,0.0,0.0,-5.6003,-5.6003,-5.6003,-5.6003,-5.6003,-5.6003,0.0,0.0,0.0,0.0,0.0,0.0,0.0,0.0,0.0,0.0,0.0,0.0,0.0,0.0,0.0,0.0,0.0,0.0,0.0,0.0,0.0,0.0,0.0,0.0,0.0,0.0,0.0,0.0,0.0,0.0,0.0,0.0,0.0,0.0,0.0,0.0,0.0,0.0,0.0,0.0,0.0,0.0,0.0,0.0,0.0,0.0,0.0,0.0,0.0,0.0,0.0,0.0,0.0,0.0,0.0,0.0,0.0,0.0,0.0,0.0,0.0,0.0,0.0,0.0,0.0,0.0,0.0,0.0,0.0,0.0,0.0,0.0,0.0,0.0,0.0,0.0,0.0,0.0,0.0,0.0,0.0,0.0,0.0,0.0,0.0,0.0,0.0,0.0,0.0,0.0,0.0,0.0,0.0,0.0,0.0,0.0,0.0,0.0,0.0,0.0,0.0,0.0,0.0,0.0,0.0,0.0,0.0,0.0,0.0,-5.6003,0.0,-5.6003,-5.6003,-5.6003,-5.6003,0.0,0.0,0.0,0.0,0.0,0.0,0.0,0.0,0.0,0.0,0.0,0.0,0.0,0.0,0.0,0.0,0.0,0.0,0.0,0.0,0.0,0.0,0.0,0.0,0.0,0.0,0.0,0.0,0.0,0.0,0.0,0.0,0.0,0.0,0.0,0.0,0.0,0.0,0.0,0.0,0.0,0.0,0.0,0.0,0.0,0.0,0.0,0.0,0.0,0.0,0.0,0.0,0.0,0.0,0.0,0.0,0.0,0.0,0.0,0.0,0.0,0.0,0.0,0.0,0.0,0.0,0.0,0.0,0.0,0.0,0.0,0.0,0.0,0.0,0.0,0.0,0.0,0.0,0.0,0.0,0.0,0.0,0.0,0.0,0.0,0.0,0.0,0.0,0.0,0.0,0.0,0.0,0.0,0.0,0.0,0.0,0.0,0.0,0.0,0.0,0.0,0.0,0.0,0.0,0.0,0.0,0.0,0.0,-5.6003,-5.6003,-5.6003,-5.6003,-5.6003,-5.6003,-5.6003,0.0,0.0,0.0,0.0,0.0,0.0,0.0,0.0,0.0,0.0,0.0,0.0,0.0,0.0,0.0,0.0,0.0,0.0,0.0,0.0,0.0,0.0,0.0,0.0,0.0,0.0,0.0,0.0,0.0,0.0,0.0,0.0,0.0,0.0,0.0,0.0,0.0,0.0,0.0,0.0,0.0,0.0,0.0,0.0,0.0,0.0,0.0,0.0,0.0,0.0,0.0,0.0,0.0,0.0,0.0,0.0,0.0,0.0,0.0,0.0,0.0,0.0,0.0,0.0,0.0,0.0,0.0,0.0,0.0,0.0,0.0,0.0,0.0,0.0,0.0,0.0,0.0,0.0,0.0,0.0,0.0,0.0,0.0,0.0,0.0,0.0,0.0,0.0,0.0,0.0,0.0,0.0,0.0,0.0,0.0,0.0,0.0,0.0,0.0,0.0,0.0,0.0,0.0,0.0,0.0,0.0,0.0,0.0,0.0,-5.6003,-5.6003,-5.6003,-5.6003,-5.6003,-5.6003,0.0,0.0,0.0,0.0,0.0,0.0,0.0,0.0,0.0,0.0,0.0,0.0,0.0,0.0,0.0,0.0,0.0,0.0,0.0,0.0,0.0,0.0,0.0,0.0,0.0,0.0,0.0,0.0,0.0,0.0,0.0,0.0,0.0,0.0,0.0,0.0,0.0,0.0,0.0,0.0,0.0,0.0,0.0,0.0,0.0,0.0,0.0,0.0,0.0,0.0,0.0,0.0,0.0,0.0,0.0,0.0,0.0,0.0,0.0,0.0,0.0,0.0,0.0,0.0,0.0,0.0,0.0,0.0,0.0,0.0,0.0,0.0,0.0,0.0,0.0,0.0,0.0,0.0,0.0,0.0,0.0,0.0,0.0,0.0,0.0,0.0,0.0,0.0,0.0,0.0,0.0,0.0,0.0,0.0,0.0,0.0,0.0,0.0,0.0,0.0,0.0,0.0,0.0,0.0,0.0,0.0,0.0,0.0,0.0,-5.6003,-5.6003,-5.6003,-5.6003,-5.6003,-5.6003,-5.6003,0.0,0.0,0.0,0.0,0.0,0.0,0.0,0.0,0.0,0.0,0.0,0.0,0.0,0.0,0.0,0.0,0.0,0.0,0.0,0.0,0.0,0.0,0.0,0.0,0.0,0.0,0.0,0.0,0.0,0.0,0.0,0.0,0.0,0.0,0.0,0.0,0.0,0.0,0.0,0.0,0.0,0.0,0.0,0.0,0.0,0.0,0.0,0.0,0.0,0.0,0.0,0.0,0.0,0.0,0.0,0.0,0.0,0.0,0.0,0.0,0.0,0.0,0.0,0.0,0.0,0.0,0.0,0.0,0.0,0.0,0.0,0.0,0.0,0.0,0.0,0.0,0.0,0.0,0.0,0.0,0.0,0.0,0.0,0.0,0.0,0.0,0.0,0.0,0.0,0.0,0.0,0.0,0.0,0.0,0.0,0.0,0.0,0.0,0.0,0.0,0.0,0.0,0.0,0.0,0.0,0.0,0.0,0.0,-5.6003,-5.6003,-5.6003,-5.6003,-5.6003,-5.6003,0.0,0.0,0.0,0.0,0.0,0.0,0.0,0.0,0.0,0.0,0.0,0.0,0.0,0.0,0.0,0.0,0.0,0.0,0.0,0.0,0.0,0.0,0.0,0.0,0.0,0.0,0.0,0.0,0.0,0.0,0.0,0.0,0.0,0.0,0.0,0.0,0.0,0.0,0.0,0.0,0.0,0.0,0.0,0.0,0.0,0.0,0.0,0.0,0.0,0.0,0.0,0.0,0.0,0.0,0.0,0.0,0.0,0.0,0.0,0.0,0.0,0.0,0.0,0.0,0.0,0.0,0.0,0.0,0.0,0.0,0.0,0.0,0.0,0.0,0.0,0.0,0.0,0.0,0.0,0.0,0.0,0.0,0.0,0.0,0.0,0.0,0.0,0.0,0.0,0.0,0.0,0.0,0.0,0.0,0.0,0.0,0.0,0.0,0.0,0.0,0.0,0.0,0.0,0.0,0.0,0.0,0.0,0.0,0.0,-5.6003,-5.6003,-5.6003,-5.6003,-5.6003,-5.6003,0.0,0.0,0.0,0.0,0.0,0.0,0.0,0.0,0.0,0.0,0.0,0.0,0.0,0.0,0.0,0.0,0.0,0.0,0.0,0.0,0.0,0.0,0.0,0.0,0.0,0.0,0.0,0.0,0.0,0.0,0.0,0.0,0.0,0.0,0.0,0.0,0.0,0.0,0.0,0.0,0.0,0.0,0.0,0.0,0.0,0.0,0.0,0.0,0.0,0.0,0.0,0.0,0.0,0.0,0.0,0.0,0.0,0.0,0.0,0.0,0.0,0.0,0.0,0.0,0.0,0.0,0.0,0.0,0.0,0.0,0.0,0.0,0.0,0.0,0.0,0.0,0.0,0.0,0.0,0.0,0.0,0.0,0.0,0.0,0.0,0.0,0.0,0.0,0.0,0.0,0.0,0.0,0.0,0.0,0.0,0.0,0.0,0.0,0.0,0.0,0.0,0.0,0.0,0.0,0.0,0.0,0.0,0.0,-5.6003,-5.6003,-5.6003,-5.6003,-5.6003,-5.6003,-5.6003,0.0,0.0,0.0,0.0,0.0,0.0,0.0,0.0,0.0,0.0,0.0,0.0,0.0,0.0,0.0,0.0,0.0,0.0,0.0,0.0,0.0,0.0,0.0,0.0,0.0,0.0,0.0,0.0,0.0,0.0,0.0,0.0,0.0,0.0,0.0,0.0,0.0,0.0,0.0,0.0,0.0,0.0,0.0,0.0,0.0,0.0,0.0,0.0,0.0,0.0,0.0,0.0,0.0,0.0,0.0,0.0,0.0,0.0,0.0,0.0,0.0,0.0,0.0,0.0,0.0,0.0,0.0,0.0,0.0,0.0,0.0,0.0,0.0,0.0,0.0,0.0,0.0,0.0,0.0,0.0,0.0,0.0,0.0,0.0,0.0,0.0,0.0,0.0,0.0,0.0,0.0,0.0,0.0,0.0,0.0,0.0,0.0,0.0,0.0,0.0,0.0,0.0,0.0,0.0,0.0,0.0,0.0,0.0,-5.6003,-5.6003,-5.6003,-5.6003,-5.6003,-5.6003,-5.6003,0.0,0.0,0.0,0.0,0.0,0.0,0.0,0.0,0.0,0.0,0.0,0.0,0.0,0.0,0.0,0.0,0.0,0.0,0.0,0.0,0.0,0.0,0.0,0.0,0.0,0.0,0.0,0.0,0.0,0.0,0.0,0.0,0.0,0.0,0.0,0.0,0.0,0.0,0.0,0.0,0.0,0.0,0.0,0.0,0.0,0.0,0.0,0.0,0.0,0.0,0.0,0.0,0.0,0.0,0.0,0.0,0.0,0.0,0.0,0.0,0.0,0.0,0.0,0.0,0.0,0.0,0.0,0.0,0.0,0.0,0.0,0.0,0.0,0.0,0.0,0.0,0.0,0.0,0.0,0.0,0.0,0.0,0.0,0.0,0.0,0.0,0.0,0.0,0.0,0.0,0.0,0.0,0.0,0.0,0.0,0.0,0.0,0.0,0.0,0.0,0.0,0.0,0.0,0.0,0.0,0.0,0.0,0.0,-5.6003,-5.6003,-5.6003,-5.6003,-5.6003,-5.6003,-5.6003,0.0,0.0,0.0,0.0,0.0,0.0,0.0,0.0,0.0,0.0,0.0,0.0,0.0,0.0,0.0,0.0,0.0,0.0,0.0,0.0,0.0,0.0,0.0,0.0,0.0,0.0,0.0,0.0,0.0,0.0,0.0,0.0,0.0,0.0,0.0,0.0,0.0,0.0,0.0,0.0,0.0,0.0,0.0,0.0,0.0,0.0,0.0,0.0,-5.5895,0.0,0.0,0.0,0.0,0.0,0.0,0.0,0.0,0.0,0.0,0.0,0.0,0.0,0.0,0.0,0.0,0.0,0.0,0.0,0.0,0.0,0.0,0.0,0.0,0.0,0.0,0.0,0.0,0.0,0.0,0.0,0.0,0.0,0.0,0.0,0.0,0.0,0.0,0.0,0.0,0.0,0.0,0.0,0.0,0.0,0.0,0.0,0.0,0.0,0.0,0.0,0.0,0.0,0.0,0.0,0.0,0.0,0.0,0.0,-5.7211,-5.7211,-5.6824,-5.6622,-5.6631,-5.6235,-5.6003,0.0,0.0,0.0,0.0,0.0,0.0,0.0,0.0,0.0,0.0,0.0,0.0,0.0,0.0,0.0,0.0,0.0,0.0,0.0,0.0,0.0,0.0,0.0,0.0,0.0,0.0,0.0,0.0,0.0,0.0,0.0,0.0,0.0,0.0,0.0,0.0,0.0,0.0,0.0,0.0,0.0,0.0,0.0,0.0,0.0,0.0,0.0,0.0,0.0,0.0,0.0,0.0,0.0,0.0,0.0,0.0,0.0,0.0,0.0,0.0,0.0,0.0,0.0,0.0,0.0,0.0,0.0,0.0,0.0,0.0,0.0,0.0,0.0,0.0,0.0,0.0,0.0,0.0,0.0,0.0,0.0,0.0,0.0,0.0,0.0,0.0,0.0,0.0,0.0,0.0,0.0,0.0,0.0,0.0,0.0,0.0,0.0,0.0,0.0,0.0,0.0,0.0,0.0,0.0,0.0,0.0,0.0,-5.8604,-5.8604,-5.8565,-5.7869,-5.7512,-5.7473,-5.6661,-5.6197,-5.6205,0.0,0.0,0.0,0.0,0.0,0.0,0.0,0.0,0.0,0.0,0.0,0.0,0.0,0.0,0.0,0.0,0.0,0.0,0.0,0.0,0.0,0.0,0.0,0.0,0.0,0.0,0.0,0.0,0.0,0.0,0.0,0.0,0.0,0.0,0.0,0.0,0.0,0.0,-5.5971,-5.5961,0.0,0.0,0.0,0.0,0.0,0.0,0.0,0.0,-5.5745,0.0,0.0,0.0,0.0,0.0,0.0,0.0,0.0,0.0,0.0,0.0,0.0,0.0,0.0,0.0,0.0,0.0,0.0,0.0,0.0,0.0,0.0,0.0,0.0,0.0,0.0,0.0,0.0,0.0,0.0,0.0,0.0,0.0,0.0,0.0,0.0,0.0,0.0,0.0,0.0,0.0,0.0,0.0,0.0,0.0,0.0,0.0,0.0,0.0,0.0,0.0,0.0,0.0,0.0,0.0,0.0,-5.8604,-5.8604,-5.8604,-5.8604,-5.8488,-5.8372,-5.8372,-5.7559,-5.7086,-5.7048,0.0,0.0,0.0,0.0,0.0,0.0,0.0,0.0,0.0,0.0,0.0,0.0,0.0,0.0,0.0,0.0,0.0,0.0,0.0,0.0,0.0,0.0,0.0,0.0,0.0,0.0,0.0,0.0,0.0,0.0,0.0,0.0,0.0,0.0,0.0,0.0,0.0,0.0,0.0,-5.5914,-5.5895,0.0,0.0,0.0,0.0,0.0,0.0,0.0,0.0,-5.5724,0.0,0.0,0.0,0.0,0.0,0.0,0.0,0.0,0.0,0.0,0.0,0.0,0.0,0.0,0.0,0.0,0.0,0.0,0.0,0.0,0.0,0.0,0.0,0.0,0.0,0.0,0.0,0.0,0.0,0.0,0.0,0.0,0.0,0.0,0.0,0.0,0.0,0.0,0.0,0.0,0.0,0.0,0.0,0.0,0.0,0.0,0.0,0.0,0.0,0.0,0.0,0.0,0.0,0.0,0.0,-5.988,-5.988,-5.988,-5.988,-5.9493,-5.9261,-5.9261,-5.8449,-5.7985,0.0,0.0,0.0,0.0,0.0,0.0,0.0,0.0,0.0,0.0,0.0,0.0,0.0,0.0,0.0,0.0,0.0,0.0,0.0,0.0,0.0,0.0,0.0,0.0,0.0,0.0,0.0,0.0,0.0,0.0,0.0,0.0,0.0,0.0,0.0,0.0,0.0,0.0,0.0,0.0,-5.5875,-5.5855,-5.5797,0.0,0.0,0.0,0.0,0.0,0.0,-5.5703,-5.5703,0.0,0.0,0.0,0.0,0.0,0.0,0.0,0.0,0.0,0.0,0.0,0.0,0.0,0.0,0.0,0.0,0.0,0.0,0.0,0.0,0.0,0.0,0.0,0.0,0.0,0.0,0.0,0.0,0.0,0.0,0.0,0.0,0.0,0.0,0.0,0.0,0.0,0.0,0.0,0.0,0.0,0.0,0.0,0.0,0.0,0.0,0.0,0.0,0.0,0.0,0.0,0.0,0.0,0.0,0.0,-6.1118,-6.1118,-6.1118,-6.1079,-6.0499,-6.0151,-6.0151,-5.93,-5.8874,0.0,0.0,0.0,0.0,0.0,0.0,0.0,0.0,0.0,0.0,0.0,0.0,0.0,0.0,0.0,0.0,0.0,0.0,0.0,0.0,0.0,0.0,0.0,0.0,0.0,0.0,0.0,0.0,0.0,0.0,0.0,0.0,0.0,0.0,0.0,0.0,0.0,0.0,0.0,0.0,0.0,-5.5787,-5.5776,-5.5776,0.0,0.0,0.0,0.0,-5.5703,-5.5703,0.0,0.0,0.0,0.0,0.0,0.0,0.0,0.0,0.0,0.0,0.0,0.0,0.0,0.0,0.0,0.0,0.0,0.0,0.0,0.0,0.0,0.0,0.0,0.0,0.0,0.0,0.0,0.0,0.0,0.0,0.0,0.0,0.0,0.0,0.0,0.0,0.0,0.0,0.0,0.0,0.0,0.0,0.0,0.0,0.0,0.0,0.0,0.0,0.0,0.0,0.0,0.0,0.0,0.0,0.0,0.0,-6.1118,-6.1118,-6.1118,-6.1118,-6.1041,-6.0963,-6.0963,-6.0151,-5.9725,0.0,0.0,0.0,0.0,0.0,0.0,0.0,0.0,0.0,0.0,0.0,0.0,0.0,0.0,0.0,0.0,0.0,0.0,0.0,0.0,0.0,0.0,0.0,0.0,0.0,0.0,0.0,0.0,0.0,0.0,0.0,0.0,0.0,0.0,0.0,0.0,0.0,0.0,0.0,0.0,0.0,-5.5776,-5.5724,-5.5714,-5.5675,0.0,0.0,-5.5703,-5.5703,-5.5703,0.0,0.0,0.0,0.0,0.0,0.0,0.0,0.0,0.0,0.0,0.0,0.0,0.0,0.0,0.0,0.0,0.0,0.0,0.0,0.0,0.0,0.0,0.0,0.0,0.0,0.0,0.0,0.0,0.0,0.0,0.0,0.0,0.0,0.0,0.0,0.0,0.0,0.0,0.0,0.0,0.0,0.0,0.0,0.0,0.0,0.0,0.0,0.0,0.0,0.0,0.0,0.0,0.0,0.0,0.0,-6.1118,-6.1118,-6.1118,-6.1118,-6.1118,-6.1118,-6.1118,-6.1118,-6.077,-6.0576,0.0,0.0,0.0,0.0,0.0,0.0,0.0,0.0,0.0,0.0,0.0,0.0,0.0,0.0,0.0,0.0,0.0,0.0,0.0,0.0,0.0,0.0,0.0,0.0,0.0,0.0,0.0,0.0,0.0,0.0,0.0,0.0,0.0,0.0,0.0,0.0,0.0,0.0,0.0,0.0,0.0,0.0,-5.5714,-5.5703,0.0,0.0,0.0,-5.5703,-5.5703,0.0,0.0,0.0,0.0,0.0,0.0,0.0,0.0,0.0,0.0,0.0,0.0,0.0,0.0,0.0,0.0,0.0,0.0,0.0,0.0,0.0,0.0,0.0,0.0,0.0,0.0,0.0,0.0,0.0,0.0,0.0,0.0,0.0,0.0,0.0,0.0,0.0,0.0,0.0,0.0,0.0,0.0,0.0,0.0,0.0,0.0,0.0,0.0,0.0,0.0,0.0,0.0,0.0,0.0,0.0,0.0,0.0,-6.1118,-6.1118,-6.1118,-6.1118,-6.1118,-6.1118,-6.1118,-6.1118,0.0,0.0,0.0,0.0,0.0,0.0,0.0,0.0,0.0,0.0,0.0,0.0,0.0,0.0,0.0,0.0,0.0,0.0,0.0,0.0,0.0,0.0,0.0,0.0,0.0,0.0,0.0,-5.6003,0.0,0.0,0.0,0.0,0.0,0.0,0.0,0.0,0.0,0.0,0.0,0.0,0.0,0.0,-5.5703,-5.5703,-5.5703,-5.5703,0.0,0.0,-5.5703,-5.5703,-5.5703,-5.5703,0.0,0.0,0.0,0.0,0.0,0.0,0.0,0.0,0.0,0.0,0.0,0.0,0.0,0.0,0.0,0.0,0.0,0.0,0.0,0.0,0.0,0.0,0.0,0.0,0.0,0.0,0.0,0.0,0.0,0.0,0.0,0.0,0.0,0.0,0.0,0.0,0.0,0.0,0.0,0.0,0.0,0.0,0.0,0.0,0.0,0.0,0.0,0.0,0.0,0.0,0.0,0.0,0.0,0.0,0.0,-6.1118,-6.1118,-6.1118,-6.1118,-6.1118,-6.1118,-6.1118,-6.1118,-6.1118,0.0,0.0,0.0,0.0,0.0,0.0,0.0,0.0,0.0,0.0,0.0,0.0,0.0,0.0,0.0,0.0,0.0,0.0,0.0,0.0,0.0,0.0,0.0,0.0,0.0,0.0,0.0,0.0,0.0,0.0,0.0,0.0,0.0,0.0,0.0,0.0,0.0,0.0,0.0,0.0,0.0,-5.5703,-5.5703,-5.5703,-5.5703,0.0,0.0,-5.5703,-5.5703,-5.5703,-5.5703,-5.5703,0.0,0.0,0.0,0.0,0.0,0.0,0.0,0.0,0.0,0.0,0.0,0.0,0.0,0.0,0.0,0.0,0.0,0.0,0.0,0.0,0.0,0.0,0.0,0.0,0.0,0.0,0.0,0.0,0.0,0.0,0.0,0.0,0.0,0.0,0.0,0.0,0.0,0.0,0.0,0.0,0.0,0.0,0.0,0.0,0.0,0.0,0.0,0.0,0.0,0.0,0.0,0.0,0.0,-6.1118,-6.1118,-6.1118,-6.1118,-6.1118,-6.1118,-6.1118,-6.1118,-6.1118,-6.1118,0.0,0.0,0.0,0.0,0.0,0.0,0.0,0.0,0.0,0.0,0.0,0.0,0.0,0.0,0.0,0.0,0.0,0.0,0.0,0.0,0.0,0.0,0.0,0.0,0.0,0.0,0.0,0.0,-5.598,-5.5895,-5.5776,0.0,0.0,0.0,0.0,0.0,0.0,0.0,0.0,0.0,0.0,-5.5703,-5.5703,-5.5703,0.0,0.0,-5.5703,-5.5703,-5.5703,-5.5703,-5.5703,-5.5703,-5.5703,0.0,0.0,0.0,0.0,0.0,0.0,0.0,0.0,0.0,0.0,0.0,0.0,0.0,0.0,0.0,0.0,0.0,0.0,0.0,0.0,0.0,0.0,0.0,0.0,0.0,0.0,0.0,0.0,0.0,0.0,0.0,0.0,0.0,0.0,0.0,0.0,0.0,0.0,0.0,0.0,0.0,0.0,0.0,0.0,0.0,0.0,0.0,0.0,0.0,0.0,0.0,0.0,-6.1118,-6.1118,-6.1118,-6.1118,-6.1118,-6.1118,-6.1118,-6.1118,-6.1118,-6.1118,0.0,0.0,0.0,0.0,0.0,0.0,0.0,0.0,0.0,0.0,0.0,0.0,0.0,0.0,0.0,0.0,0.0,0.0,0.0,0.0,0.0,0.0,0.0,0.0,0.0,0.0,0.0,0.0,-5.5923,-5.5855,-5.5724,0.0,0.0,0.0,0.0,0.0,0.0,0.0,0.0,0.0,0.0,-5.5703,-5.5703,-5.5703,-5.5703,-5.5703,-5.5703,-5.5703,-5.5703,-5.5703,-5.5703,-5.5703,0.0,0.0,0.0,0.0,0.0,0.0,0.0,0.0,0.0,0.0,0.0,0.0,0.0,0.0,0.0,0.0,0.0,0.0,0.0,0.0,0.0,0.0,0.0,0.0,0.0,0.0,0.0,0.0,0.0,0.0,0.0,0.0,0.0,0.0,0.0,0.0,0.0,0.0,0.0,0.0,0.0,0.0,0.0,0.0,0.0,0.0,0.0,0.0,0.0,0.0,0.0,0.0,0.0,-6.1118,-6.1118,-6.1118,-6.1118,-6.1118,-6.1118,-6.1118,-6.1118,-6.1118,-6.1118,-6.1118,0.0,0.0,0.0,0.0,0.0,0.0,0.0,0.0,0.0,0.0,0.0,0.0,0.0,0.0,0.0,0.0,0.0,0.0,0.0,0.0,0.0,0.0,0.0,0.0,0.0,0.0,-5.6003,-5.5961,-5.5865,0.0,0.0,0.0,0.0,0.0,0.0,0.0,0.0,0.0,0.0,-5.5703,-5.5703,-5.5703,-5.5703,-5.5703,-5.5703,-5.5703,-5.5703,-5.5703,-5.5703,-5.5703,0.0,0.0,0.0,0.0,0.0,0.0,0.0,0.0,0.0,0.0,0.0,0.0,0.0,0.0,0.0,0.0,0.0,0.0,0.0,0.0,0.0,0.0,0.0,0.0,0.0,0.0,0.0,-6.1118,-6.1118,0.0,0.0,0.0,0.0,0.0,0.0,0.0,0.0,0.0,0.0,0.0,-6.1118,-6.1118,0.0,0.0,0.0,0.0,0.0,0.0,0.0,0.0,0.0,0.0,0.0,0.0,-6.1118,-6.1118,-6.1118,-6.1118,-6.1118,-6.1118,-6.1118,-6.1118,-6.1118,-6.1118,-6.1118,0.0,0.0,0.0,0.0,0.0,0.0,0.0,0.0,0.0,0.0,0.0,0.0,0.0,0.0,0.0,0.0,0.0,0.0,0.0,0.0,0.0,0.0,0.0,0.0,0.0,-5.5995,0.0,0.0,0.0,0.0,0.0,0.0,0.0,0.0,0.0,0.0,0.0,-5.5703,-5.5703,-5.5703,-5.5703,-5.5703,-5.5703,-5.5703,0.0,0.0,0.0,0.0,0.0,0.0,0.0,0.0,0.0,0.0,0.0,0.0,0.0,0.0,-5.5703,-5.5703,-5.5703,-5.5703,-5.5703,0.0,0.0,0.0,0.0,0.0,0.0,0.0,0.0,0.0,0.0,0.0,0.0,0.0,0.0,0.0,0.0,-6.1118,0.0,0.0,0.0,0.0,0.0,0.0,0.0,0.0,-6.1118,-6.1118,-6.1118,-6.1118,-6.1118,0.0,-6.1118,-6.1118,0.0,0.0,0.0,0.0,0.0,0.0,0.0,0.0,-6.1118,-6.1118,-6.1118,-6.1118,-6.1118,-6.1118,-6.1118,-6.1118,-6.1118,-6.1118,-6.1118,-6.1118,-6.1118,0.0,0.0,0.0,0.0,0.0,0.0,0.0,0.0,0.0,0.0,0.0,0.0,0.0,0.0,0.0,0.0,0.0,0.0,0.0,0.0,0.0,0.0,0.0,-5.6884,0.0,0.0,0.0,0.0,0.0,0.0,0.0,0.0,0.0,-5.6742,-5.6588,-5.6626,-5.6626,-5.6588,-5.6626,-5.6588,0.0,0.0,0.0,0.0,0.0,0.0,0.0,-5.6588,-5.6588,-5.6319,-5.6049,-5.5742,-5.5703,-5.5703,-5.5703,0.0,0.0,-5.5703,-5.5703,-5.5703,-5.5703,-5.528,-5.5088,-5.5588,-5.528,-5.5049,0.0,0.0,0.0,0.0,0.0,0.0,0.0,0.0,-6.1118,-6.1118,0.0,-6.1118,0.0,0.0,0.0,0.0,0.0,0.0,0.0,0.0,-6.1118,-6.1118,-6.1118,-6.1118,-6.1118,-6.1118,-6.1118,-6.1118,-6.1118,-6.1118,0.0,0.0,0.0,0.0,0.0,0.0,-6.1118,-6.1118,-6.1118,-6.1118,-6.1118,-6.1118,-6.1118,-6.1118,-6.1118,-6.1118,-6.1118,-6.1118,-6.1118,-6.1118,-6.1118,0.0,0.0,0.0,0.0,0.0,0.0,0.0,0.0,0.0,0.0,0.0,0.0,0.0,0.0,0.0,0.0,0.0,0.0,0.0,0.0,-5.8604,0.0,0.0,0.0,0.0,0.0,0.0,0.0,0.0,0.0,0.0,-5.8357,-5.8319,-5.8269,-5.828,0.0,0.0,0.0,0.0,-5.828,-5.8242,-5.828,-5.828,-5.828,-5.828,-5.828,-5.8269,0.0,0.0,-5.5934,-5.578,-5.5818,-5.578,-5.5857,-5.578,-5.578,-5.5752,-5.5703,-5.5703,-5.5665,-5.5665,-5.5703,-5.5665,-5.5665,-6.166,0.0,0.0,0.0,0.0,-6.1118,-6.1118,-6.1118,-6.1118,-6.1118,-6.1118,-6.1118,0.0,0.0,0.0,0.0,0.0,0.0,-6.1118,-6.1118,-6.1118,-6.1118,-6.1118,-6.1118,-6.1118,-6.1118,-6.1118,-6.1118,-6.1118,-6.1118,-6.1118,-6.1118,0.0,0.0,0.0,0.0,-6.1118,-6.1118,-6.1118,-6.1118,-6.1118,-6.1118,-6.1118,-6.1118,-6.1118,-6.1118,-6.1118,-6.1118,-6.1118,-6.1118,-6.1118,0.0,0.0,0.0,0.0,0.0,0.0,0.0,0.0,0.0,0.0,0.0,0.0,0.0,0.0,0.0,0.0,0.0,0.0,0.0,-5.8604,-5.8538,-5.8528,0.0,0.0,0.0,0.0,0.0,0.0,0.0,0.0,0.0,-6.005,-5.9011,-5.8269,0.0,0.0,-5.8269,-5.8269,-5.8269,-5.8269,-5.8269,0.0,0.0,0.0,-5.8269,-5.8269,-5.8269,-5.8088,-5.7857,-5.7588,-5.755,-5.755,-5.755,-5.755,-5.7396,-5.6703,-5.6088,-5.5742,-5.5703,-5.5703,-5.5703,-5.5703,-5.5703,-5.5703,-6.2627,-6.2085,-6.1389,-6.1118,-6.1118,-6.1118,-6.1118,-6.1118,-6.1118,-6.1118,-6.1118,-6.1118,-6.1118,-6.1118,-6.1118,0.0,0.0,0.0,-6.1118,-6.1118,-6.1118,-6.1118,-6.1118,-6.1118,-6.1118,-6.1118,-6.1118,-6.1118,-6.1118,-6.1118,-6.1118,-6.1118,0.0,0.0,-6.1118,-6.1118,-6.1118,-6.1118,-6.1118,-6.1118,-6.1118,-6.1118,-6.1118,-6.1118,-6.1118,-6.1118,-6.1118,-6.1118,-6.1118,-6.1118,-6.1118,-6.1118,0.0,0.0,0.0,0.0,0.0,0.0,0.0,0.0,0.0,0.0,0.0,-5.9261,0.0,0.0,0.0,0.0,-5.9571,-5.9609,-5.9609,-5.9543,0.0,0.0,0.0,0.0,0.0,0.0,0.0,-6.0113,-6.053,-6.0804,-6.0793,-5.9935,-5.9281,-5.9281,-5.9281,-5.9281,-5.9281,0.0,-5.9281,-5.9281,-5.9319,-5.9319,-5.9281,-5.9281,-5.9204,-5.8819,-5.8781,-5.8627,-5.8357,-5.8269,-5.8269,-5.8269,-5.8269,-5.8127,-5.7588,-5.7088,-5.6472,-5.5857,-5.5703,-5.5703,-5.5703,-5.5703,-5.5703,-6.3797,-6.3681,-6.2008,-6.1311,-6.1311,-6.1311,-6.1273,-6.1195,-6.1234,-6.1157,-6.1118,-6.1118,-6.1118,-6.1118,-6.1118,0.0,0.0,-6.1118,-6.1118,-6.1118,-6.1157,-6.1195,-6.1195,-6.1311,-6.1311,-6.1311,-6.1311,-6.1311,-6.1311,-6.1311,-6.1311,-6.1311,-6.1311,-6.1234,-6.1118,-6.1118,-6.1118,-6.1118,-6.1118,-6.1118,-6.1118,-6.1118,-6.1118,-6.1118,-6.1118,-6.1118,-6.1118,-6.1118,-6.1118,-6.1118,-6.1118,-6.1118,-6.1118,0.0,0.0,0.0,0.0,0.0,0.0,0.0,0.0,0.0,0.0,0.0,0.0,0.0,0.0,0.0,-6.1118,0.0,-6.1118,-6.1118,0.0,0.0,0.0,-6.106,-6.1012,-6.1002,-6.0962,-6.0933,0.0,0.0,0.0,0.0,-6.0781,-6.0781,-6.0781,-6.0781,-6.0781,-6.0742,-6.0781,-6.0704,-6.0742,-6.0781,-6.0627,-6.0666,-6.0396,-5.9742,-5.9588,-5.9358,-5.8781,-5.8588,-5.855,-5.8588,-5.8511,-5.8473,-5.8396,-5.8357,-5.7896,-5.628,-5.5972,-5.5972,-5.6011,-5.6049,-5.6088,-6.4687,-6.4599,-6.3516,-6.31,-6.3091,-6.31,-6.2704,-6.2124,-6.2085,-6.1737,-6.1118,-6.1118,-6.1118,-6.1118,-6.1118,-6.1118,-6.1118,-6.1118,-6.1118,-6.1157,-6.1814,-6.2124,-6.2124,-6.2781,-6.3091,-6.31,-6.3091,-6.31,-6.3091,-6.31,-6.3091,-6.31,-6.3091,-6.2394,-6.1157,-6.1118,-6.1118,-6.1118,-6.1118,-6.1118,-6.1118,-6.1118,-6.1118,-6.1118,-6.1118,-6.1118,-6.1118,-6.1118,-6.1118,-6.1118,-6.1118,-6.1118,-6.1118,-6.1118,0.0,0.0,0.0,0.0,0.0,0.0,0.0,0.0,0.0,-6.0925,-6.1079,0.0,-6.1118,0.0,-6.1118,-6.1118,-6.1118,-6.1118,0.0,0.0,-6.1118,-6.1109,-6.106,-6.1032,-6.101,-6.0987,-6.0933,-6.0888,-6.0793,-6.0781,-6.0781,-6.0781,-6.0781,-6.0781,-6.0781,-6.0781,-6.0781,-6.0781,-6.0781,-6.0781,-6.0781,-6.0781,-6.0742,-6.0512,-6.0473,-6.0435,-6.0242,-6.0204,-6.0204,-6.0204,-6.0204,-5.9973,-5.9358,-5.9204,-5.8858,-5.7934,-5.7665,-5.7703,-5.7665,-5.7665,-5.7665,-6.5528,-6.5489,-6.4986,-6.4793,-6.4764,-6.4029,-6.34,-6.2975,-6.2975,-6.2704,-6.224,-6.2278,-6.224,-6.224,-6.224,-6.2278,-6.2278,-6.224,-6.2278,-6.2278,-6.2743,-6.2975,-6.3013,-6.3487,-6.3681,-6.3681,-6.3681,-6.3681,-6.3681,-6.3681,-6.3681,-6.3681,-6.3681,-6.3216,-6.2317,-6.224,-6.2278,-6.224,-6.1853,-6.1505,-6.1118,-6.1118,-6.1118,-6.1118,-6.1118,-6.1118,-6.1118,-6.1118,-6.1118,-6.1118,-6.1118,-6.1118,-6.1118,-6.1118,-6.1118,0.0,0.0,0.0,0.0,0.0,0.0,0.0,0.0,0.0,0.0,0.0,-6.1118,0.0,-6.1118,0.0,-6.1118,-6.1118,-6.1118,-6.1118,-6.1118,-6.1118,-6.1118,-6.1051,-6.1051,-6.0997,-6.0965,-6.0911,-6.0831,-6.0781,-6.0781,-6.0781,-6.0781,-6.0781,-6.0781,-6.0781,-6.0781,-6.0781,-6.0781,-6.0781,-6.0781,-6.0781,-6.0781,-6.0781,-6.0781,-6.0781,-6.0781,-6.0781,-6.0781,-6.0781,-6.0781,-6.0666,-6.0165,-6.0089,-5.9896,-5.9588,-5.9435,-5.9127,-5.8434,-5.8269,-5.8269,-6.6185,-6.6185,-6.6185,-6.6185,-6.6069,-6.4638,-6.3952,-6.3874,-6.3874,-6.3797,-6.3681,-6.3681,-6.3681,-6.3681,-6.3681,-6.3681,-6.3681,-6.3681,-6.3681,-6.3681,-6.3797,-6.3874,-6.3874,-6.399,-6.4029,-6.4029,-6.4029,-6.4029,-6.4029,-6.4029,-6.4029,-6.4029,-6.4029,-6.4029,-6.4029,-6.4019,-6.3913,-6.3719,-6.2936,-6.2201,-6.1466,-6.1311,-6.1273,-6.1273,-6.1157,-6.1118,-6.1118,-6.1118,-6.1118,-6.1118,-6.1118,-6.1118,-6.1118,-6.1118,-6.1118,0.0,-6.1118,0.0,0.0,0.0,0.0,0.0,0.0,0.0,0.0,-6.1118,-6.1118,-6.1118,-6.1118,-6.1118,-6.1118,-6.1118,-6.1118,-6.1118,-6.1118,-6.1118,-6.1118,-6.1118,-6.108,-6.1008,-6.0987,-6.0955,-6.0843,-6.0781,-6.0781,-6.0781,-6.0781,-6.0781,-6.0781,-6.0781,-6.0781,-6.0781,-6.0781,-6.0781,-6.0781,-6.0781,-6.0781,-6.0781,-6.0781,-6.0781,-6.0781,-6.0781,-6.0781,-6.0781,-6.0781,-6.0781,-6.0781,-6.0781,-6.0781,-6.0666,-6.0666,-6.0242,-5.9127,-5.8781,-5.8627,-6.6185,-6.6185,-6.6185,-6.6185,-6.6185,-6.5837,-6.5334,-6.4764,-6.4754,-6.4377,-6.3719,-6.3681,-6.3681,-6.3681,-6.3681,-6.3681,-6.3681,-6.3681,-6.3681,-6.3719,-6.4406,-6.4764,-6.4793,-6.5412,-6.5721,-6.5721,-6.5721,-6.5721,-6.5721,-6.5721,-6.5721,-6.5721,-6.5721,-6.5721,-6.5721,0.0,0.0,0.0,-6.3565,-6.3362,-6.3168,-6.2511,-6.2162,-6.2162,-6.1466,0.0,-6.1118,-6.1118,-6.1118,-6.1118,-6.1118,0.0,0.0,0.0,0.0,0.0,0.0,0.0,0.0,0.0,0.0,0.0,-6.1118,-6.1118,-6.1118,-6.1118,-6.1118,-6.1118,-6.1118,-6.1118,-6.1118,-6.1118,-6.1118,-6.1118,-6.1118,-6.1118,-6.1118,-6.1118,-6.108,-6.1008,-6.0987,-6.0955,-6.0804,-6.0781,-6.0781,-6.0781,-6.0781,-6.0781,-6.0793,-6.0781,-6.0781,-6.0781,-6.0781,-6.0781,-6.0781,-6.0781,-6.0781,-6.0781,-6.0781,-6.0781,-6.0781,-6.0781,-6.0781,-6.0781,-6.0781,-6.0781,-6.0781,-6.0781,-6.0781,-6.0781,-6.0781,-6.0704,-6.0396,-6.0319,-6.0319,-6.7462,0.0,-6.7501,-6.7501,0.0,-6.7501,-6.7268,-6.6804,-6.5953,-6.5334,-6.4948,-6.4909,-6.4957,-6.4948,-6.4948,-6.4948,-6.4948,-6.4957,-6.4948,-6.4948,-6.5373,-6.5605,-6.5605,-6.6031,-6.6185,-6.6185,-6.6185,-6.6185,-6.6185,-6.6185,-6.6185,-6.6185,-6.6185,-6.6185,-6.6185,-6.6185,-6.5605,-6.4338,-6.4338,-6.4145,-6.3719,-6.3284,-6.3052,-6.3013,0.0,0.0,0.0,0.0,0.0,0.0,0.0,0.0,0.0,0.0,0.0,-6.1118,-6.1118,-6.1118,-6.1118,-6.1118,-6.1118,-6.1118,-6.1118,-6.1118,-6.1118,-6.1118,-6.1118,-6.1118,-6.1118,-6.1118,-6.1118,-6.1118,-6.1118,-6.1118,-6.1118,-6.1118,-6.1118,-6.1118,-6.109,-6.101,-6.1,-6.0959,-6.0877,-6.09,-6.09,-6.0877,-6.0888,-6.0911,-6.09,-6.0854,-6.0781,-6.0781,-6.0781,-6.0781,-6.0781,-6.0781,-6.0819,-6.0781,-6.0781,-6.0781,-6.0781,-6.0781,-6.0781,-6.0781,-6.0781,-6.0781,-6.0781,-6.0781,-6.0781,-6.0781,-6.0781,-6.0781,-6.0781,-6.0781,-6.0781,-6.8777,-6.8777,-6.8777,-6.8777,-6.8777,-6.8777,-6.8777,-6.87,0.0,0.0,0.0,-6.665,-6.665,-6.665,-6.665,-6.665,-6.665,-6.665,-6.665,-6.6688,-6.665,-6.665,-6.665,-6.6688,-6.665,-6.665,-6.665,-6.665,-6.665,-6.665,-6.665,-6.665,-6.665,-6.6572,-6.6456,-6.6417,-6.6031,-6.5257,-6.5218,-6.487,-6.4184,-6.399,-6.3913,-6.3952,-6.3091,-6.2627,-6.2627,-6.193,-6.1505,-6.135,-6.135,-6.1273,-6.1118,-6.1118,-6.1118,-6.1118,-6.1118,-6.1118,-6.1118,-6.1118,-6.1118,-6.1118,-6.1118,-6.1118,-6.1118,-6.1118,-6.1118,-6.1118,-6.1118,-6.1118,-6.1118,-6.1118,-6.1118,-6.1118,-6.1118,-6.1118,-6.1118,-6.1118,-6.106,-6.1012,-6.1002,-6.1049,-6.1175,-6.1197,-6.1285,-6.1368,-6.1544,-6.145,-6.1362,-6.1092,-6.0804,-6.0781,-6.0781,-6.0858,-6.1012,-6.105,-6.1089,-6.1358,-6.132,-6.1243,-6.1243,-6.1243,-6.1243,-6.1396,-6.1166,-6.1089,-6.105,-6.0935,-6.0819,-6.0781,-6.0781,-6.0781,-6.0781,-6.0781,-6.0781,-6.8816,-6.8777,-6.8777,-6.8777,-6.8777,-6.8777,-6.8777,-6.8777,-6.8545,-6.8429,-6.8429,-6.8429,-6.8429,-6.8429,-6.8429,-6.8429,-6.8429,-6.8429,-6.8429,0.0,-6.8429,-6.8429,-6.8429,-6.8429,-6.8429,-6.8429,-6.8429,-6.8429,-6.8429,-6.8429,-6.8429,-6.8429,-6.8429,-6.8042,-6.7384,-6.7307,-6.6882,-6.6031,-6.6031,-6.5953,-6.5837,-6.519,-6.4831,-6.4793,-6.398,-6.3526,-6.3526,-6.3371,-6.2975,-6.2278,-6.2201,-6.1892,-6.1157,-6.1157,-6.1118,-6.1118,-6.1118,-6.1118,-6.1118,-6.1118,-6.1118,-6.1118,-6.1118,-6.1118,-6.1118,-6.1118,-6.1118,-6.1118,-6.1118,-6.1118,-6.1118,-6.1118,-6.1157,-6.1157,-6.1118,-6.1118,-6.1195,-6.1195,-6.1176,-6.1128,-6.1002,-6.134,-6.1934,-6.2039,-6.232,-6.2888,-6.2899,-6.3031,-6.2717,-6.1797,-6.0954,-6.0793,-6.0781,-6.1127,-6.1716,-6.1908,-6.2127,-6.2858,-6.2858,-6.2743,-6.2743,-6.2743,-6.2743,-6.2897,-6.232,-6.1985,-6.1908,-6.1293,-6.105,-6.0973,-6.1012,-6.0973,-6.0973,-6.0935,-6.0858,-7.017,-7.017,-7.017,-7.0131,-7.017,-7.017,-7.0131,-7.017,-7.0131,-6.9628,-6.8816,-6.8777,-6.8777,-6.8777,-6.8777,-6.8777,-6.8777,-6.8777,-6.8777,-6.8777,-6.8777,-6.8777,-6.8777,-6.8777,-6.8777,-6.8777,-6.8777,-6.8777,-6.8777,-6.8777,-6.8777,-6.8777,-6.8777,-6.8622,-6.8236,-6.8197,-6.8003,-6.7617,-6.6688,-6.6185,-6.6185,-6.5837,-6.5644,-6.5644,-6.4831,-6.4416,-6.4416,-6.3952,-6.3526,-6.3129,-6.3091,-6.2936,-6.2549,-6.2511,-6.2278,-6.1853,-6.1814,-6.1621,-6.1118,-6.1118,-6.1311,-6.1737,-6.1814,-6.2008,-6.2472,-6.1621,-6.1118,-6.1118,-6.1118,-6.1118,-6.1118,-6.1543,-6.1814,-6.1805,-6.2201,-6.2511,-6.2511,-6.2511,-6.2501,-6.2481,-6.2481,-6.2616,-6.2913,-6.2972,-6.3088,-6.3492,-6.358,-6.357,-6.3522,-6.2844,-6.227,-6.219,-6.2166,-6.232,-6.2704,-6.2743,-6.2897,-6.3281,-6.3308,-6.3308,-6.3308,-6.3308,-6.3308,-6.3308,-6.2974,-6.2781,-6.2743,-6.2474,-6.2204,-6.2166,-6.2166,-6.2166,-6.2127,-6.182,-6.1358,-7.1291,-7.1291,-7.1291,-7.1291,-7.1291,-7.1291,-7.1291,-7.1291,-7.1291,-7.0556,-6.9473,-6.9357,-6.9357,-6.9357,-6.9357,-6.9357,-6.9357,-6.9357,-6.9357,-6.9357,-6.9357,-6.9357,-6.9357,-6.9357,-6.9357,-6.9357,-6.9357,-6.9357,-6.9357,-6.9357,-6.9357,-6.9357,-6.9357,-6.928,-6.9087,-6.9048,-6.9009,-6.8738,-6.7462,-6.6688,-6.6495,-6.6301,-6.6185,-6.6147,-6.5605,-6.5257,-6.5257,-6.4648,-6.4184,-6.399,-6.399,-6.3913,-6.3719,-6.3681,-6.341,-6.2781,-6.2704,-6.2394,-6.1776,-6.1698,-6.1969,-6.2627,-6.2704,-6.2975,-6.3487,-6.2472,-6.1698,-6.1698,-6.1776,-6.1737,-6.1853,-6.2278,-6.2704,-6.2743,-6.3294,-6.3565,-6.3681,-6.3681,-6.3681,-6.3681,-6.3681,-6.37,-6.3902,-6.3961,-6.4077,-6.4201,-6.4221,-6.4191,-6.4117,-6.4084,-6.4016,-6.3869,-6.3589,-6.3358,-6.3512,-6.3589,-6.3705,-6.382,-6.3974,-6.4051,-6.4012,-6.3935,-6.3897,-6.4012,-6.3743,-6.3628,-6.3589,-6.3358,-6.3243,-6.3115,-6.3089,-6.3192,-6.3128,-6.2743,-6.2089,-7.1291,-7.1291,-7.1291,-7.1291,-7.1291,-7.1291,-7.1291,-7.1291,-7.1291,-7.1253,-7.0982,-7.1059,-7.1021,-7.1059,-7.1021,-7.0982,-7.0982,-7.1059,-7.1021,-7.0982,-7.1059,-7.1059,-7.0982,-7.1021,-7.1059,-7.1021,-7.0982,-7.0905,-7.0905,-7.0982,-7.1021,-7.1059,-7.1059,-7.0634,-6.9976,-6.9899,-6.9551,-6.8816,-6.8661,-6.8158,-6.7384,-6.6611,-6.6185,-6.6185,-6.6147,-6.6069,-6.6031,-6.5992,-6.5605,-6.4957,-6.488,-6.4532,-6.3874,-6.3719,-6.3681,-6.3603,-6.3565,-6.3526,-6.3449,-6.3449,-6.3449,-6.3565,-6.3603,-6.3642,-6.3797,-6.3603,-6.3449,-6.3449,-6.3449,-6.3333,-6.3487,-6.3526,-6.3603,-6.3603,-6.3758,-6.3681,-6.3797,-6.3681,-6.3681,-6.3681,-6.3913,-6.398,-6.4705,-6.487,-6.5141,-6.5595,-6.5603,-6.5571,-6.5578,-6.55,-6.5519,-6.5329,-6.4446,-6.382,-6.4282,-6.4474,-6.4705,-6.5359,-6.559,-6.5436,-6.5359,-6.5436,-6.5628,-6.5089,-6.4897,-6.4512,-6.432,-6.3935,-6.3474,-6.3666,-6.3628,-6.3423,-6.3308,-6.3281,-6.2897,-7.1291,-7.1291,-7.1291,-7.1291,-7.1291,-7.1291,-7.1291,-7.1291,-7.1291,-7.1291,-7.1291,-7.1291,-7.1291,-7.1291,-7.1291,-7.1291,-7.1291,-7.1291,-7.1291,-7.1291,-7.1291,-7.1291,-7.1291,-7.1291,-7.1291,-7.1291,-7.1291,-7.1291,-7.1291,-7.1291,-7.1291,-7.1291,-7.1291,-7.1098,-7.0789,-7.0789,-7.0595,-7.0286,-6.9783,-6.9319,-6.8854,-6.7655,-6.6959,-6.692,-6.6456,-6.6185,-6.6185,-6.6185,-6.6031,-6.5721,-6.5721,-6.5566,-6.5218,-6.518,-6.4986,-6.4493,-6.399,-6.3681,-6.3681,-6.3681,-6.3913,-6.4416,-6.4493,-6.4648,-6.5141,-6.518,-6.518,-6.5064,-6.43,-6.3681,-6.3758,-6.4145,-6.4454,-6.4532,-6.488,-6.5141,-6.518,-6.518,-6.518,-6.518,-6.518,-6.5257,-6.5605,-6.5682,-6.5837,-6.6147,-6.6165,-6.6134,-6.6102,-6.6024,-6.6005,-6.5931,-6.5293,-6.5051,-6.5282,-6.5359,-6.5551,-6.5743,-6.5897,-6.5897,-6.5897,-6.5897,-6.5859,-6.5897,-6.5551,-6.532,-6.5359,-6.5166,-6.4859,-6.4743,-6.482,-6.482,-6.482,-6.4436,-6.3974,-7.1291,-7.1291,-7.1291,-7.1291,-7.1291,-7.1291,-7.1291,-7.1291,-7.1291,-7.1291,-7.1291,-7.1291,-7.1291,-7.1291,-7.1291,-7.1291,-7.1291,-7.1291,-7.1291,-7.1291,-7.1291,-7.1291,-7.1291,-7.1291,-7.1291,-7.1291,-7.1291,-7.1291,-7.1291,-7.1291,-7.1291,-7.1291,-7.1291,-7.1291,-7.1291,-7.1291,-7.1291,-7.1214,-7.0672,-7.0374,-7.0131,-6.8932,-6.8081,-6.781,-6.6998,-6.6572,-6.6572,-6.634,-6.6185,-6.6185,-6.6185,-6.6185,-6.6185,-6.6185,-6.5953,-6.5373,-6.4764,-6.4367,-6.4377,-6.4377,-6.4648,-6.5218,-6.5296,-6.5566,-6.6031,-6.6185,-6.6185,-6.6069,-6.5064,-6.4445,-6.4445,-6.4957,-6.5296,-6.5373,-6.5876,-6.6185,-6.6147,-6.6185,-6.6147,-6.6185,-6.6031,-6.6185,-6.6185,-6.6147,-6.6185,-6.6185,-6.6185,-6.6175,-6.6123,-6.6069,-6.6013,-6.5993,-6.5933,-6.5884,-6.591,-6.582,-6.5897,-6.5897,-6.5897,-6.5897,-6.5897,-6.5897,-6.5897,-6.5897,-6.5897,-6.5859,-6.5705,-6.5782,-6.582,-6.5859,-6.582,-6.5782,-6.5667,-6.5282,-6.5051,-7.1291,-7.1291,-7.1291,-7.1291,-7.1291,-7.1291,-7.1291,-7.1291,-7.1291,-7.1291,-7.1291,-7.1291,-7.1291,-7.1291,-7.1291,-7.1291,-7.1291,-7.1291,-7.1291,-7.1291,-7.1291,-7.1291,-7.1291,-7.1291,-7.1291,-7.1291,-7.1291,-7.1291,-7.1291,-7.1291,-7.1291,-7.1291,-7.1291,-7.1291,-7.1291,-7.1291,-7.1291,-7.1253,-7.1214,-7.1214,-7.1098,-7.0324,-6.9473,-6.8816,-6.7926,-6.7462,-6.7384,-6.665,-6.6224,-6.6224,-6.6224,-6.6185,-6.6185,-6.6185,-6.6147,-6.6069,-6.6069,-6.6031,-6.5992,-6.5953,-6.5992,-6.6108,-6.6031,-6.6147,-6.6185,-6.6185,-6.6185,-6.6185,-6.6031,-6.5915,-6.5915,-6.5915,-6.6031,-6.6031,-6.6147,-6.6185,-6.6185,-6.6185,-6.6185,-6.6185,-6.6185,-6.6185,-6.6185,-6.6185,-6.6185,-6.6185,-6.6185,-6.6185,-6.6204,-6.6123,-6.6069,-6.6052,-6.5993,-6.5972,-6.5923,-6.5897,-6.5897,-6.5897,-6.5897,-6.5897,-6.5897,-6.5897,-6.5897,-6.5897,-6.5897,-6.5897,-6.5897,-6.5897,-6.5859,-6.5897,-6.5897,-6.5897,-6.5897,-6.5897,-6.5705,-7.1291,-7.1291,-7.1291,-7.1291,-7.1291,-7.1291,-7.1291,-7.1291,-7.1291,-7.1291,-7.1291,-7.1291,-7.1291,-7.1291,-7.1291,-7.1291,-7.1291,-7.1291,-7.1291,-7.1291,-7.1291,-7.1291,-7.1291,-7.1291,-7.1291,-7.1291,-7.1291,-7.1291,-7.1291,-7.1291,-7.1291,-7.1291,-7.1291,-7.1291,-7.1291,-7.1291,-7.1291,-7.1291,-7.1291,-7.1291,-7.1291,-7.0982,-7.0672,-7.0363,-6.9048,-6.8352,-6.8352,-6.7501,-6.7036,-6.7036,-6.6533,-6.6185,-6.6185,-6.6185,-6.6185,-6.6185,-6.6185,-6.6185,-6.6185,-6.6185,-6.6185,-6.6185,-6.6185,-6.6185,-6.6185,-6.6185,-6.6185,-6.6185,-6.6185,-6.6185,-6.6185,-6.6185,-6.6185,-6.6185,-6.6185,-6.6185,-6.6185,-6.6185,-6.6185,-6.6185,-6.6185,-6.6185,-6.6185,-6.6185,-6.6185,-6.6185,-6.6185,-6.6185,-6.6175,-6.6134,-6.6091,-6.6058,-6.6029,-6.5996,-6.5972,-6.5923,-6.5897,-6.5897,-6.5897,-6.5897,-6.5897,-6.5897,-6.5897,-6.5897,-6.5897,-6.5897,-6.5897,-6.5897,-6.5897,-6.5897,-6.5897,-6.5897,-6.5897,-6.5897,-6.5897,-7.1291,-7.1291,-7.1291,-7.1291,-7.1291,-7.1291,-7.1291,-7.1291,-7.1291,-7.1291,-7.1291,-7.1291,-7.1291,-7.1291,-7.1291,-7.1291,-7.1291,-7.1291,-7.1291,-7.1291,-7.1291,-7.1291,-7.1291,-7.1291,-7.1291,-7.1291,-7.1291,-7.1291,-7.1291,-7.1291,-7.1291,-7.1291,-7.1291,-7.1291,-7.1291,-7.1291,-7.1291,-7.1291,-7.1291,-7.1291,-7.1291,-7.1291,-7.1291,-7.1137,-7.017,-6.9473,-6.9203,-6.839,-6.7926,-6.7849,-6.7346,-6.692,-6.665,-6.634,-6.6185,-6.6185,-6.6185,-6.6185,-6.6185,-6.6185,-6.6185,-6.6185,-6.6185,-6.6185,-6.6185,-6.6185,-6.6185,-6.6185,-6.6185,-6.6185,-6.6185,-6.6185,-6.6185,-6.6185,-6.6185,-6.6185,-6.6185,-6.6185,-6.6185,-6.6185,-6.6185,-6.6185,-6.6185,-6.6185,-6.6185,-6.6185,-6.6185,-6.6185,-6.6175,-6.6155,-6.6123,-6.6102,-6.6085,-6.6017,-6.6008,-6.596,-6.5923,-6.591,-6.5897,-6.5897,-6.5897,-6.5897,-6.5897,-6.5897,-6.5897,-6.5897,-6.5897,-6.5897,-6.5897,-6.5897,-6.5897,-6.5897,-6.5897,-6.5897,-6.5897,-7.1369,-7.1446,-7.133,-7.1485,-7.1523,-7.1562,-7.1407,-7.1523,-7.1485,-7.1601,-7.164,-7.1446,-7.1601,-7.1446,-7.164,-7.1446,-7.1562,-7.1601,-7.1446,-7.1291,-7.1291,-7.1291,-7.1291,-7.1291,-7.1291,-7.1291,-7.1291,-7.1291,-7.1291,-7.1291,-7.1291,-7.1291,-7.1291,-7.1291,-7.1291,-7.1291,-7.1291,-7.1291,-7.1291,-7.1291,-7.1291,-7.1291,-7.1291,-7.1291,-7.1137,-7.075,-7.0015,-6.9241,-6.8777,-6.8816,-6.87,-6.8352,-6.7539,-6.6843,-6.634,-6.6417,-6.634,-6.6301,-6.634,-6.6417,-6.6495,-6.6495,-6.634,-6.6495,-6.6572,-6.6495,-6.6495,-6.6533,-6.6456,-6.6379,-6.6417,-6.6456,-6.6379,-6.6185,-6.6185,-6.6185,-6.6185,-6.6185,-6.6185,-6.6185,-6.6185,-6.6185,-6.6185,-6.6185,-6.6185,-6.6185,-6.6185,-6.6185,-6.6185,-6.6175,-6.6155,-6.6123,-6.608,-6.6036,-6.6017,-6.5996,-6.5998,-6.5961,-6.591,-6.5897,-6.5897,-6.5897,-6.5897,-6.5897,-6.5897,-6.5897,-6.5897,-6.5897,-6.5897,-6.5897,-6.5897,-6.5936,-6.5897,-6.5897,-6.5897,-7.3071,-7.3071,-7.3109,-7.3109,-7.3071,-7.3109,-7.3109,-7.3071,-7.3071,-7.3109,-7.3071,-7.3071,-7.3071,-7.3071,-7.3109,-7.3071,-7.3071,-7.3032,-7.2491,-7.1485,-7.133,-7.133,-7.133,-7.133,-7.1291,-7.1291,-7.1291,-7.1291,-7.1291,-7.1291,-7.1291,-7.1291,-7.1291,-7.1291,-7.1291,-7.1291,-7.1291,-7.1291,-7.1291,-7.1291,-7.1291,-7.1291,-7.1291,-7.1291,-7.1291,-7.1137,-7.0866,-7.0092,-6.9667,-6.9628,-6.9087,-6.8661,-6.839,-6.8158,-6.8003,-6.8003,-6.8003,-6.8003,-6.8003,-6.7965,-6.7926,-6.7965,-6.7965,-6.8003,-6.8003,-6.7926,-6.7926,-6.7926,-6.8003,-6.8003,-6.8003,-6.8003,-6.7462,-6.634,-6.6185,-6.6301,-6.634,-6.6301,-6.6185,-6.6185,-6.6185,-6.6185,-6.6224,-6.6263,-6.634,-6.634,-6.6301,-6.6301,-6.6263,-6.6379,-6.6185,-6.6155,-6.6123,-6.6312,-6.6464,-6.6675,-6.6819,-6.6705,-6.6526,-6.6436,-6.632,-6.6282,-6.6205,-6.6167,-6.6128,-6.609,-6.6051,-6.609,-6.6205,-6.609,-6.6128,-6.609,-6.5936,-6.5974,-6.609,-7.3883,-7.3883,-7.3883,-7.3883,-7.3883,-7.3883,-7.3883,-7.3883,-7.3883,-7.3883,-7.3883,-7.3883,-7.3883,-7.3883,-7.3883,-7.3883,-7.3883,-7.3883,-7.3303,-7.2375,-7.2258,-7.2258,-7.2258,-7.2258,-7.2065,-7.1833,-7.1794,-7.1601,-7.1291,-7.1291,-7.1291,-7.1291,-7.1291,-7.1291,-7.1291,-7.1291,-7.1291,-7.1291,-7.1291,-7.1291,-7.1291,-7.1291,-7.1291,-7.1291,-7.1291,-7.1291,-7.1253,-7.0761,-7.0479,-7.0324,-6.9705,-6.928,-6.9241,-6.9241,-6.9241,-6.9241,-6.9241,-6.9241,-6.9241,-6.8893,-6.8777,-6.8777,-6.8777,-6.8777,-6.8766,-6.8777,-6.8777,-6.8777,-6.8738,-6.8777,-6.8777,-6.8777,-6.8274,-6.7346,-6.723,-6.7152,-6.7152,-6.7152,-6.7191,-6.7268,-6.723,-6.7191,-6.7191,-6.7152,-6.7152,-6.7152,-6.7152,-6.7191,-6.7152,-6.723,-6.7114,-6.7103,-6.7314,-6.7377,-6.7143,-6.7355,-6.7653,-6.7526,-6.7321,-6.7282,-6.7205,-6.7244,-6.7205,-6.7244,-6.7205,-6.7282,-6.7244,-6.7167,-6.7167,-6.6859,-6.6667,-6.6744,-6.6821,-6.6513,-6.6474,-7.4038,-7.4038,-7.4038,-7.4154,-7.4154,-7.4154,-7.4231,-7.4115,-7.4154,-7.4193,-7.4154,-7.427,-7.4193,-7.4115,-7.4309,-7.4309,-7.4077,-7.4231,-7.427,-7.4077,-7.3999,-7.3922,-7.3612,-7.3574,-7.3226,-7.2761,-7.2684,-7.2297,-7.1756,-7.1562,-7.1369,-7.1485,-7.1369,-7.1291,-7.1291,-7.1291,-7.1291,-7.1291,-7.1291,-7.1291,-7.1291,-7.1291,-7.1291,-7.1291,-7.1291,-7.1291,-7.1253,-7.1214,-7.1214,-7.1175,-7.044,-7.0092,-7.0064,-7.0064,-7.0092,-7.0092,-7.0054,-7.017,-6.9976,-6.9783,-6.9473,-6.9628,-6.9628,-6.9087,-6.9579,-6.9783,-6.9744,-6.9667,-6.9589,-6.9396,-6.9357,-6.9319,-6.9203,-6.897,-6.8661,-6.8545,-6.8738,-6.8661,-6.8468,-6.8584,-6.8738,-6.8738,-6.8545,-6.8545,-6.8584,-6.8584,-6.8506,-6.8429,-6.8468,-6.8352,-6.8661,-6.8573,-6.8302,-6.8182,-6.7872,-6.8313,-6.8601,-6.8591,-6.8385,-6.8334,-6.8052,-6.7975,-6.7936,-6.8013,-6.8192,-6.8269,-6.8192,-6.7975,-6.7898,-6.7821,-6.7744,-6.7821,-6.7628,-6.7321,-6.709,-7.574,-7.574,-7.574,-7.574,-7.574,-7.574,-7.5701,-7.574,-7.5701,-7.5624,-7.5701,-7.574,-7.5624,-7.574,-7.5701,-7.574,-7.5624,-7.5662,-7.574,-7.574,-7.574,-7.4966,-7.4115,-7.3922,-7.3844,-7.3574,-7.3535,-7.3419,-7.3187,-7.2529,-7.2258,-7.222,-7.164,-7.133,-7.1291,-7.133,-7.1291,-7.1291,-7.1291,-7.1291,-7.1291,-7.1291,-7.1291,-7.1291,-7.1291,-7.1291,-7.1291,-7.1291,-7.1291,-7.1291,-7.1098,-7.0943,-7.0905,-7.0943,-7.0943,-7.0943,-7.0982,-7.1253,-7.1678,-7.1601,-7.1794,-7.2491,-7.2026,-7.2568,-7.2568,-7.2529,-7.2529,-7.2568,-7.2568,-7.2142,-7.1678,-7.1446,-7.1214,-7.0595,-6.9628,-6.8932,-6.8893,-6.8777,-6.8777,-6.8777,-6.8854,-6.8932,-6.897,-6.8932,-6.8932,-6.8932,-6.897,-6.897,-6.9125,-6.9087,-6.9203,-6.8932,-6.8689,-6.8696,-6.8779,-6.9258,-6.9548,-6.9592,-6.9541,-6.9553,-6.8988,-6.8436,-6.8359,-6.8321,-6.8667,-6.8846,-6.8577,-6.8321,-6.8436,-6.8783,-6.859,-6.8552,-6.8321,-6.809,-6.8013,-7.6397,-7.6397,-7.6397,-7.6397,-7.6397,-7.6397,-7.6397,-7.6397,-7.6397,-7.6397,-7.6397,-7.6397,-7.6397,-7.6397,-7.6359,-7.6359,-7.6397,-7.6397,-7.6359,-7.6359,-7.632,-7.5817,-7.5121,-7.4966,-7.4773,-7.4425,-7.4425,-7.4193,-7.3844,-7.3342,-7.3187,-7.2993,-7.2258,-7.1872,-7.1833,-7.1446,-7.1291,-7.1291,-7.1291,-7.1291,-7.1291,-7.1291,-7.1291,-7.1291,-7.1291,-7.1291,-7.1291,-7.1291,-7.1291,-7.1291,-7.1291,-7.1291,-7.133,-7.1678,-7.1833,-7.1833,-7.1833,-7.2065,-7.2375,-7.2297,-7.2297,-7.2645,-7.28,-7.28,-7.2684,-7.28,-7.28,-7.2645,-7.28,-7.2568,-7.222,-7.2065,-7.1794,-7.1214,-7.0402,-6.986,-6.986,-6.9938,-6.986,-6.986,-6.986,-6.986,-6.9821,-6.9821,-6.9821,-6.9899,-7.0015,-6.9976,-6.9976,-6.9821,-6.9744,-6.9628,-6.9617,-6.9789,-6.9844,-7.0158,-7.0216,-7.0272,-7.0247,-7.0336,-6.9925,-6.9206,-6.9321,-6.936,-6.9398,-6.9398,-6.9244,-6.9283,-6.9629,-6.9783,-6.9475,-6.9244,-6.909,-6.8936,-6.8898,-7.6397,-7.6397,-7.6397,-7.6397,-7.6397,-7.6397,-7.6397,-7.6397,-7.6397,-7.6397,-7.6397,-7.6397,-7.6397,-7.6397,-7.6397,-7.6397,-7.6397,-7.6397,-7.6397,-7.6397,-7.6397,-7.6204,-7.6165,-7.6088,-7.5779,-7.5314,-7.5237,-7.4928,-7.4502,-7.4193,-7.4038,-7.3806,-7.3148,-7.2684,-7.2375,-7.1833,-7.1446,-7.1291,-7.1291,-7.1291,-7.1291,-7.1291,-7.1291,-7.1291,-7.1291,-7.1291,-7.1291,-7.1291,-7.1291,-7.1291,-7.1291,-7.1291,-7.1369,-7.2065,-7.2336,-7.2297,-7.222,-7.2297,-7.2491,-7.1988,-7.1678,-7.1949,-7.1949,-7.1562,-7.1988,-7.2181,-7.2181,-7.2258,-7.1601,-7.1872,-7.1678,-7.1485,-7.1369,-7.1253,-7.1175,-7.1253,-7.1291,-7.1291,-7.1291,-7.1291,-7.1253,-7.1291,-7.1291,-7.1291,-7.1214,-7.0634,-7.0711,-7.0711,-7.0711,-7.0672,-7.0711,-7.0789,-7.0894,-7.1087,-7.1054,-7.1108,-7.0961,-7.0876,-7.0761,-7.0721,-7.0681,-7.036,-7.0591,-7.0629,-7.0244,-7.0244,-7.0398,-7.0591,-7.0667,-7.0629,-7.0244,-7.009,-7.0014,-6.986,-6.9783,-7.6397,-7.6397,-7.6397,-7.6397,-7.6397,-7.6397,-7.6397,-7.6397,-7.6397,-7.6397,-7.6397,-7.6397,-7.6397,-7.6397,-7.6397,-7.6397,-7.6397,-7.6397,-7.6397,-7.6397,-7.6397,-7.6397,-7.6397,-7.6397,-7.6281,-7.6049,-7.6088,-7.5972,-7.5701,-7.5121,-7.4839,-7.4734,-7.4038,-7.3303,-7.2723,-7.2452,-7.191,-7.1446,-7.1291,-7.1291,-7.1291,-7.1291,-7.1291,-7.1291,-7.1291,-7.1291,-7.1291,-7.1291,-7.1291,-7.1291,-7.1291,-7.1291,-7.133,-7.1485,-7.164,-7.1678,-7.1678,-7.191,-7.2375,-7.2336,-7.2568,-7.2916,-7.2877,-7.3342,-7.3342,-7.3109,-7.3187,-7.3342,-7.3342,-7.2723,-7.2181,-7.164,-7.1369,-7.1291,-7.1291,-7.1291,-7.1291,-7.1291,-7.1291,-7.1291,-7.1291,-7.1291,-7.1291,-7.1291,-7.1291,-7.1291,-7.1291,-7.1291,-7.1291,-7.1291,-7.1291,-7.1291,-7.1291,-7.128,-7.1269,-7.1247,-7.1178,-7.1093,-7.1018,-7.0952,-7.0925,-7.0898,-7.0898,-7.0898,-7.0821,-7.0898,-7.0898,-7.0898,-7.0783,-7.086,-7.0898,-7.0667,-7.0514,-7.0514,-7.0437,-7.6397,-7.6397,-7.6397,-7.6397,-7.6397,-7.6397,-7.6397,-7.6397,-7.6397,-7.6397,-7.6397,-7.6397,-7.6397,-7.6397,-7.6397,-7.6397,-7.6397,-7.6397,-7.6397,-7.6397,-7.6397,-7.6397,-7.6397,-7.6397,-7.6397,-7.6397,-7.6359,-7.6397,-7.6243,-7.5972,-7.5701,-7.5624,-7.4889,-7.4347,-7.3612,-7.3032,-7.2375,-7.191,-7.1485,-7.1291,-7.1291,-7.1291,-7.1291,-7.1291,-7.1291,-7.1291,-7.1291,-7.1291,-7.1291,-7.1291,-7.1291,-7.1291,-7.1291,-7.1291,-7.1291,-7.1291,-7.1291,-7.1446,-7.1872,-7.1988,-7.2104,-7.2684,-7.2684,-7.2684,-7.2684,-7.2684,-7.2684,-7.2684,-7.2568,-7.2413,-7.2026,-7.1678,-7.133,-7.1291,-7.1291,-7.1291,-7.1291,-7.1291,-7.1291,-7.1291,-7.1291,-7.1291,-7.1291,-7.1291,-7.1291,-7.1291,-7.1291,-7.1291,-7.1291,-7.1291,-7.1291,-7.1291,-7.1291,-7.1291,-7.128,-7.1258,-7.1213,-7.1142,-7.1056,-7.1005,-7.0965,-7.0925,-7.0898,-7.0898,-7.0898,-7.0898,-7.0898,-7.0898,-7.0898,-7.0898,-7.0898,-7.0898,-7.086,-7.0744,-7.0706,-7.6397,-7.6397,-7.6397,-7.6397,-7.6397,-7.6397,-7.6397,-7.6397,-7.6397,-7.6397,-7.6397,-7.6397,-7.6397,-7.6397,-7.6397,-7.6397,-7.6397,-7.6397,-7.6397,-7.6397,-7.6397,-7.6397,-7.6397,-7.6397,-7.6397,-7.6397,-7.6397,-7.6397,-7.6397,-7.6359,-7.6204,-7.6204,-7.5701,-7.5121,-7.4734,-7.3844,-7.2916,-7.2452,-7.191,-7.1446,-7.133,-7.1291,-7.1291,-7.1291,-7.1291,-7.1291,-7.1291,-7.1291,-7.1291,-7.1291,-7.1291,-7.1291,-7.1291,-7.1291,-7.1291,-7.1291,-7.1291,-7.1369,-7.1407,-7.1407,-7.1407,-7.1291,-7.133,-7.1369,-7.1407,-7.1523,-7.1562,-7.1485,-7.1523,-7.1523,-7.133,-7.133,-7.1291,-7.1291,-7.1291,-7.1291,-7.1291,-7.1291,-7.1291,-7.1291,-7.1291,-7.1291,-7.1291,-7.1291,-7.1291,-7.1291,-7.1291,-7.1291,-7.1291,-7.1291,-7.1291,-7.1291,-7.1291,-7.1291,-7.1291,-7.128,-7.1236,-7.119,-7.1106,-7.1068,-7.1018,-7.0979,-7.0939,-7.0898,-7.0898,-7.0898,-7.0898,-7.0898,-7.0898,-7.0898,-7.0898,-7.0898,-7.0898,-7.0898,-7.0898,-7.6397,-7.6397,-7.6397,-7.6397,-7.6397,-7.6397,-7.6397,-7.6397,-7.6397,-7.6397,-7.6397,-7.6397,-7.6397,-7.6397,-7.6397,-7.6397,-7.6397,-7.6397,-7.6397,-7.6397,-7.6397,-7.6397,-7.6397,-7.6397,-7.6397,-7.6397,-7.6397,-7.6397,-7.6397,-7.6397,-7.6397,-7.637,-7.6204,-7.5856,-7.5276,-7.4684,-7.3844,-7.2993,-7.2452,-7.1988,-7.1562,-7.133,-7.1291,-7.1291,-7.1291,-7.1291,-7.1291,-7.1291,-7.1291,-7.1291,-7.1291,-7.1291,-7.1291,-7.1291,-7.1291,-7.1291,-7.1291,-7.1291,-7.1291,-7.1291,-7.1291,-7.1291,-7.1291,-7.1291,-7.1291,-7.1291,-7.1291,-7.1291,-7.1291,-7.1291,-7.1291,-7.1291,-7.1291,-7.1291,-7.1291,-7.1291,-7.1291,-7.1291,-7.1291,-7.1291,-7.1291,-7.1291,-7.1291,-7.1291,-7.1291,-7.1291,-7.1291,-7.1291,-7.1291,-7.1291,-7.1291,-7.1291,-7.1291,-7.1291,-7.1291,-7.1291,-7.1269,-7.1224,-7.1178,-7.1142,-7.1093,-7.103,-7.0979,-7.0939,-7.0912,-7.0898,-7.0898,-7.0898,-7.0898,-7.0898,-7.0898,-7.0898,-7.0898,-7.0898,-7.0898,-7.6397,-7.6397,-7.6397,-7.6397,-7.6397,-7.6397,-7.6397,-7.6397,-7.6397,-7.6397,-7.6397,-7.6397,-7.6397,-7.6397,-7.6397,-7.6397,-7.6397,-7.6397,-7.6397,-7.6397,-7.6397,-7.6397,-7.6397,-7.6397,-7.6397,-7.6397,-7.6397,-7.6397,-7.6397,-7.6397,-7.6397,-7.6397,-7.6397,-7.6165,-7.574,-7.5276,-7.4734,-7.3806,-7.3071,-7.2452,-7.1949,-7.1601,-7.133,-7.1291,-7.1291,-7.1291,-7.1291,-7.1291,-7.1291,-7.1291,-7.1291,-7.1291,-7.1291,-7.1291,-7.1291,-7.1291,-7.1291,-7.1291,-7.1291,-7.1291,-7.1291,-7.1291,-7.1291,-7.1291,-7.1291,-7.1291,-7.1291,-7.1291,-7.1291,-7.1291,-7.1291,-7.1291,-7.1291,-7.1291,-7.1291,-7.1291,-7.1291,-7.1291,-7.1291,-7.1291,-7.1291,-7.1291,-7.1291,-7.1291,-7.1291,-7.1291,-7.1291,-7.1291,-7.1291,-7.1291,-7.1291,-7.1291,-7.1291,-7.1291,-7.1291,-7.1291,-7.1291,-7.1258,-7.1224,-7.1201,-7.1154,-7.1093,-7.103,-7.0979,-7.0939,-7.0912,-7.0898,-7.0898,-7.0898,-7.0898,-7.0898,-7.0898,-7.0898,-7.0898,-7.0898,-7.6397,-7.6397,-7.6397,-7.6397,-7.6397,-7.6397,-7.6397,-7.6397,-7.6397,-7.6397,-7.6397,-7.6397,-7.6397,-7.6397,-7.6397,-7.6397,-7.6397,-7.6397,-7.6397,-7.6397,-7.6397,-7.6397,-7.6397,-7.6397,-7.6397,-7.6397,-7.6397,-7.6397,-7.6397,-7.6397,-7.6397,-7.6397,-7.6397,-7.6397,-7.6165,-7.574,-7.5392,-7.4695,-7.3922,-7.3071,-7.2491,-7.1949,-7.1446,-7.1291,-7.1291,-7.1291,-7.1291,-7.1291,-7.1291,-7.1291,-7.1291,-7.1291,-7.1291,-7.1291,-7.1291,-7.1291,-7.1291,-7.1291,-7.1291,-7.1291,-7.1291,-7.1291,-7.1291,-7.1291,-7.1291,-7.1291,-7.1291,-7.1291,-7.1291,-7.1291,-7.1291,-7.1291,-7.1291,-7.1291,-7.1291,-7.1291,-7.1291,-7.1291,-7.1291,-7.1291,-7.1291,-7.1291,-7.1291,-7.1291,-7.1291,-7.1291,-7.1291,-7.1291,-7.1291,-7.1291,-7.1291,-7.1291,-7.1291,-7.1291,-7.1291,-7.1291,-7.1291,-7.128,-7.1258,-7.1236,-7.119,-7.1142,-7.1081,-7.103,-7.0965,-7.0939,-7.0925,-7.0898,-7.0898,-7.0898,-7.0898,-7.0898,-7.0898,-7.0898,-7.0898,-7.6397,-7.6397,-7.6397,-7.6397,-7.6397,-7.6397,-7.6397,-7.6397,-7.6397,-7.6397,-7.6397,-7.6397,-7.6397,-7.6397,-7.6397,-7.6397,-7.6397,-7.6397,-7.6397,-7.6397,-7.6397,-7.6397,-7.6397,-7.6397,-7.6397,-7.6397,-7.6397,-7.6397,-7.6397,-7.6397,-7.6397,-7.6397,-7.6397,-7.6397,-7.6359,-7.6165,-7.5856,-7.5237,-7.485,-7.4038,-7.2877,-7.2491,-7.1988,-7.1562,-7.1291,-7.1291,-7.1291,-7.1291,-7.1291,-7.1291,-7.1291,-7.1291,-7.1291,-7.1291,-7.1291,-7.1291,-7.1291,-7.1291,-7.1291,-7.1291,-7.1291,-7.1291,-7.1291,-7.1291,-7.1291,-7.1291,-7.1291,-7.1291,-7.1291,-7.1291,-7.1291,-7.1291,-7.1291,-7.1291,-7.1291,-7.1291,-7.1291,-7.1291,-7.1291,-7.1291,-7.1291,-7.1291,-7.1291,-7.1291,-7.1291,-7.1291,-7.1291,-7.1291,-7.1291,-7.1291,-7.1291,-7.1291,-7.1291,-7.1291,-7.1291,-7.1291,-7.1291,-7.1291,-7.128,-7.1269,-7.1236,-7.119,-7.1154,-7.1093,-7.103,-7.0965,-7.0939,-7.0912,-7.0898,-7.0898,-7.0898,-7.0898,-7.0898,-7.0898,-7.0898,-7.6397,-7.6397,-7.6397,-7.6397,-7.6397,-7.6397,-7.6397,-7.6397,-7.6397,-7.6397,-7.6397,-7.6397,-7.6397,-7.6397,-7.6397,-7.6397,-7.6397,-7.6397,-7.6397,-7.6397,-7.6397,-7.6397,-7.6397,-7.6397,-7.6397,-7.6397,-7.6397,-7.6397,-7.6397,-7.6397,-7.6397,-7.6397,-7.6397,-7.6397,-7.6397,-7.6397,-7.6204,-7.5779,-7.5314,-7.4502,-7.3535,-7.2877,-7.2452,-7.2026,-7.1601,-7.1369,-7.133,-7.1291,-7.1291,-7.1291,-7.1291,-7.1291,-7.1291,-7.1291,-7.1291,-7.1291,-7.1291,-7.1291,-7.1291,-7.1291,-7.1291,-7.1291,-7.1291,-7.1291,-7.1291,-7.1291,-7.1291,-7.1291,-7.1291,-7.1291,-7.1291,-7.1291,-7.1291,-7.1291,-7.1291,-7.1291,-7.1291,-7.1291,-7.1291,-7.1291,-7.1291,-7.1291,-7.1291,-7.1291,-7.1291,-7.1291,-7.1291,-7.1291,-7.1291,-7.1291,-7.1291,-7.1291,-7.1291,-7.1291,-7.1291,-7.1291,-7.1291,-7.1291,-7.1291,-7.128,-7.128,-7.1247,-7.1201,-7.1142,-7.1068,-7.1005,-7.0965,-7.0925,-7.0898,-7.0898,-7.0898,-7.0898,-7.0898,-7.0898,-7.0898,-7.6397,-7.6397,-7.6397,-7.6397,-7.6397,-7.6397,-7.6397,-7.6397,-7.6397,-7.6397,-7.6397,-7.6397,-7.6397,-7.6397,-7.6397,-7.6397,-7.6397,-7.6397,-7.6397,-7.6397,-7.6397,-7.6397,-7.6397,-7.6397,-7.6397,-7.6397,-7.6397,-7.6397,-7.6397,-7.6397,-7.6397,-7.6397,-7.6397,-7.6397,-7.6397,-7.6397,-7.632,-7.6281,-7.5779,-7.5082,-7.4231,-7.3612,-7.3226,-7.2761,-7.2181,-7.164,-7.1601,-7.133,-7.1291,-7.1291,-7.1291,-7.1291,-7.1291,-7.1291,-7.1291,-7.1291,-7.1291,-7.1291,-7.1291,-7.1291,-7.1291,-7.1291,-7.1291,-7.1291,-7.1291,-7.1291,-7.1291,-7.1291,-7.1291,-7.1291,-7.1291,-7.1291,-7.1291,-7.1291,-7.1291,-7.1291,-7.1291,-7.1291,-7.1291,-7.1291,-7.1291,-7.1291,-7.1291,-7.1291,-7.1291,-7.1291,-7.1291,-7.1291,-7.1291,-7.1291,-7.1291,-7.1291,-7.1291,-7.1291,-7.1291,-7.1291,-7.1291,-7.1291,-7.1291,-7.1291,-7.128,-7.1269,-7.1236,-7.1166,-7.1106,-7.1056,-7.1005,-7.0952,-7.0898,-7.0898,-7.0898,-7.0898,-7.0898,-7.0898,-7.0898,-7.6397,-7.6397,-7.6397,-7.6397,-7.6397,-7.6397,-7.6397,-7.6397,-7.6397,-7.6397,-7.6397,-7.6397,-7.6397,-7.6397,-7.6397,-7.6397,-7.6397,-7.6397,-7.6397,-7.6397,-7.6397,-7.6397,-7.6397,-7.6397,-7.6397,-7.6397,-7.6397,-7.6397,-7.6397,-7.6397,-7.6397,-7.6397,-7.6397,-7.6397,-7.6397,-7.6397,-7.6397,-7.6397,-7.6165,-7.5817,-7.5198,-7.4734,-7.4425,-7.3728,-7.3032,-7.2491,-7.2452,-7.1717,-7.1291,-7.1291,-7.1291,-7.1291,-7.1291,-7.1291,-7.1291,-7.1291,-7.1291,-7.1291,-7.1291,-7.1291,-7.1291,-7.1291,-7.1291,-7.1291,-7.1291,-7.1291,-7.1291,-7.1291,-7.1291,-7.1291,-7.1291,-7.1291,-7.1291,-7.1291,-7.1291,-7.1291,-7.1291,-7.1291,-7.1291,-7.1291,-7.1291,-7.1291,-7.1291,-7.1291,-7.1291,-7.1291,-7.1291,-7.1291,-7.1291,-7.1291,-7.1291,-7.1291,-7.1291,-7.1291,-7.1291,-7.1291,-7.1291,-7.1291,-7.1291,-7.1291,-7.1291,-7.1269,-7.1258,-7.1224,-7.1166,-7.1106,-7.1043,-7.0979,-7.0925,-7.0912,-7.0898,-7.0898,-7.0898,-7.0898,-7.0898,-7.6397,-7.6397,-7.6397,-7.6397,-7.6397,-7.6397,-7.6397,-7.6397,-7.6397,-7.6397,-7.6397,-7.6397,-7.6397,-7.6397,-7.6397,-7.6397,-7.6397,-7.6397,-7.6397,-7.6397,-7.6397,-7.6397,-7.6397,-7.6397,-7.6397,-7.6397,-7.6397,-7.6397,-7.6397,-7.6397,-7.6397,-7.6397,-7.6397,-7.6397,-7.6397,-7.6397,-7.6397,-7.6397,-7.6397,-7.6165,-7.5933,-7.5314,-7.4966,-7.4618,-7.3187,-7.2684,-7.2452,-7.1717,-7.1407,-7.1291,-7.1291,-7.1291,-7.1291,-7.1291,-7.1291,-7.1291,-7.1291,-7.1291,-7.1291,-7.1291,-7.1291,-7.1291,-7.1291,-7.1291,-7.1291,-7.1291,-7.1291,-7.1291,-7.1302,-7.1324,-7.1291,-7.1291,-7.1291,-7.1291,-7.1291,-7.1291,-7.1291,-7.1291,-7.1291,-7.1291,-7.1291,-7.1291,-7.1291,-7.1291,-7.1291,-7.1291,-7.1291,-7.1291,-7.1291,-7.1291,-7.1291,-7.1291,-7.1291,-7.1291,-7.1291,-7.1291,-7.1291,-7.1291,-7.1291,-7.1291,-7.1291,-7.1291,-7.1269,-7.1247,-7.1224,-7.1154,-7.1081,-7.1018,-7.0952,-7.0912,-7.0898,-7.0898,-7.0898,-7.0898,-7.0898,-7.6397,-7.6397,-7.6397,-7.6397,-7.6397,-7.6397,-7.6397,-7.6397,-7.6397,-7.6397,-7.6397,-7.6397,-7.6397,-7.6397,-7.6397,-7.6397,-7.6397,-7.6397,-7.6397,-7.6397,-7.6397,-7.6397,-7.6397,-7.6397,-7.6397,-7.6397,-7.6397,-7.6397,-7.6397,-7.6397,-7.6397,-7.6397,-7.6397,-7.6397,-7.6397,-7.6397,-7.6397,-7.6397,-7.6397,-7.6397,-7.6243,-7.5895,-7.5546,-7.5314,-7.4193,-7.338,-7.2993,-7.2297,-7.164,-7.1407,-7.1291,-7.1291,-7.1291,-7.1291,-7.1291,-7.1291,-7.1291,-7.1291,-7.1291,-7.1291,-7.1291,-7.1291,-7.1291,-7.1291,-7.1291,-7.1291,-7.1291,-7.1302,-7.1345,-7.1337,-7.1345,-7.1317,-7.1306,-7.1306,-7.1302,-7.1291,-7.1291,-7.1291,-7.1291,-7.1291,-7.1291,-7.1291,-7.1291,-7.1291,-7.1291,-7.1291,-7.1291,-7.1291,-7.1291,-7.1291,-7.1291,-7.1291,-7.1291,-7.1291,-7.1291,-7.1291,-7.1291,-7.1291,-7.1291,-7.1291,-7.1291,-7.1291,-7.1291,-7.128,-7.1247,-7.119,-7.113,-7.1056,-7.0979,-7.0912,-7.0898,-7.0898,-7.0898,-7.0898,-7.0898,-7.6397,-7.6397,-7.6397,-7.6397,-7.6397,-7.6397,-7.6397,-7.6397,-7.6397,-7.6397,-7.6397,-7.6397,-7.6397,-7.6397,-7.6397,-7.6397,-7.6397,-7.6397,-7.6397,-7.6397,-7.6397,-7.6397,-7.6397,-7.6397,-7.6397,-7.6397,-7.6397,-7.6397,-7.6397,-7.6397,-7.6397,-7.6397,-7.6397,-7.6397,-7.6397,-7.6397,-7.6397,-7.6397,-7.6397,-7.6397,-7.6359,-7.6243,-7.6165,-7.5895,-7.516,-7.4309,-7.3806,-7.2839,-7.2104,-7.164,-7.1369,-7.1291,-7.1291,-7.1291,-7.1291,-7.1291,-7.1291,-7.1291,-7.1291,-7.1291,-7.1291,-7.1291,-7.1291,-7.1291,-7.1291,-7.1291,-7.1324,-7.1327,-7.1426,-7.1445,-7.1426,-7.1378,-7.1397,-7.1358,-7.1317,-7.1291,-7.1291,-7.1291,-7.1291,-7.1291,-7.1291,-7.1291,-7.1291,-7.1291,-7.1291,-7.1291,-7.1291,-7.1291,-7.1291,-7.1291,-7.1291,-7.1291,-7.1291,-7.1291,-7.1291,-7.1291,-7.1291,-7.1291,-7.1291,-7.1291,-7.1291,-7.1291,-7.1291,-7.1291,-7.1269,-7.1236,-7.1166,-7.1093,-7.1005,-7.0925,-7.0898,-7.0898,-7.0898,-7.0898,-7.0898,-7.6397,-7.6397,-7.6397,-7.6397,-7.6397,-7.6397,-7.6397,-7.6397,-7.6397,-7.6397,-7.6397,-7.6397,-7.6397,-7.6397,-7.6397,-7.6397,-7.6397,-7.6397,-7.6397,-7.6397,-7.6397,-7.6397,-7.6397,-7.6397,-7.6397,-7.6397,-7.6397,-7.6397,-7.6397,-7.6397,-7.6397,-7.6397,-7.6397,-7.6397,-7.6397,-7.6397,-7.6397,-7.6397,-7.6397,-7.6397,-7.6409,-7.6409,-7.637,-7.637,-7.5597,-7.5005,-7.4579,-7.3458,-7.2607,-7.2026,-7.1717,-7.1369,-7.133,-7.1291,-7.1291,-7.1291,-7.1291,-7.1291,-7.1291,-7.1291,-7.1291,-7.1291,-7.1291,-7.1291,-7.1291,-7.1291,-7.1327,-7.1397,-7.1486,-7.1528,-7.1573,-7.1481,-7.1469,-7.1425,-7.1368,-7.1334,-7.1291,-7.1291,-7.1291,-7.1291,-7.1291,-7.1291,-7.1291,-7.1291,-7.1291,-7.1291,-7.1291,-7.1291,-7.1291,-7.1291,-7.1291,-7.1291,-7.1291,-7.1291,-7.1291,-7.1291,-7.1291,-7.1291,-7.1291,-7.1291,-7.1291,-7.1291,-7.1291,-7.1291,-7.128,-7.1269,-7.1178,-7.1093,-7.1005,-7.0939,-7.0912,-7.0898,-7.0898,-7.0898,-7.0898,-7.6397,-7.6397,-7.6397,-7.6397,-7.6397,-7.6397,-7.6397,-7.6397,-7.6397,-7.6397,-7.6397,-7.6397,-7.6397,-7.6397,-7.6397,-7.6397,-7.6397,-7.6397,-7.6397,-7.6397,-7.6397,-7.6397,-7.6397,-7.6397,-7.6397,-7.6397,-7.6397,-7.6397,-7.6397,-7.6397,-7.6397,-7.6397,-7.6397,-7.6397,-7.6397,-7.6397,-7.6397,-7.6393,-7.6427,-7.6465,-7.6465,-7.6465,-7.6454,-7.6316,-7.5924,-7.543,-7.4889,-7.4115,-7.3148,-7.2684,-7.2104,-7.1562,-7.1446,-7.1291,-7.1291,-7.1291,-7.1291,-7.1291,-7.1291,-7.1291,-7.1291,-7.1291,-7.1291,-7.1291,-7.1324,-7.1337,-7.1397,-7.1486,-7.1521,-7.1573,-7.1615,-7.1529,-7.1465,-7.146,-7.1397,-7.1313,-7.1291,-7.1291,-7.1291,-7.1291,-7.1291,-7.1291,-7.1291,-7.1291,-7.1291,-7.1291,-7.1291,-7.1291,-7.1291,-7.1291,-7.1291,-7.1291,-7.1291,-7.1291,-7.1291,-7.1291,-7.1291,-7.1291,-7.1291,-7.1291,-7.1291,-7.1291,-7.1291,-7.1291,-7.1291,-7.1258,-7.1166,-7.1081,-7.1005,-7.0939,-7.0898,-7.0898,-7.0898,-7.0898,-7.0898,-7.6397,-7.6397,-7.6397,-7.6397,-7.6397,-7.6397,-7.6397,-7.6397,-7.6397,-7.6397,-7.6397,-7.6397,-7.6397,-7.6397,-7.6397,-7.6397,-7.6397,-7.6397,-7.6397,-7.6397,-7.6397,-7.6397,-7.6397,-7.6397,-7.6397,-7.6397,-7.6397,-7.6397,-7.6397,-7.6397,-7.6397,-7.6397,-7.6397,-7.6397,-7.6397,-7.6397,-7.6397,-7.6405,-7.6506,-7.6526,-7.6545,-7.66,-7.6609,-7.6496,-7.6283,-7.5918,-7.5448,-7.4873,-7.4038,-7.338,-7.2723,-7.2142,-7.1678,-7.1369,-7.133,-7.1291,-7.1291,-7.1291,-7.1291,-7.1291,-7.1291,-7.1302,-7.1334,-7.1313,-7.1306,-7.1417,-7.1495,-7.1544,-7.1608,-7.1587,-7.1573,-7.1505,-7.1469,-7.1387,-7.1355,-7.1302,-7.1291,-7.1291,-7.1291,-7.1291,-7.1291,-7.1291,-7.1291,-7.1291,-7.1291,-7.1291,-7.1291,-7.1291,-7.1291,-7.1291,-7.1291,-7.1291,-7.1291,-7.1291,-7.1291,-7.1291,-7.1291,-7.1291,-7.1291,-7.1291,-7.1291,-7.1291,-7.1291,-7.1291,-7.1291,-7.1258,-7.1178,-7.1093,-7.1005,-7.0952,-7.0912,-7.0898,-7.0898,-7.0898,-7.0898,-7.6397,-7.6397,-7.6397,-7.6397,-7.6397,-7.6397,-7.6397,-7.6397,-7.6397,-7.6397,-7.6397,-7.6397,-7.6397,-7.6397,-7.6397,-7.6397,-7.6397,-7.6397,-7.6397,-7.6397,-7.6397,-7.6397,-7.6397,-7.6397,-7.6397,-7.6397,-7.6397,-7.6397,-7.6397,-7.6397,-7.6397,-7.6397,-7.6397,-7.6397,-7.6397,-7.6397,-7.6409,-7.645,-7.6536,-7.6609,-7.6638,-7.6692,-7.6721,-7.6706,-7.6626,-7.6312,-7.608,-7.5464,-7.4763,-7.4458,-7.3778,-7.3159,-7.2336,-7.2181,-7.2104,-7.1369,-7.1291,-7.1291,-7.1291,-7.1291,-7.1291,-7.1334,-7.1378,-7.1368,-7.1378,-7.1434,-7.1544,-7.1621,-7.1665,-7.1647,-7.1615,-7.1551,-7.1456,-7.1417,-7.1355,-7.1302,-7.1291,-7.1291,-7.1291,-7.1291,-7.1291,-7.1291,-7.1291,-7.1291,-7.1291,-7.1291,-7.1291,-7.1291,-7.1291,-7.1291,-7.1291,-7.1291,-7.1291,-7.1291,-7.1291,-7.1291,-7.1291,-7.1291,-7.1291,-7.1291,-7.1291,-7.1291,-7.1291,-7.1291,-7.1291,-7.1258,-7.1201,-7.1118,-7.103,-7.0979,-7.0939,-7.0912,-7.0898,-7.0898,-7.0898,-7.6397,-7.6397,-7.6397,-7.6397,-7.6397,-7.6397,-7.6397,-7.6397,-7.6397,-7.6397,-7.6397,-7.6397,-7.6397,-7.6397,-7.6397,-7.6397,-7.6397,-7.6397,-7.6397,-7.6397,-7.6397,-7.6397,-7.6397,-7.6397,-7.6397,-7.6397,-7.6397,-7.6397,-7.6397,-7.6397,-7.6397,-7.6397,-7.6397,-7.6397,-7.6397,-7.6409,-7.6427,-7.6516,-7.6561,-7.6646,-7.6728,-7.681,-7.6853,-7.6848,-7.6748,-7.6692,-7.6622,-7.5913,-7.5653,-7.5342,-7.4653,-7.4148,-7.3276,-7.2938,-7.2207,-7.1539,-7.1291,-7.1291,-7.1291,-7.1291,-7.1291,-7.1324,-7.1397,-7.1368,-7.1456,-7.1527,-7.1602,-7.17,-7.1705,-7.17,-7.1659,-7.1569,-7.1489,-7.1397,-7.1348,-7.1302,-7.1291,-7.1291,-7.1291,-7.1291,-7.1291,-7.1291,-7.1291,-7.1291,-7.1291,-7.1291,-7.1291,-7.1291,-7.1291,-7.1291,-7.1291,-7.1291,-7.1291,-7.1291,-7.1291,-7.1291,-7.1291,-7.1291,-7.1291,-7.1291,-7.1291,-7.1291,-7.1291,-7.1291,-7.1291,-7.1258,-7.1224,-7.1142,-7.1068,-7.1018,-7.0965,-7.0912,-7.0898,-7.0898,-7.0898,-7.6397,-7.6397,-7.6397,-7.6397,-7.6397,-7.6397,-7.6397,-7.6397,-7.6397,-7.6397,-7.6397,-7.6397,-7.6397,-7.6397,-7.6397,-7.6397,-7.6397,-7.6397,-7.6397,-7.6397,-7.6397,-7.6397,-7.6397,-7.6397,-7.6397,-7.6397,-7.6397,-7.6397,-7.6397,-7.6397,-7.6397,-7.6397,-7.6397,-7.6382,-7.6438,-7.645,-7.6506,-7.6605,-7.6734,-7.6816,-7.6848,-7.6946,-7.699,-7.6981,-7.6926,-7.6816,-7.681,-7.6649,-7.6454,-7.5869,-7.5474,-7.515,-7.4327,-7.3455,-7.2565,-7.2027,-7.1843,-7.1678,-7.159,-7.1503,-7.1324,-7.1324,-7.1334,-7.1397,-7.1473,-7.1602,-7.1666,-7.1705,-7.1705,-7.1671,-7.1621,-7.1481,-7.1359,-7.1348,-7.1334,-7.1291,-7.1291,-7.1291,-7.1291,-7.1291,-7.1291,-7.1291,-7.1291,-7.1291,-7.1291,-7.1291,-7.1291,-7.1291,-7.1291,-7.1291,-7.1291,-7.1291,-7.1291,-7.1291,-7.1291,-7.1291,-7.1291,-7.1291,-7.1291,-7.1291,-7.1291,-7.1291,-7.1291,-7.1291,-7.1291,-7.1269,-7.1236,-7.1154,-7.1093,-7.1043,-7.0979,-7.0912,-7.0898,-7.0898,-7.0898,-7.6397,-7.6397,-7.6397,-7.6397,-7.6397,-7.6397,-7.6397,-7.6397,-7.6397,-7.6397,-7.6397,-7.6397,-7.6397,-7.6397,-7.6397,-7.6397,-7.6397,-7.6397,-7.6397,-7.6397,-7.6397,-7.6397,-7.6397,-7.6397,-7.6397,-7.6397,-7.6397,-7.6397,-7.6397,-7.6397,-7.6397,-7.6409,-7.6382,-7.645,-7.6546,-7.6517,-7.6596,-7.6755,-7.6848,-7.695,-7.6968,-7.7087,-7.7145,-7.7099,-7.7037,-7.6965,-7.6942,-7.6819,-7.671,-7.6493,-7.6493,-7.6025,-7.5246,-7.4326,-7.3795,-7.3458,-7.2825,-7.257,-7.2349,-7.2034,-7.1765,-7.1609,-7.158,-7.1463,-7.152,-7.1659,-7.1726,-7.1749,-7.1683,-7.1641,-7.1559,-7.1406,-7.1291,-7.1291,-7.1369,-7.1369,-7.1407,-7.1446,-7.1446,-7.1407,-7.1407,-7.1446,-7.1446,-7.1369,-7.1291,-7.1291,-7.1291,-7.1291,-7.1291,-7.1291,-7.1291,-7.1291,-7.1291,-7.1291,-7.1291,-7.1291,-7.1291,-7.1291,-7.1291,-7.1291,-7.1291,-7.1291,-7.1291,-7.1291,-7.1291,-7.1269,-7.1236,-7.1166,-7.1106,-7.1068,-7.0992,-7.0939,-7.0912,-7.0912,-7.0898,-7.646,-7.6409,-7.6397,-7.6397,-7.6397,-7.6397,-7.6397,-7.6397,-7.6397,-7.6397,-7.6397,-7.6397,-7.6397,-7.6397,-7.6397,-7.6397,-7.6397,-7.6397,-7.6397,-7.6397,-7.6397,-7.6397,-7.6397,-7.6397,-7.6397,-7.6397,-7.6397,-7.6397,-7.6397,-7.6397,-7.6397,-7.6393,-7.645,-7.6536,-7.6626,-7.6646,-7.6755,-7.6873,-7.6972,-7.7034,-7.707,-7.7148,-7.7226,-7.7148,-7.7148,-7.7109,-7.7091,-7.7029,-7.6981,-7.6975,-7.6942,-7.6408,-7.5737,-7.5096,-7.4641,-7.4171,-7.3754,-7.3475,-7.3263,-7.2949,-7.2562,-7.2531,-7.2624,-7.2871,-7.3013,-7.3115,-7.2418,-7.2326,-7.1783,-7.1665,-7.1587,-7.1469,-7.1327,-7.1291,-7.1833,-7.2181,-7.2491,-7.2761,-7.2761,-7.2761,-7.2761,-7.2761,-7.2645,-7.2181,-7.2065,-7.1833,-7.1756,-7.1407,-7.1369,-7.1407,-7.1369,-7.1291,-7.1291,-7.1291,-7.1291,-7.1291,-7.1291,-7.1291,-7.1291,-7.1291,-7.1291,-7.1291,-7.1291,-7.1291,-7.1291,-7.1291,-7.1247,-7.119,-7.1166,-7.1154,-7.1056,-7.0952,-7.0939,-7.0912,-7.0898,-7.6526,-7.6421,-7.6397,-7.6397,-7.6397,-7.6397,-7.6397,-7.6397,-7.6397,-7.6397,-7.6397,-7.6397,-7.6397,-7.6397,-7.6397,-7.6397,-7.6397,-7.6397,-7.6397,-7.6397,-7.6397,-7.6397,-7.6397,-7.6397,-7.6397,-7.6397,-7.6397,-7.6397,-7.6397,-7.6409,-7.6432,-7.6438,-7.6536,-7.6626,-7.6669,-7.6768,-7.6878,-7.6978,-7.7087,-7.7097,-7.7148,-7.7226,-7.7226,-7.7226,-7.7226,-7.7226,-7.7226,-7.7187,-7.7187,-7.7187,-7.7148,-7.6747,-7.6384,-7.5943,-7.5573,-7.5081,-7.4718,-7.4503,-7.4314,-7.4109,-7.4015,-7.4049,-7.426,-7.4294,-7.435,-7.4008,-7.3321,-7.2899,-7.2365,-7.2061,-7.2022,-7.19,-7.1775,-7.1816,-7.2474,-7.2966,-7.343,-7.3844,-7.3844,-7.3844,-7.3844,-7.3844,-7.3535,-7.3071,-7.2839,-7.2607,-7.2297,-7.1833,-7.1601,-7.1678,-7.1717,-7.1485,-7.1291,-7.1291,-7.1291,-7.1291,-7.1291,-7.1291,-7.1291,-7.1291,-7.1291,-7.1291,-7.1291,-7.1291,-7.1291,-7.133,-7.1269,-7.1224,-7.1213,-7.119,-7.1081,-7.0965,-7.0939,-7.0912,-7.0898,-7.6526,-7.6397,-7.6397,-7.6397,-7.6397,-7.6397,-7.6397,-7.6397,-7.6397,-7.6397,-7.6397,-7.6397,-7.6397,-7.6397,-7.6397,-7.6397,-7.6397,-7.6397,-7.6397,-7.6397,-7.6397,-7.6397,-7.6397,-7.6397,-7.6397,-7.6397,-7.6397,-7.6397,-7.6421,-7.6421,-7.6471,-7.6575,-7.6573,-7.6706,-7.6891,-7.6972,-7.7032,-7.7109,-7.7148,-7.7187,-7.7187,-7.7226,-7.7226,-7.7226,-7.7226,-7.7226,-7.7226,-7.7226,-7.7226,-7.7226,-7.7187,-7.7031,-7.6875,-7.6719,-7.6484,-7.6172,-7.5781,-7.5553,-7.5345,-7.4981,-7.4893,-7.4693,-7.4706,-7.4687,-7.4725,-7.4749,-7.4343,-7.4278,-7.3852,-7.3637,-7.3501,-7.3294,-7.3168,-7.3263,-7.3689,-7.3823,-7.4083,-7.4176,-7.4193,-7.4193,-7.4193,-7.4193,-7.4115,-7.3844,-7.3728,-7.3496,-7.338,-7.2955,-7.2413,-7.2258,-7.2142,-7.1872,-7.1601,-7.1291,-7.1291,-7.1291,-7.1291,-7.1291,-7.1407,-7.1678,-7.1678,-7.133,-7.133,-7.1562,-7.1446,-7.1407,-7.1347,-7.1258,-7.1213,-7.1178,-7.1081,-7.0992,-7.0952,-7.0925,-7.0925]},{"header":{"parameterUnit":"m.s-1","parameterCategory":1,"la1":31.0,"la2":29.5877,"lo1":-88.7671,"lo2":-86.6584,"dy":0.0162,"dx":0.0185,"nx":115,"ny":88,"refTime":"2023-02-23T06:00:00:Z","depth":0,"parameterNumber":3,"parameterNumberName":"V-component_of_WINDS"},"data":[0.0,0.0,0.0,0.0,0.0,0.0,0.0,0.0,0.0,0.0,0.0,0.0,0.0,0.0,0.0,0.0,0.0,0.0,0.0,0.0,0.0,0.0,0.0,0.0,0.0,0.0,0.0,0.0,0.0,0.0,0.0,0.0,0.0,0.0,0.0,0.0,0.0,0.0,0.0,0.0,0.0,0.0,0.0,0.0,0.0,0.0,0.0,0.0,0.0,0.0,0.0,0.0,0.0,0.0,0.0,0.0,0.0,0.0,0.0,0.0,0.0,0.0,0.0,0.0,0.0,0.0,0.0,0.0,0.0,0.0,0.0,0.0,0.0,0.0,0.0,0.0,0.0,0.0,0.0,0.0,0.0,0.0,0.0,0.0,0.0,0.0,0.0,0.0,0.0,0.0,0.0,0.0,0.0,0.0,0.0,0.0,0.0,0.0,0.0,0.0,0.0,0.0,0.0,0.0,0.0,0.0,0.0,0.0,0.0,0.0,0.0,0.0,0.0,0.0,0.0,0.0,0.0,0.0,0.0,0.0,0.0,0.0,0.0,0.0,0.0,0.0,0.0,0.0,0.0,0.0,0.0,0.0,0.0,0.0,0.0,0.0,0.0,0.0,0.0,0.0,0.0,0.0,0.0,0.0,0.0,0.0,0.0,0.0,0.0,0.0,0.0,0.0,0.0,0.0,0.0,0.0,0.0,0.0,0.0,0.0,0.0,0.0,0.0,0.0,0.0,0.0,0.0,0.0,0.0,0.0,0.0,0.0,0.0,0.0,0.0,0.0,0.0,0.0,0.0,0.0,0.0,0.0,0.0,0.0,0.0,0.0,0.0,0.0,0.0,0.0,0.0,0.0,0.0,0.0,0.0,0.0,0.0,0.0,0.0,0.0,0.0,0.0,0.0,0.0,0.0,0.0,0.0,0.0,0.0,0.0,0.0,0.0,0.0,0.0,0.0,0.0,0.0,0.0,0.0,0.0,0.0,0.0,0.0,0.0,0.0,0.0,0.0,0.0,0.0,0.0,0.0,0.0,0.0,0.0,0.0,0.0,0.0,0.0,0.0,0.0,0.0,0.0,0.0,0.0,0.0,0.0,0.0,0.0,0.0,0.0,0.0,0.0,0.0,0.0,0.0,0.0,0.0,0.0,0.0,0.0,0.0,0.0,0.0,0.0,0.0,0.0,0.0,0.0,0.0,0.0,0.0,0.0,0.0,0.0,0.0,0.0,0.0,0.0,0.0,0.0,0.0,0.0,0.0,0.0,0.0,0.0,0.0,0.0,0.0,0.0,0.0,0.0,0.0,0.0,0.0,0.0,0.0,0.0,0.0,0.0,0.0,0.0,0.0,0.0,0.0,0.0,0.0,0.0,0.0,0.0,0.0,0.0,0.0,0.0,0.0,0.0,0.0,0.0,0.0,0.0,0.0,0.0,0.0,0.0,0.0,0.0,0.0,0.0,0.0,0.0,0.0,0.0,0.0,0.0,0.0,0.0,0.0,0.0,0.0,0.0,0.0,0.0,0.0,0.0,0.0,0.0,0.0,0.0,0.0,0.0,0.0,0.0,0.0,0.0,0.0,0.0,0.0,0.0,0.0,0.0,0.0,0.0,0.0,0.0,0.0,0.0,0.0,0.0,0.0,0.0,0.0,0.0,0.0,0.0,0.0,0.0,0.0,0.0,0.0,0.0,0.0,0.0,0.0,0.0,0.0,0.0,0.0,0.0,0.0,0.0,0.0,0.0,0.0,0.0,0.0,0.0,0.0,0.0,0.0,0.0,0.0,0.0,0.0,0.0,0.0,0.0,0.0,0.0,0.0,0.0,0.0,0.0,0.0,0.0,0.0,0.0,0.0,0.0,0.0,0.0,0.0,0.0,0.0,0.0,0.0,0.0,0.0,0.0,0.0,0.0,0.0,0.0,0.0,0.0,0.0,0.0,0.0,0.0,0.0,0.0,0.0,0.0,0.0,0.0,0.0,0.0,0.0,0.0,0.0,0.0,0.0,0.0,0.0,0.0,0.0,0.0,0.0,0.0,0.0,0.0,0.0,0.0,0.0,0.0,0.0,0.0,0.0,0.0,0.0,0.0,0.0,0.0,0.0,0.0,0.0,0.0,0.0,0.0,0.0,0.0,0.0,0.0,0.0,0.0,0.0,0.0,0.0,0.0,0.0,0.0,0.0,0.0,0.0,0.0,0.0,0.0,0.0,0.0,0.0,0.0,0.0,0.0,0.0,0.0,0.0,0.0,0.0,0.0,0.0,0.0,0.0,0.0,0.0,0.0,0.0,0.0,0.0,0.0,0.0,0.0,0.0,0.0,0.0,0.0,0.0,0.0,0.0,0.0,0.0,0.0,0.0,0.0,0.0,0.0,0.0,0.0,0.0,0.0,0.0,0.0,0.0,0.0,0.0,0.0,0.0,0.0,0.0,0.0,0.0,0.0,0.0,0.0,0.0,0.0,0.0,0.0,0.0,0.0,0.0,0.0,0.0,0.0,0.0,0.0,0.0,0.0,0.0,0.0,0.0,0.0,0.0,0.0,0.0,0.0,0.0,0.0,0.0,0.0,0.0,0.0,0.0,0.0,0.0,0.0,0.0,0.0,0.0,0.0,0.0,0.0,0.0,0.0,0.0,0.0,0.0,0.0,0.0,0.0,0.0,0.0,0.0,0.0,0.0,0.0,0.0,0.0,0.0,0.0,0.0,0.0,0.0,0.0,0.0,0.0,0.0,0.0,0.0,0.0,0.0,0.0,0.0,0.0,0.0,0.0,0.0,0.0,0.0,0.0,0.0,0.0,0.0,0.0,0.0,0.0,0.0,0.0,0.0,0.0,0.0,0.0,0.0,0.0,0.0,0.0,0.0,0.0,0.0,0.0,0.0,0.0,0.0,0.0,0.0,0.0,0.0,0.0,0.0,0.0,0.0,0.0,0.0,0.0,0.0,0.0,0.0,0.0,0.0,0.0,0.0,0.0,0.0,0.0,0.0,0.0,0.0,0.0,0.0,0.0,0.0,0.0,0.0,0.0,0.0,0.0,0.0,0.0,0.0,0.0,0.0,0.0,0.0,0.0,0.0,0.0,0.0,0.0,0.0,0.0,0.0,0.0,0.0,0.0,0.0,0.0,0.0,0.0,0.0,0.0,0.0,0.0,0.0,0.0,0.0,0.0,0.0,0.0,0.0,0.0,0.0,0.0,0.0,0.0,0.0,0.0,0.0,0.0,0.0,0.0,0.0,0.0,0.0,0.0,0.0,0.0,0.0,0.0,0.0,0.0,0.0,0.0,0.0,0.0,0.0,0.0,0.0,0.0,0.0,0.0,0.0,0.0,0.0,0.0,0.0,0.0,0.0,0.0,0.0,0.0,0.0,0.0,0.0,0.0,0.0,0.0,0.0,0.0,0.0,0.0,0.0,0.0,0.0,0.0,0.0,0.0,0.0,0.0,0.0,0.0,0.0,0.0,0.0,0.0,0.0,0.0,0.0,0.0,0.0,0.0,0.0,0.0,0.0,0.0,0.0,0.0,0.0,0.0,0.0,0.0,0.0,0.0,0.0,0.0,0.0,0.0,0.0,0.0,0.0,0.0,0.0,0.0,0.0,0.0,0.0,0.0,0.0,0.0,0.0,0.0,0.0,0.0,0.0,0.0,0.0,0.0,0.0,0.0,0.0,0.0,0.0,0.0,0.0,0.0,0.0,0.0,0.0,0.0,0.0,0.0,0.0,0.0,0.0,0.0,0.0,0.0,0.0,0.0,0.0,0.0,0.0,0.0,0.0,0.0,0.0,0.0,0.0,0.0,0.0,0.0,0.0,0.0,0.0,0.0,0.0,0.0,0.0,0.0,0.0,0.0,0.0,0.0,0.0,0.0,0.0,0.0,0.0,0.0,0.0,0.0,0.0,0.0,0.0,0.0,0.0,0.0,0.0,0.0,0.0,0.0,0.0,0.0,0.0,0.0,0.0,0.0,0.0,0.0,0.0,0.0,0.0,0.0,0.0,0.0,0.0,0.0,0.0,0.0,0.0,0.0,0.0,0.0,0.0,0.0,0.0,0.0,0.0,0.0,0.0,0.0,0.0,0.0,0.0,0.0,0.0,0.0,0.0,0.0,0.0,0.0,0.0,0.0,0.0,0.0,0.0,0.0,0.0,0.0,0.0,0.0,0.0,0.0,0.0,0.0,0.0,0.0,0.0,0.0,0.0,0.0,0.0,0.0,0.0,0.0,0.0,0.0,0.0,0.0,0.0,0.0,0.0,0.0,0.0,0.0,0.0,0.0,0.0,0.0,-0.7933,0.0,0.0,0.0,0.0,0.0,0.0,0.0,0.0,0.0,0.0,0.0,0.0,0.0,0.0,0.0,0.0,0.0,0.0,0.0,0.0,0.0,0.0,0.0,0.0,0.0,0.0,0.0,0.0,0.0,0.0,0.0,0.0,0.0,0.0,0.0,0.0,0.0,0.0,0.0,0.0,0.0,0.0,0.0,0.0,0.0,0.0,0.0,0.0,0.0,0.0,0.0,0.0,0.0,0.0,0.0,0.0,0.0,0.0,0.0,0.0,0.0,0.0,0.0,0.0,0.0,0.0,0.0,0.0,0.0,0.0,0.0,0.0,0.0,0.0,0.0,0.0,0.0,0.0,0.0,0.0,0.0,0.0,0.0,0.0,0.0,0.0,0.0,0.0,0.0,0.0,0.0,0.0,0.0,0.0,0.0,0.0,0.0,0.0,0.0,0.0,0.0,0.0,0.0,0.0,0.0,0.0,0.0,0.0,0.0,0.0,-0.7933,-0.7933,-0.7933,-0.7933,-0.7933,0.0,0.0,0.0,0.0,0.0,0.0,0.0,0.0,0.0,0.0,0.0,0.0,0.0,0.0,0.0,0.0,0.0,0.0,0.0,0.0,0.0,0.0,0.0,0.0,0.0,0.0,0.0,0.0,0.0,0.0,0.0,0.0,0.0,0.0,0.0,0.0,0.0,0.0,0.0,0.0,0.0,0.0,0.0,0.0,0.0,0.0,0.0,0.0,0.0,0.0,0.0,0.0,0.0,0.0,0.0,0.0,0.0,0.0,0.0,0.0,0.0,0.0,0.0,0.0,0.0,0.0,0.0,0.0,0.0,0.0,0.0,0.0,0.0,0.0,0.0,0.0,0.0,0.0,0.0,0.0,0.0,0.0,0.0,0.0,0.0,0.0,0.0,0.0,0.0,0.0,0.0,0.0,0.0,0.0,0.0,0.0,0.0,0.0,0.0,0.0,0.0,0.0,0.0,0.0,0.0,0.0,0.0,0.0,0.0,0.0,0.0,0.0,-0.7933,-0.7933,-0.7933,0.0,0.0,0.0,0.0,0.0,0.0,0.0,0.0,0.0,0.0,0.0,0.0,0.0,0.0,0.0,0.0,0.0,0.0,0.0,0.0,0.0,0.0,0.0,0.0,0.0,0.0,0.0,0.0,0.0,0.0,0.0,0.0,0.0,0.0,0.0,0.0,0.0,0.0,0.0,0.0,0.0,0.0,0.0,0.0,0.0,0.0,0.0,0.0,0.0,0.0,0.0,0.0,0.0,0.0,0.0,0.0,0.0,0.0,0.0,0.0,0.0,0.0,0.0,0.0,0.0,0.0,0.0,0.0,0.0,0.0,0.0,0.0,0.0,0.0,0.0,0.0,0.0,0.0,0.0,0.0,0.0,0.0,0.0,0.0,0.0,0.0,0.0,0.0,0.0,0.0,0.0,0.0,0.0,0.0,0.0,0.0,0.0,0.0,0.0,0.0,0.0,0.0,0.0,0.0,0.0,0.0,0.0,0.0,0.0,0.0,-0.7933,-0.7933,-0.7933,0.0,-0.7933,0.0,0.0,0.0,0.0,0.0,0.0,0.0,0.0,0.0,0.0,0.0,0.0,0.0,0.0,0.0,0.0,0.0,0.0,0.0,0.0,0.0,0.0,0.0,0.0,0.0,0.0,0.0,0.0,0.0,0.0,0.0,0.0,0.0,0.0,0.0,0.0,0.0,0.0,0.0,0.0,0.0,0.0,0.0,0.0,0.0,0.0,0.0,0.0,0.0,0.0,0.0,0.0,0.0,0.0,0.0,0.0,0.0,0.0,0.0,0.0,0.0,0.0,0.0,0.0,0.0,0.0,0.0,0.0,0.0,0.0,0.0,0.0,0.0,0.0,0.0,0.0,0.0,0.0,0.0,0.0,0.0,0.0,0.0,0.0,0.0,0.0,0.0,0.0,0.0,0.0,0.0,0.0,0.0,0.0,0.0,0.0,0.0,0.0,0.0,0.0,0.0,0.0,0.0,0.0,0.0,0.0,0.0,0.0,0.0,0.0,-0.7933,-0.7933,-0.7933,-0.7933,0.0,0.0,0.0,0.0,0.0,0.0,0.0,0.0,0.0,0.0,0.0,0.0,0.0,0.0,0.0,0.0,0.0,0.0,0.0,0.0,0.0,0.0,0.0,0.0,0.0,0.0,0.0,0.0,0.0,0.0,0.0,0.0,0.0,0.0,0.0,0.0,0.0,0.0,0.0,0.0,0.0,0.0,0.0,0.0,0.0,0.0,0.0,0.0,0.0,0.0,0.0,0.0,0.0,0.0,0.0,0.0,0.0,0.0,0.0,0.0,0.0,0.0,0.0,0.0,0.0,0.0,0.0,0.0,0.0,0.0,0.0,0.0,0.0,0.0,0.0,0.0,0.0,0.0,0.0,0.0,0.0,0.0,0.0,0.0,0.0,0.0,0.0,0.0,0.0,0.0,0.0,0.0,0.0,0.0,0.0,0.0,0.0,0.0,0.0,0.0,0.0,0.0,0.0,0.0,0.0,0.0,0.0,0.0,0.0,0.0,-0.7933,-0.7933,-0.7933,-0.7933,-0.7933,-0.7933,0.0,0.0,0.0,0.0,0.0,0.0,0.0,0.0,0.0,0.0,0.0,0.0,0.0,0.0,0.0,0.0,0.0,0.0,0.0,0.0,0.0,0.0,0.0,0.0,0.0,0.0,0.0,0.0,0.0,0.0,0.0,0.0,0.0,0.0,0.0,0.0,0.0,0.0,0.0,0.0,0.0,0.0,0.0,0.0,0.0,0.0,0.0,0.0,0.0,0.0,0.0,0.0,0.0,0.0,0.0,0.0,0.0,0.0,0.0,0.0,0.0,0.0,0.0,0.0,0.0,0.0,0.0,0.0,0.0,0.0,0.0,0.0,0.0,0.0,0.0,0.0,0.0,0.0,0.0,0.0,0.0,0.0,0.0,0.0,0.0,0.0,0.0,0.0,0.0,0.0,0.0,0.0,0.0,0.0,0.0,0.0,0.0,0.0,0.0,0.0,0.0,0.0,0.0,0.0,0.0,0.0,0.0,0.0,-0.7933,-0.7933,-0.7933,-0.7933,-0.7933,-0.7933,0.0,0.0,0.0,0.0,0.0,0.0,0.0,0.0,0.0,0.0,0.0,0.0,0.0,0.0,0.0,0.0,0.0,0.0,0.0,0.0,0.0,0.0,0.0,0.0,0.0,0.0,0.0,0.0,0.0,0.0,0.0,0.0,0.0,0.0,0.0,0.0,0.0,0.0,0.0,0.0,0.0,0.0,0.0,0.0,0.0,0.0,0.0,0.0,0.0,0.0,0.0,0.0,0.0,0.0,0.0,0.0,0.0,0.0,0.0,0.0,0.0,0.0,0.0,0.0,0.0,0.0,0.0,0.0,0.0,0.0,0.0,0.0,0.0,0.0,0.0,0.0,0.0,0.0,0.0,0.0,0.0,0.0,0.0,0.0,0.0,0.0,0.0,0.0,0.0,0.0,0.0,0.0,0.0,0.0,0.0,0.0,0.0,0.0,0.0,0.0,0.0,0.0,0.0,0.0,0.0,0.0,0.0,0.0,0.0,-0.7933,-0.7933,-0.7933,-0.7933,-0.7933,-0.7933,0.0,0.0,0.0,0.0,0.0,0.0,0.0,0.0,0.0,0.0,0.0,0.0,0.0,0.0,0.0,0.0,0.0,0.0,0.0,0.0,0.0,0.0,0.0,0.0,0.0,0.0,0.0,0.0,0.0,0.0,0.0,0.0,0.0,0.0,0.0,0.0,0.0,0.0,0.0,0.0,0.0,0.0,0.0,0.0,0.0,0.0,0.0,0.0,0.0,0.0,0.0,0.0,0.0,0.0,0.0,0.0,0.0,0.0,0.0,0.0,0.0,0.0,0.0,0.0,0.0,0.0,0.0,0.0,0.0,0.0,0.0,0.0,0.0,0.0,0.0,0.0,0.0,0.0,0.0,0.0,0.0,0.0,0.0,0.0,0.0,0.0,0.0,0.0,0.0,0.0,0.0,0.0,0.0,0.0,0.0,0.0,0.0,0.0,0.0,0.0,0.0,0.0,0.0,0.0,0.0,0.0,0.0,0.0,0.0,-0.7933,0.0,-0.7933,-0.7933,-0.7933,-0.7933,0.0,0.0,0.0,0.0,0.0,0.0,0.0,0.0,0.0,0.0,0.0,0.0,0.0,0.0,0.0,0.0,0.0,0.0,0.0,0.0,0.0,0.0,0.0,0.0,0.0,0.0,0.0,0.0,0.0,0.0,0.0,0.0,0.0,0.0,0.0,0.0,0.0,0.0,0.0,0.0,0.0,0.0,0.0,0.0,0.0,0.0,0.0,0.0,0.0,0.0,0.0,0.0,0.0,0.0,0.0,0.0,0.0,0.0,0.0,0.0,0.0,0.0,0.0,0.0,0.0,0.0,0.0,0.0,0.0,0.0,0.0,0.0,0.0,0.0,0.0,0.0,0.0,0.0,0.0,0.0,0.0,0.0,0.0,0.0,0.0,0.0,0.0,0.0,0.0,0.0,0.0,0.0,0.0,0.0,0.0,0.0,0.0,0.0,0.0,0.0,0.0,0.0,0.0,0.0,0.0,0.0,0.0,0.0,-0.7933,-0.7933,-0.7933,-0.7933,-0.7933,-0.7933,-0.7933,0.0,0.0,0.0,0.0,0.0,0.0,0.0,0.0,0.0,0.0,0.0,0.0,0.0,0.0,0.0,0.0,0.0,0.0,0.0,0.0,0.0,0.0,0.0,0.0,0.0,0.0,0.0,0.0,0.0,0.0,0.0,0.0,0.0,0.0,0.0,0.0,0.0,0.0,0.0,0.0,0.0,0.0,0.0,0.0,0.0,0.0,0.0,0.0,0.0,0.0,0.0,0.0,0.0,0.0,0.0,0.0,0.0,0.0,0.0,0.0,0.0,0.0,0.0,0.0,0.0,0.0,0.0,0.0,0.0,0.0,0.0,0.0,0.0,0.0,0.0,0.0,0.0,0.0,0.0,0.0,0.0,0.0,0.0,0.0,0.0,0.0,0.0,0.0,0.0,0.0,0.0,0.0,0.0,0.0,0.0,0.0,0.0,0.0,0.0,0.0,0.0,0.0,0.0,0.0,0.0,0.0,0.0,0.0,0.0,-0.7933,-0.7933,-0.7933,-0.7933,-0.7933,-0.7933,0.0,0.0,0.0,0.0,0.0,0.0,0.0,0.0,0.0,0.0,0.0,0.0,0.0,0.0,0.0,0.0,0.0,0.0,0.0,0.0,0.0,0.0,0.0,0.0,0.0,0.0,0.0,0.0,0.0,0.0,0.0,0.0,0.0,0.0,0.0,0.0,0.0,0.0,0.0,0.0,0.0,0.0,0.0,0.0,0.0,0.0,0.0,0.0,0.0,0.0,0.0,0.0,0.0,0.0,0.0,0.0,0.0,0.0,0.0,0.0,0.0,0.0,0.0,0.0,0.0,0.0,0.0,0.0,0.0,0.0,0.0,0.0,0.0,0.0,0.0,0.0,0.0,0.0,0.0,0.0,0.0,0.0,0.0,0.0,0.0,0.0,0.0,0.0,0.0,0.0,0.0,0.0,0.0,0.0,0.0,0.0,0.0,0.0,0.0,0.0,0.0,0.0,0.0,0.0,0.0,0.0,0.0,0.0,0.0,-0.7933,-0.7933,-0.7933,-0.7933,-0.7933,-0.7933,-0.7933,0.0,0.0,0.0,0.0,0.0,0.0,0.0,0.0,0.0,0.0,0.0,0.0,0.0,0.0,0.0,0.0,0.0,0.0,0.0,0.0,0.0,0.0,0.0,0.0,0.0,0.0,0.0,0.0,0.0,0.0,0.0,0.0,0.0,0.0,0.0,0.0,0.0,0.0,0.0,0.0,0.0,0.0,0.0,0.0,0.0,0.0,0.0,0.0,0.0,0.0,0.0,0.0,0.0,0.0,0.0,0.0,0.0,0.0,0.0,0.0,0.0,0.0,0.0,0.0,0.0,0.0,0.0,0.0,0.0,0.0,0.0,0.0,0.0,0.0,0.0,0.0,0.0,0.0,0.0,0.0,0.0,0.0,0.0,0.0,0.0,0.0,0.0,0.0,0.0,0.0,0.0,0.0,0.0,0.0,0.0,0.0,0.0,0.0,0.0,0.0,0.0,0.0,0.0,0.0,0.0,0.0,0.0,0.0,-0.7933,-0.7933,-0.7933,-0.7933,-0.7933,-0.7933,0.0,0.0,0.0,0.0,0.0,0.0,0.0,0.0,0.0,0.0,0.0,0.0,0.0,0.0,0.0,0.0,0.0,0.0,0.0,0.0,0.0,0.0,0.0,0.0,0.0,0.0,0.0,0.0,0.0,0.0,0.0,0.0,0.0,0.0,0.0,0.0,0.0,0.0,0.0,0.0,0.0,0.0,0.0,0.0,0.0,0.0,0.0,0.0,0.0,0.0,0.0,0.0,0.0,0.0,0.0,0.0,0.0,0.0,0.0,0.0,0.0,0.0,0.0,0.0,0.0,0.0,0.0,0.0,0.0,0.0,0.0,0.0,0.0,0.0,0.0,0.0,0.0,0.0,0.0,0.0,0.0,0.0,0.0,0.0,0.0,0.0,0.0,0.0,0.0,0.0,0.0,0.0,0.0,0.0,0.0,0.0,0.0,0.0,0.0,0.0,0.0,0.0,0.0,0.0,0.0,0.0,0.0,0.0,0.0,-0.7933,-0.7933,-0.7933,-0.7933,-0.7933,-0.7933,0.0,0.0,0.0,0.0,0.0,0.0,0.0,0.0,0.0,0.0,0.0,0.0,0.0,0.0,0.0,0.0,0.0,0.0,0.0,0.0,0.0,0.0,0.0,0.0,0.0,0.0,0.0,0.0,0.0,0.0,0.0,0.0,0.0,0.0,0.0,0.0,0.0,0.0,0.0,0.0,0.0,0.0,0.0,0.0,0.0,0.0,0.0,0.0,0.0,0.0,0.0,0.0,0.0,0.0,0.0,0.0,0.0,0.0,0.0,0.0,0.0,0.0,0.0,0.0,0.0,0.0,0.0,0.0,0.0,0.0,0.0,0.0,0.0,0.0,0.0,0.0,0.0,0.0,0.0,0.0,0.0,0.0,0.0,0.0,0.0,0.0,0.0,0.0,0.0,0.0,0.0,0.0,0.0,0.0,0.0,0.0,0.0,0.0,0.0,0.0,0.0,0.0,0.0,0.0,0.0,0.0,0.0,0.0,-0.7933,-0.7933,-0.7933,-0.7933,-0.7933,-0.7933,-0.7933,0.0,0.0,0.0,0.0,0.0,0.0,0.0,0.0,0.0,0.0,0.0,0.0,0.0,0.0,0.0,0.0,0.0,0.0,0.0,0.0,0.0,0.0,0.0,0.0,0.0,0.0,0.0,0.0,0.0,0.0,0.0,0.0,0.0,0.0,0.0,0.0,0.0,0.0,0.0,0.0,0.0,0.0,0.0,0.0,0.0,0.0,0.0,0.0,0.0,0.0,0.0,0.0,0.0,0.0,0.0,0.0,0.0,0.0,0.0,0.0,0.0,0.0,0.0,0.0,0.0,0.0,0.0,0.0,0.0,0.0,0.0,0.0,0.0,0.0,0.0,0.0,0.0,0.0,0.0,0.0,0.0,0.0,0.0,0.0,0.0,0.0,0.0,0.0,0.0,0.0,0.0,0.0,0.0,0.0,0.0,0.0,0.0,0.0,0.0,0.0,0.0,0.0,0.0,0.0,0.0,0.0,0.0,0.0,-0.7933,-0.7933,-0.7933,-0.7933,-0.7933,-0.7933,-0.7933,0.0,0.0,0.0,0.0,0.0,0.0,0.0,0.0,0.0,0.0,0.0,0.0,0.0,0.0,0.0,0.0,0.0,0.0,0.0,0.0,0.0,0.0,0.0,0.0,0.0,0.0,0.0,0.0,0.0,0.0,0.0,0.0,0.0,0.0,0.0,0.0,0.0,0.0,0.0,0.0,0.0,0.0,0.0,0.0,0.0,0.0,0.0,0.0,0.0,0.0,0.0,0.0,0.0,0.0,0.0,0.0,0.0,0.0,0.0,0.0,0.0,0.0,0.0,0.0,0.0,0.0,0.0,0.0,0.0,0.0,0.0,0.0,0.0,0.0,0.0,0.0,0.0,0.0,0.0,0.0,0.0,0.0,0.0,0.0,0.0,0.0,0.0,0.0,0.0,0.0,0.0,0.0,0.0,0.0,0.0,0.0,0.0,0.0,0.0,0.0,0.0,0.0,0.0,0.0,0.0,0.0,0.0,0.0,-0.7933,-0.7933,-0.7933,-0.7933,-0.7933,-0.7933,-0.7933,0.0,0.0,0.0,0.0,0.0,0.0,0.0,0.0,0.0,0.0,0.0,0.0,0.0,0.0,0.0,0.0,0.0,0.0,0.0,0.0,0.0,0.0,0.0,0.0,0.0,0.0,0.0,0.0,0.0,0.0,0.0,0.0,0.0,0.0,0.0,0.0,0.0,0.0,0.0,0.0,0.0,0.0,0.0,0.0,0.0,0.0,0.0,0.0,-0.8915,0.0,0.0,0.0,0.0,0.0,0.0,0.0,0.0,0.0,0.0,0.0,0.0,0.0,0.0,0.0,0.0,0.0,0.0,0.0,0.0,0.0,0.0,0.0,0.0,0.0,0.0,0.0,0.0,0.0,0.0,0.0,0.0,0.0,0.0,0.0,0.0,0.0,0.0,0.0,0.0,0.0,0.0,0.0,0.0,0.0,0.0,0.0,0.0,0.0,0.0,0.0,0.0,0.0,0.0,0.0,0.0,0.0,0.0,0.0,-0.804,-0.804,-0.7986,-0.8021,-0.7959,-0.7966,-0.7933,0.0,0.0,0.0,0.0,0.0,0.0,0.0,0.0,0.0,0.0,0.0,0.0,0.0,0.0,0.0,0.0,0.0,0.0,0.0,0.0,0.0,0.0,0.0,0.0,0.0,0.0,0.0,0.0,0.0,0.0,0.0,0.0,0.0,0.0,0.0,0.0,0.0,0.0,0.0,0.0,0.0,0.0,0.0,0.0,0.0,0.0,0.0,0.0,0.0,0.0,0.0,0.0,0.0,0.0,0.0,0.0,0.0,0.0,0.0,0.0,0.0,0.0,0.0,0.0,0.0,0.0,0.0,0.0,0.0,0.0,0.0,0.0,0.0,0.0,0.0,0.0,0.0,0.0,0.0,0.0,0.0,0.0,0.0,0.0,0.0,0.0,0.0,0.0,0.0,0.0,0.0,0.0,0.0,0.0,0.0,0.0,0.0,0.0,0.0,0.0,0.0,0.0,0.0,0.0,0.0,0.0,0.0,-0.8236,-0.8236,-0.8231,-0.8133,-0.8147,-0.8141,-0.8026,-0.796,-0.7899,0.0,0.0,0.0,0.0,0.0,0.0,0.0,0.0,0.0,0.0,0.0,0.0,0.0,0.0,0.0,0.0,0.0,0.0,0.0,0.0,0.0,0.0,0.0,0.0,0.0,0.0,0.0,0.0,0.0,0.0,0.0,0.0,0.0,0.0,0.0,0.0,0.0,0.0,-0.8427,-0.8488,0.0,0.0,0.0,0.0,0.0,0.0,0.0,0.0,-0.9579,0.0,0.0,0.0,0.0,0.0,0.0,0.0,0.0,0.0,0.0,0.0,0.0,0.0,0.0,0.0,0.0,0.0,0.0,0.0,0.0,0.0,0.0,0.0,0.0,0.0,0.0,0.0,0.0,0.0,0.0,0.0,0.0,0.0,0.0,0.0,0.0,0.0,0.0,0.0,0.0,0.0,0.0,0.0,0.0,0.0,0.0,0.0,0.0,0.0,0.0,0.0,0.0,0.0,0.0,0.0,0.0,-0.8236,-0.8236,-0.8236,-0.8236,-0.822,-0.8204,-0.8204,-0.8089,-0.8086,-0.8081,0.0,0.0,0.0,0.0,0.0,0.0,0.0,0.0,0.0,0.0,0.0,0.0,0.0,0.0,0.0,0.0,0.0,0.0,0.0,0.0,0.0,0.0,0.0,0.0,0.0,0.0,0.0,0.0,0.0,0.0,0.0,0.0,0.0,0.0,0.0,0.0,0.0,0.0,0.0,-0.8793,-0.8915,0.0,0.0,0.0,0.0,0.0,0.0,0.0,0.0,-0.97,0.0,0.0,0.0,0.0,0.0,0.0,0.0,0.0,0.0,0.0,0.0,0.0,0.0,0.0,0.0,0.0,0.0,0.0,0.0,0.0,0.0,0.0,0.0,0.0,0.0,0.0,0.0,0.0,0.0,0.0,0.0,0.0,0.0,0.0,0.0,0.0,0.0,0.0,0.0,0.0,0.0,0.0,0.0,0.0,0.0,0.0,0.0,0.0,0.0,0.0,0.0,0.0,0.0,0.0,0.0,-0.8416,-0.8416,-0.8416,-0.8416,-0.8361,-0.8329,-0.8329,-0.8214,-0.8149,0.0,0.0,0.0,0.0,0.0,0.0,0.0,0.0,0.0,0.0,0.0,0.0,0.0,0.0,0.0,0.0,0.0,0.0,0.0,0.0,0.0,0.0,0.0,0.0,0.0,0.0,0.0,0.0,0.0,0.0,0.0,0.0,0.0,0.0,0.0,0.0,0.0,0.0,0.0,0.0,-0.9037,-0.9159,-0.9275,0.0,0.0,0.0,0.0,0.0,0.0,-0.9822,-0.9822,0.0,0.0,0.0,0.0,0.0,0.0,0.0,0.0,0.0,0.0,0.0,0.0,0.0,0.0,0.0,0.0,0.0,0.0,0.0,0.0,0.0,0.0,0.0,0.0,0.0,0.0,0.0,0.0,0.0,0.0,0.0,0.0,0.0,0.0,0.0,0.0,0.0,0.0,0.0,0.0,0.0,0.0,0.0,0.0,0.0,0.0,0.0,0.0,0.0,0.0,0.0,0.0,0.0,0.0,0.0,-0.859,-0.859,-0.859,-0.8584,-0.8503,-0.8454,-0.8454,-0.8334,-0.8274,0.0,0.0,0.0,0.0,0.0,0.0,0.0,0.0,0.0,0.0,0.0,0.0,0.0,0.0,0.0,0.0,0.0,0.0,0.0,0.0,0.0,0.0,0.0,0.0,0.0,0.0,0.0,0.0,0.0,0.0,0.0,0.0,0.0,0.0,0.0,0.0,0.0,0.0,0.0,0.0,0.0,-0.9335,-0.9396,-0.9396,0.0,0.0,0.0,0.0,-0.9822,-0.9822,0.0,0.0,0.0,0.0,0.0,0.0,0.0,0.0,0.0,0.0,0.0,0.0,0.0,0.0,0.0,0.0,0.0,0.0,0.0,0.0,0.0,0.0,0.0,0.0,0.0,0.0,0.0,0.0,0.0,0.0,0.0,0.0,0.0,0.0,0.0,0.0,0.0,0.0,0.0,0.0,0.0,0.0,0.0,0.0,0.0,0.0,0.0,0.0,0.0,0.0,0.0,0.0,0.0,0.0,0.0,0.0,-0.859,-0.859,-0.859,-0.859,-0.8579,-0.8568,-0.8568,-0.8454,-0.8394,0.0,0.0,0.0,0.0,0.0,0.0,0.0,0.0,0.0,0.0,0.0,0.0,0.0,0.0,0.0,0.0,0.0,0.0,0.0,0.0,0.0,0.0,0.0,0.0,0.0,0.0,0.0,0.0,0.0,0.0,0.0,0.0,0.0,0.0,0.0,0.0,0.0,0.0,0.0,0.0,0.0,-0.9396,-0.97,-0.9761,-0.9754,0.0,0.0,-0.9822,-0.9822,-0.9822,0.0,0.0,0.0,0.0,0.0,0.0,0.0,0.0,0.0,0.0,0.0,0.0,0.0,0.0,0.0,0.0,0.0,0.0,0.0,0.0,0.0,0.0,0.0,0.0,0.0,0.0,0.0,0.0,0.0,0.0,0.0,0.0,0.0,0.0,0.0,0.0,0.0,0.0,0.0,0.0,0.0,0.0,0.0,0.0,0.0,0.0,0.0,0.0,0.0,0.0,0.0,0.0,0.0,0.0,0.0,-0.859,-0.859,-0.859,-0.859,-0.859,-0.859,-0.859,-0.859,-0.8541,-0.8513,0.0,0.0,0.0,0.0,0.0,0.0,0.0,0.0,0.0,0.0,0.0,0.0,0.0,0.0,0.0,0.0,0.0,0.0,0.0,0.0,0.0,0.0,0.0,0.0,0.0,0.0,0.0,0.0,0.0,0.0,0.0,0.0,0.0,0.0,0.0,0.0,0.0,0.0,0.0,0.0,0.0,0.0,-0.9761,-0.9822,0.0,0.0,0.0,-0.9822,-0.9822,0.0,0.0,0.0,0.0,0.0,0.0,0.0,0.0,0.0,0.0,0.0,0.0,0.0,0.0,0.0,0.0,0.0,0.0,0.0,0.0,0.0,0.0,0.0,0.0,0.0,0.0,0.0,0.0,0.0,0.0,0.0,0.0,0.0,0.0,0.0,0.0,0.0,0.0,0.0,0.0,0.0,0.0,0.0,0.0,0.0,0.0,0.0,0.0,0.0,0.0,0.0,0.0,0.0,0.0,0.0,0.0,0.0,-0.859,-0.859,-0.859,-0.859,-0.859,-0.859,-0.859,-0.859,0.0,0.0,0.0,0.0,0.0,0.0,0.0,0.0,0.0,0.0,0.0,0.0,0.0,0.0,0.0,0.0,0.0,0.0,0.0,0.0,0.0,0.0,0.0,0.0,0.0,0.0,0.0,-0.7933,0.0,0.0,0.0,0.0,0.0,0.0,0.0,0.0,0.0,0.0,0.0,0.0,0.0,0.0,-0.9822,-0.9822,-0.9822,-0.9822,0.0,0.0,-0.9822,-0.9822,-0.9822,-0.9822,0.0,0.0,0.0,0.0,0.0,0.0,0.0,0.0,0.0,0.0,0.0,0.0,0.0,0.0,0.0,0.0,0.0,0.0,0.0,0.0,0.0,0.0,0.0,0.0,0.0,0.0,0.0,0.0,0.0,0.0,0.0,0.0,0.0,0.0,0.0,0.0,0.0,0.0,0.0,0.0,0.0,0.0,0.0,0.0,0.0,0.0,0.0,0.0,0.0,0.0,0.0,0.0,0.0,0.0,0.0,-0.859,-0.859,-0.859,-0.859,-0.859,-0.859,-0.859,-0.859,-0.859,0.0,0.0,0.0,0.0,0.0,0.0,0.0,0.0,0.0,0.0,0.0,0.0,0.0,0.0,0.0,0.0,0.0,0.0,0.0,0.0,0.0,0.0,0.0,0.0,0.0,0.0,0.0,0.0,0.0,0.0,0.0,0.0,0.0,0.0,0.0,0.0,0.0,0.0,0.0,0.0,0.0,-0.9822,-0.9822,-0.9822,-0.9822,0.0,0.0,-0.9822,-0.9822,-0.9822,-0.9822,-0.9822,0.0,0.0,0.0,0.0,0.0,0.0,0.0,0.0,0.0,0.0,0.0,0.0,0.0,0.0,0.0,0.0,0.0,0.0,0.0,0.0,0.0,0.0,0.0,0.0,0.0,0.0,0.0,0.0,0.0,0.0,0.0,0.0,0.0,0.0,0.0,0.0,0.0,0.0,0.0,0.0,0.0,0.0,0.0,0.0,0.0,0.0,0.0,0.0,0.0,0.0,0.0,0.0,0.0,-0.859,-0.859,-0.859,-0.859,-0.859,-0.859,-0.859,-0.859,-0.859,-0.859,0.0,0.0,0.0,0.0,0.0,0.0,0.0,0.0,0.0,0.0,0.0,0.0,0.0,0.0,0.0,0.0,0.0,0.0,0.0,0.0,0.0,0.0,0.0,0.0,0.0,0.0,0.0,0.0,-0.8366,-0.8915,-0.9396,0.0,0.0,0.0,0.0,0.0,0.0,0.0,0.0,0.0,0.0,-0.9822,-0.9822,-0.9822,0.0,0.0,-0.9822,-0.9822,-0.9822,-0.9822,-0.9822,-0.9822,-0.9822,0.0,0.0,0.0,0.0,0.0,0.0,0.0,0.0,0.0,0.0,0.0,0.0,0.0,0.0,0.0,0.0,0.0,0.0,0.0,0.0,0.0,0.0,0.0,0.0,0.0,0.0,0.0,0.0,0.0,0.0,0.0,0.0,0.0,0.0,0.0,0.0,0.0,0.0,0.0,0.0,0.0,0.0,0.0,0.0,0.0,0.0,0.0,0.0,0.0,0.0,0.0,0.0,-0.859,-0.859,-0.859,-0.859,-0.859,-0.859,-0.859,-0.859,-0.859,-0.859,0.0,0.0,0.0,0.0,0.0,0.0,0.0,0.0,0.0,0.0,0.0,0.0,0.0,0.0,0.0,0.0,0.0,0.0,0.0,0.0,0.0,0.0,0.0,0.0,0.0,0.0,0.0,0.0,-0.8482,-0.9159,-0.97,0.0,0.0,0.0,0.0,0.0,0.0,0.0,0.0,0.0,0.0,-0.9822,-0.9822,-0.9822,-0.9822,-0.9822,-0.9822,-0.9822,-0.9822,-0.9822,-0.9822,-0.9822,0.0,0.0,0.0,0.0,0.0,0.0,0.0,0.0,0.0,0.0,0.0,0.0,0.0,0.0,0.0,0.0,0.0,0.0,0.0,0.0,0.0,0.0,0.0,0.0,0.0,0.0,0.0,0.0,0.0,0.0,0.0,0.0,0.0,0.0,0.0,0.0,0.0,0.0,0.0,0.0,0.0,0.0,0.0,0.0,0.0,0.0,0.0,0.0,0.0,0.0,0.0,0.0,0.0,-0.859,-0.859,-0.859,-0.859,-0.859,-0.859,-0.859,-0.859,-0.859,-0.859,-0.859,0.0,0.0,0.0,0.0,0.0,0.0,0.0,0.0,0.0,0.0,0.0,0.0,0.0,0.0,0.0,0.0,0.0,0.0,0.0,0.0,0.0,0.0,0.0,0.0,0.0,0.0,-0.7933,-0.8488,-0.9098,0.0,0.0,0.0,0.0,0.0,0.0,0.0,0.0,0.0,0.0,-0.9822,-0.9822,-0.9822,-0.9822,-0.9822,-0.9822,-0.9822,-0.9822,-0.9822,-0.9822,-0.9822,0.0,0.0,0.0,0.0,0.0,0.0,0.0,0.0,0.0,0.0,0.0,0.0,0.0,0.0,0.0,0.0,0.0,0.0,0.0,0.0,0.0,0.0,0.0,0.0,0.0,0.0,0.0,-0.859,-0.859,0.0,0.0,0.0,0.0,0.0,0.0,0.0,0.0,0.0,0.0,0.0,-0.859,-0.859,0.0,0.0,0.0,0.0,0.0,0.0,0.0,0.0,0.0,0.0,0.0,0.0,-0.859,-0.859,-0.859,-0.859,-0.859,-0.859,-0.859,-0.859,-0.859,-0.859,-0.859,0.0,0.0,0.0,0.0,0.0,0.0,0.0,0.0,0.0,0.0,0.0,0.0,0.0,0.0,0.0,0.0,0.0,0.0,0.0,0.0,0.0,0.0,0.0,0.0,0.0,-0.7994,0.0,0.0,0.0,0.0,0.0,0.0,0.0,0.0,0.0,0.0,0.0,-0.9822,-0.9822,-0.9822,-0.9822,-0.9822,-0.9822,-0.9822,0.0,0.0,0.0,0.0,0.0,0.0,0.0,0.0,0.0,0.0,0.0,0.0,0.0,0.0,-0.9822,-0.9822,-0.9822,-0.9822,-0.9822,0.0,0.0,0.0,0.0,0.0,0.0,0.0,0.0,0.0,0.0,0.0,0.0,0.0,0.0,0.0,0.0,-0.859,0.0,0.0,0.0,0.0,0.0,0.0,0.0,0.0,-0.859,-0.859,-0.859,-0.859,-0.859,0.0,-0.859,-0.859,0.0,0.0,0.0,0.0,0.0,0.0,0.0,0.0,-0.859,-0.859,-0.859,-0.859,-0.859,-0.859,-0.859,-0.859,-0.859,-0.859,-0.859,-0.859,-0.859,0.0,0.0,0.0,0.0,0.0,0.0,0.0,0.0,0.0,0.0,0.0,0.0,0.0,0.0,0.0,0.0,0.0,0.0,0.0,0.0,0.0,0.0,0.0,-0.8121,0.0,0.0,0.0,0.0,0.0,0.0,0.0,0.0,0.0,-1.0005,-0.9978,-0.9985,-0.9985,-0.9978,-0.9985,-0.9978,0.0,0.0,0.0,0.0,0.0,0.0,0.0,-0.9978,-0.9978,-0.993,-0.9883,-0.9829,-0.9822,-0.9822,-0.9822,0.0,0.0,-0.9822,-0.9822,-0.9822,-0.9822,-0.9747,-0.9713,-0.9802,-0.9747,-0.9707,0.0,0.0,0.0,0.0,0.0,0.0,0.0,0.0,-0.859,-0.859,0.0,-0.859,0.0,0.0,0.0,0.0,0.0,0.0,0.0,0.0,-0.859,-0.859,-0.859,-0.859,-0.859,-0.859,-0.859,-0.859,-0.859,-0.859,0.0,0.0,0.0,0.0,0.0,0.0,-0.859,-0.859,-0.859,-0.859,-0.859,-0.859,-0.859,-0.859,-0.859,-0.859,-0.859,-0.859,-0.859,-0.859,-0.859,0.0,0.0,0.0,0.0,0.0,0.0,0.0,0.0,0.0,0.0,0.0,0.0,0.0,0.0,0.0,0.0,0.0,0.0,0.0,0.0,-0.8236,0.0,0.0,0.0,0.0,0.0,0.0,0.0,0.0,0.0,0.0,-1.029,-1.0283,-1.034,-1.0276,0.0,0.0,0.0,0.0,-1.0276,-1.027,-1.0276,-1.0276,-1.0276,-1.0276,-1.0276,-1.034,0.0,0.0,-0.9863,-0.9836,-0.9842,-0.9836,-0.9849,-0.9836,-0.9836,-0.9768,-0.9822,-0.9822,-0.9815,-0.9815,-0.9822,-0.9815,-0.9815,-0.8666,0.0,0.0,0.0,0.0,-0.859,-0.859,-0.859,-0.859,-0.859,-0.859,-0.859,0.0,0.0,0.0,0.0,0.0,0.0,-0.859,-0.859,-0.859,-0.859,-0.859,-0.859,-0.859,-0.859,-0.859,-0.859,-0.859,-0.859,-0.859,-0.859,0.0,0.0,0.0,0.0,-0.859,-0.859,-0.859,-0.859,-0.859,-0.859,-0.859,-0.859,-0.859,-0.859,-0.859,-0.859,-0.859,-0.859,-0.859,0.0,0.0,0.0,0.0,0.0,0.0,0.0,0.0,0.0,0.0,0.0,0.0,0.0,0.0,0.0,0.0,0.0,0.0,0.0,-0.8236,-0.8422,-0.8486,0.0,0.0,0.0,0.0,0.0,0.0,0.0,0.0,0.0,-1.0588,-1.0405,-1.034,0.0,0.0,-1.034,-1.034,-1.034,-1.034,-1.034,0.0,0.0,0.0,-1.034,-1.034,-1.034,-1.0243,-1.0202,-1.0154,-1.0148,-1.0148,-1.0148,-1.0148,-1.012,-0.9998,-0.989,-0.9829,-0.9822,-0.9822,-0.9822,-0.9822,-0.9822,-0.9822,-0.8802,-0.8725,-0.8628,-0.859,-0.859,-0.859,-0.859,-0.859,-0.859,-0.859,-0.859,-0.859,-0.859,-0.859,-0.859,0.0,0.0,0.0,-0.859,-0.859,-0.859,-0.859,-0.859,-0.859,-0.859,-0.859,-0.859,-0.859,-0.859,-0.859,-0.859,-0.859,0.0,0.0,-0.859,-0.859,-0.859,-0.859,-0.859,-0.859,-0.859,-0.859,-0.859,-0.859,-0.859,-0.859,-0.859,-0.859,-0.859,-0.859,-0.859,-0.859,0.0,0.0,0.0,0.0,0.0,0.0,0.0,0.0,0.0,0.0,0.0,-0.8329,0.0,0.0,0.0,0.0,-0.8372,-0.8378,-0.8378,-0.8567,0.0,0.0,0.0,0.0,0.0,0.0,0.0,-0.9992,-1.0333,-1.0585,-1.0651,-1.0568,-1.0453,-1.0453,-1.0453,-1.0453,-1.0453,0.0,-1.0453,-1.0453,-1.046,-1.046,-1.0453,-1.0453,-1.0439,-1.0371,-1.0365,-1.0337,-1.029,-1.034,-1.034,-1.034,-1.034,-1.0249,-1.0154,-1.0066,-0.9958,-0.9849,-0.9822,-0.9822,-0.9822,-0.9822,-0.9822,-0.8895,-0.8879,-0.8715,-0.8617,-0.8617,-0.8617,-0.8611,-0.86,-0.8606,-0.8595,-0.859,-0.859,-0.859,-0.859,-0.859,0.0,0.0,-0.859,-0.859,-0.859,-0.8595,-0.86,-0.86,-0.8617,-0.8617,-0.8617,-0.8617,-0.8617,-0.8617,-0.8617,-0.8617,-0.8617,-0.8617,-0.8606,-0.859,-0.859,-0.859,-0.859,-0.859,-0.859,-0.859,-0.859,-0.859,-0.859,-0.859,-0.859,-0.859,-0.859,-0.859,-0.859,-0.859,-0.859,-0.859,0.0,0.0,0.0,0.0,0.0,0.0,0.0,0.0,0.0,0.0,0.0,0.0,0.0,0.0,0.0,-0.859,0.0,-0.859,-0.859,0.0,0.0,0.0,-0.8717,-0.905,-0.9117,-0.9383,-1.006,0.0,0.0,0.0,0.0,-1.0717,-1.0717,-1.0717,-1.0717,-1.0717,-1.0711,-1.0717,-1.0704,-1.0711,-1.0717,-1.069,-1.0697,-1.0649,-1.0534,-1.0507,-1.0466,-1.0365,-1.0331,-1.0324,-1.0331,-1.0317,-1.031,-1.0297,-1.029,-1.0209,-0.9924,-0.9869,-0.9869,-0.9876,-0.9883,-0.989,-0.9019,-0.9079,-0.8927,-0.8798,-0.8867,-0.8798,-0.8812,-0.8731,-0.8725,-0.8677,-0.859,-0.859,-0.859,-0.859,-0.859,-0.859,-0.859,-0.859,-0.859,-0.8595,-0.8687,-0.8731,-0.8731,-0.8823,-0.8867,-0.8798,-0.8867,-0.8798,-0.8867,-0.8798,-0.8867,-0.8798,-0.8867,-0.8769,-0.8595,-0.859,-0.859,-0.859,-0.859,-0.859,-0.859,-0.859,-0.859,-0.859,-0.859,-0.859,-0.859,-0.859,-0.859,-0.859,-0.859,-0.859,-0.859,-0.859,0.0,0.0,0.0,0.0,0.0,0.0,0.0,0.0,0.0,-0.8562,-0.8584,0.0,-0.859,0.0,-0.859,-0.859,-0.859,-0.859,0.0,0.0,-0.859,-0.8656,-0.8717,-0.8917,-0.9322,-0.9728,-1.006,-1.0326,-1.0651,-1.0717,-1.0717,-1.0717,-1.0717,-1.0717,-1.0717,-1.0717,-1.0717,-1.0717,-1.0717,-1.0717,-1.0717,-1.0717,-1.0711,-1.067,-1.0663,-1.0656,-1.0622,-1.0616,-1.0616,-1.0616,-1.0616,-1.0575,-1.0466,-1.0439,-1.0378,-1.0215,-1.0168,-1.0175,-1.0168,-1.0168,-1.0168,-0.9209,-0.9204,-0.9133,-0.9106,-0.903,-0.8927,-0.891,-0.8851,-0.8851,-0.8812,-0.8747,-0.8753,-0.8747,-0.8747,-0.8747,-0.8753,-0.8753,-0.8747,-0.8753,-0.8753,-0.8818,-0.8851,-0.8856,-0.8852,-0.8879,-0.8879,-0.8879,-0.8879,-0.8879,-0.8879,-0.8879,-0.8879,-0.8879,-0.8814,-0.8758,-0.8747,-0.8753,-0.8747,-0.8693,-0.8644,-0.859,-0.859,-0.859,-0.859,-0.859,-0.859,-0.859,-0.859,-0.859,-0.859,-0.859,-0.859,-0.859,-0.859,-0.859,0.0,0.0,0.0,0.0,0.0,0.0,0.0,0.0,0.0,0.0,0.0,-0.859,0.0,-0.859,0.0,-0.859,-0.859,-0.859,-0.859,-0.859,-0.859,-0.859,-0.8784,-0.9056,-0.9661,-0.9861,-1.0193,-1.0658,-1.0717,-1.0717,-1.0717,-1.0717,-1.0717,-1.0717,-1.0717,-1.0717,-1.0717,-1.0717,-1.0717,-1.0717,-1.0717,-1.0717,-1.0717,-1.0717,-1.0717,-1.0717,-1.0717,-1.0717,-1.0717,-1.0717,-1.0697,-1.0609,-1.0595,-1.0561,-1.0507,-1.048,-1.0426,-1.0304,-1.034,-1.034,-0.9302,-0.9302,-0.9302,-0.9302,-0.9285,-0.9084,-0.8917,-0.8906,-0.8906,-0.8895,-0.8879,-0.8879,-0.8879,-0.8879,-0.8879,-0.8879,-0.8879,-0.8879,-0.8879,-0.8879,-0.8895,-0.8906,-0.8906,-0.8922,-0.8927,-0.8927,-0.8927,-0.8927,-0.8927,-0.8927,-0.8927,-0.8927,-0.8927,-0.8927,-0.8927,-0.8997,-0.8911,-0.8884,-0.8845,-0.8742,-0.8638,-0.8617,-0.8611,-0.8611,-0.8595,-0.859,-0.859,-0.859,-0.859,-0.859,-0.859,-0.859,-0.859,-0.859,-0.859,0.0,-0.859,0.0,0.0,0.0,0.0,0.0,0.0,0.0,0.0,-0.859,-0.859,-0.859,-0.859,-0.859,-0.859,-0.859,-0.859,-0.859,-0.859,-0.859,-0.859,-0.859,-0.8856,-0.9594,-0.9728,-0.9927,-1.0591,-1.0717,-1.0717,-1.0717,-1.0717,-1.0717,-1.0717,-1.0717,-1.0717,-1.0717,-1.0717,-1.0717,-1.0717,-1.0717,-1.0717,-1.0717,-1.0717,-1.0717,-1.0717,-1.0717,-1.0717,-1.0717,-1.0717,-1.0717,-1.0717,-1.0717,-1.0717,-1.0697,-1.0697,-1.0622,-1.0426,-1.0365,-1.0337,-0.9302,-0.9302,-0.9302,-0.9302,-0.9302,-0.9253,-0.9182,-0.903,-0.9101,-0.8976,-0.8884,-0.8879,-0.8879,-0.8879,-0.8879,-0.8879,-0.8879,-0.8879,-0.8879,-0.8884,-0.9052,-0.903,-0.9106,-0.9193,-0.9237,-0.9237,-0.9237,-0.9237,-0.9237,-0.9237,-0.9237,-0.9237,-0.9237,-0.9237,-0.9237,0.0,0.0,0.0,-0.8863,-0.8905,-0.8878,-0.8785,-0.8736,-0.8736,-0.8638,0.0,-0.859,-0.859,-0.859,-0.859,-0.859,0.0,0.0,0.0,0.0,0.0,0.0,0.0,0.0,0.0,0.0,0.0,-0.859,-0.859,-0.859,-0.859,-0.859,-0.859,-0.859,-0.859,-0.859,-0.859,-0.859,-0.859,-0.859,-0.859,-0.859,-0.859,-0.8856,-0.9594,-0.9728,-0.9927,-1.0585,-1.0717,-1.0717,-1.0717,-1.0717,-1.0717,-1.0651,-1.0717,-1.0717,-1.0717,-1.0717,-1.0717,-1.0717,-1.0717,-1.0717,-1.0717,-1.0717,-1.0717,-1.0717,-1.0717,-1.0717,-1.0717,-1.0717,-1.0717,-1.0717,-1.0717,-1.0717,-1.0717,-1.0717,-1.0704,-1.0649,-1.0636,-1.0636,-0.9481,0.0,-0.9487,-0.9487,0.0,-0.9487,-0.9454,-0.9389,-0.9269,-0.9182,-0.9128,-0.9122,-0.9057,-0.9128,-0.9128,-0.9128,-0.9128,-0.9057,-0.9128,-0.9128,-0.9188,-0.922,-0.922,-0.928,-0.9302,-0.9302,-0.9302,-0.9302,-0.9302,-0.9302,-0.9302,-0.9302,-0.9302,-0.9302,-0.9302,-0.9302,-0.922,-0.8971,-0.8971,-0.8944,-0.8884,-0.8894,-0.8861,-0.8856,0.0,0.0,0.0,0.0,0.0,0.0,0.0,0.0,0.0,0.0,0.0,-0.859,-0.859,-0.859,-0.859,-0.859,-0.859,-0.859,-0.859,-0.859,-0.859,-0.859,-0.859,-0.859,-0.859,-0.859,-0.859,-0.859,-0.859,-0.859,-0.859,-0.859,-0.859,-0.859,-0.879,-0.9322,-0.9389,-0.9655,-1.0392,-1.0259,-1.0259,-1.0392,-1.0326,-1.0193,-1.0259,-1.0525,-1.0717,-1.0717,-1.0717,-1.0717,-1.0717,-1.0717,-1.0724,-1.0717,-1.0717,-1.0717,-1.0717,-1.0717,-1.0717,-1.0717,-1.0717,-1.0717,-1.0717,-1.0717,-1.0717,-1.0717,-1.0717,-1.0717,-1.0717,-1.0717,-1.0717,-0.9666,-0.9666,-0.9666,-0.9666,-0.9666,-0.9666,-0.9666,-0.9655,0.0,0.0,0.0,-0.9367,-0.9367,-0.9367,-0.9367,-0.9367,-0.9367,-0.9367,-0.9367,-0.9372,-0.9367,-0.9367,-0.9367,-0.9372,-0.9367,-0.9367,-0.9367,-0.9367,-0.9367,-0.9367,-0.9367,-0.9367,-0.9367,-0.9356,-0.934,-0.9334,-0.928,-0.9171,-0.9166,-0.9117,-0.8949,-0.8922,-0.8911,-0.8917,-0.8867,-0.8802,-0.8802,-0.8704,-0.8644,-0.8622,-0.8622,-0.8611,-0.859,-0.859,-0.859,-0.859,-0.859,-0.859,-0.859,-0.859,-0.859,-0.859,-0.859,-0.859,-0.859,-0.859,-0.859,-0.859,-0.859,-0.859,-0.859,-0.859,-0.859,-0.859,-0.859,-0.859,-0.859,-0.859,-0.8717,-0.905,-0.9117,-0.9328,-1.0031,-0.9898,-0.9844,-1.0063,-0.9954,-0.9801,-0.9856,-1.0292,-1.0585,-1.0717,-1.0717,-1.0731,-1.0758,-1.0765,-1.0772,-1.0819,-1.0812,-1.0799,-1.0799,-1.0799,-1.0799,-1.0826,-1.0785,-1.0772,-1.0765,-1.0744,-1.0724,-1.0717,-1.0717,-1.0717,-1.0717,-1.0717,-1.0717,-0.9671,-0.9666,-0.9666,-0.9666,-0.9666,-0.9666,-0.9666,-0.9666,-0.9633,-0.9617,-0.9617,-0.9617,-0.9617,-0.9617,-0.9617,-0.9617,-0.9617,-0.9617,-0.9617,0.0,-0.9617,-0.9617,-0.9617,-0.9617,-0.9617,-0.9617,-0.9617,-0.9617,-0.9617,-0.9617,-0.9617,-0.9617,-0.9617,-0.9563,-0.947,-0.9459,-0.94,-0.928,-0.928,-0.9269,-0.9253,-0.9089,-0.9111,-0.9106,-0.8992,-0.8857,-0.8857,-0.8836,-0.8851,-0.8753,-0.8742,-0.8698,-0.8595,-0.8595,-0.859,-0.859,-0.859,-0.859,-0.859,-0.859,-0.859,-0.859,-0.859,-0.859,-0.859,-0.859,-0.859,-0.859,-0.859,-0.859,-0.859,-0.859,-0.8595,-0.8595,-0.859,-0.859,-0.86,-0.86,-0.8734,-0.9067,-0.9117,-0.9236,-0.974,-0.9826,-0.9801,-0.996,-0.9892,-1.0054,-1.0284,-1.0341,-1.0405,-1.0651,-1.0717,-1.0778,-1.0813,-1.0847,-1.0955,-1.1084,-1.1084,-1.1063,-1.1063,-1.1063,-1.1063,-1.109,-1.0989,-1.086,-1.0847,-1.0739,-1.0765,-1.0751,-1.0758,-1.0751,-1.0751,-1.0744,-1.0731,-0.9862,-0.9862,-0.9862,-0.9856,-0.9862,-0.9862,-0.9856,-0.9862,-0.9856,-0.9786,-0.9671,-0.9666,-0.9666,-0.9666,-0.9666,-0.9666,-0.9666,-0.9666,-0.9666,-0.9666,-0.9666,-0.9666,-0.9666,-0.9666,-0.9666,-0.9666,-0.9666,-0.9666,-0.9666,-0.9666,-0.9666,-0.9666,-0.9666,-0.9644,-0.959,-0.9584,-0.9557,-0.9503,-0.9372,-0.9302,-0.9302,-0.9253,-0.9226,-0.9226,-0.9111,-0.8981,-0.8981,-0.8917,-0.8857,-0.8872,-0.8867,-0.8845,-0.8791,-0.8785,-0.8753,-0.8693,-0.8687,-0.866,-0.859,-0.859,-0.8617,-0.8677,-0.8687,-0.8715,-0.878,-0.866,-0.859,-0.859,-0.859,-0.859,-0.859,-0.8649,-0.8687,-0.8755,-0.8742,-0.8785,-0.8785,-0.8785,-0.8853,-0.899,-0.899,-0.9149,-0.9543,-0.9411,-0.9429,-0.9631,-0.9573,-0.9642,-1.0203,-1.0235,-1.0351,-1.0826,-1.0962,-1.0989,-1.1056,-1.1063,-1.109,-1.1158,-1.1234,-1.1234,-1.1234,-1.1234,-1.1234,-1.1234,-1.1104,-1.107,-1.1063,-1.1016,-1.0968,-1.0962,-1.0962,-1.0962,-1.0955,-1.09,-1.0819,-1.0019,-1.0019,-1.0019,-1.0019,-1.0019,-1.0019,-1.0019,-1.0019,-1.0019,-0.9916,-0.9764,-0.9748,-0.9748,-0.9748,-0.9748,-0.9748,-0.9748,-0.9748,-0.9748,-0.9748,-0.9748,-0.9748,-0.9748,-0.9748,-0.9748,-0.9748,-0.9748,-0.9748,-0.9748,-0.9748,-0.9748,-0.9748,-0.9748,-0.9737,-0.9709,-0.9704,-0.9699,-0.9661,-0.9481,-0.9372,-0.9345,-0.9318,-0.9302,-0.9296,-0.922,-0.9171,-0.9171,-0.9014,-0.8949,-0.8922,-0.8922,-0.8911,-0.8884,-0.8879,-0.8841,-0.8823,-0.8812,-0.8769,-0.8682,-0.8671,-0.8709,-0.8802,-0.8812,-0.8851,-0.8852,-0.878,-0.8671,-0.8671,-0.8682,-0.8677,-0.8693,-0.8753,-0.8812,-0.8818,-0.8825,-0.8863,-0.8879,-0.8879,-0.8879,-0.8879,-0.8879,-0.9023,-0.9265,-0.9131,-0.9148,-0.938,-0.924,-0.945,-0.994,-1.015,-1.0569,-1.0975,-1.1212,-1.1172,-1.1199,-1.1212,-1.1233,-1.1253,-1.128,-1.1294,-1.1287,-1.1274,-1.1267,-1.1287,-1.124,-1.1219,-1.1212,-1.1172,-1.1151,-1.12,-1.1124,-1.1214,-1.1131,-1.1063,-1.0948,-1.0019,-1.0019,-1.0019,-1.0019,-1.0019,-1.0019,-1.0019,-1.0019,-1.0019,-1.0014,-0.9976,-0.9987,-0.9981,-0.9987,-0.9981,-0.9976,-0.9976,-0.9987,-0.9981,-0.9976,-0.9987,-0.9987,-0.9976,-0.9981,-0.9987,-0.9981,-0.9976,-0.9965,-0.9965,-0.9976,-0.9981,-0.9987,-0.9987,-0.9927,-0.9835,-0.9824,-0.9775,-0.9671,-0.965,-0.9579,-0.947,-0.9362,-0.9302,-0.9302,-0.9296,-0.9285,-0.928,-0.9275,-0.922,-0.9057,-0.9046,-0.8998,-0.8906,-0.8884,-0.8879,-0.8868,-0.8863,-0.8857,-0.8847,-0.8847,-0.8847,-0.8863,-0.8868,-0.8874,-0.8895,-0.8868,-0.8847,-0.8847,-0.8847,-0.883,-0.8852,-0.8857,-0.8868,-0.8868,-0.889,-0.8879,-0.8895,-0.8879,-0.8879,-0.8879,-0.8911,-0.8992,-0.9166,-0.9117,-0.9155,-0.9292,-0.9512,-0.9727,-0.9947,-1.0447,-1.0817,-1.1006,-1.1074,-1.1253,-1.1335,-1.1369,-1.1409,-1.1525,-1.1565,-1.1538,-1.1525,-1.1538,-1.1572,-1.1477,-1.1443,-1.1375,-1.1341,-1.1274,-1.1192,-1.1226,-1.1219,-1.1255,-1.1234,-1.1158,-1.109,-1.0019,-1.0019,-1.0019,-1.0019,-1.0019,-1.0019,-1.0019,-1.0019,-1.0019,-1.0019,-1.0019,-1.0019,-1.0019,-1.0019,-1.0019,-1.0019,-1.0019,-1.0019,-1.0019,-1.0019,-1.0019,-1.0019,-1.0019,-1.0019,-1.0019,-1.0019,-1.0019,-1.0019,-1.0019,-1.0019,-1.0019,-1.0019,-1.0019,-0.9992,-0.9949,-0.9949,-0.9921,-0.9878,-0.9807,-0.9742,-0.9677,-0.9508,-0.941,-0.9405,-0.934,-0.9302,-0.9302,-0.9302,-0.928,-0.9237,-0.9237,-0.9215,-0.9166,-0.916,-0.9133,-0.8992,-0.8922,-0.8879,-0.8879,-0.8879,-0.8911,-0.8981,-0.8992,-0.9014,-0.9155,-0.916,-0.916,-0.9144,-0.8965,-0.8879,-0.889,-0.8944,-0.8987,-0.8998,-0.9046,-0.9155,-0.916,-0.916,-0.916,-0.916,-0.916,-0.9171,-0.922,-0.9231,-0.9253,-0.9296,-0.9446,-0.9663,-0.9879,-1.0383,-1.075,-1.0959,-1.1219,-1.147,-1.1511,-1.1525,-1.1558,-1.1592,-1.1619,-1.1619,-1.1619,-1.1619,-1.1613,-1.1619,-1.1558,-1.1518,-1.1525,-1.1491,-1.1436,-1.1416,-1.143,-1.143,-1.143,-1.1362,-1.128,-1.0019,-1.0019,-1.0019,-1.0019,-1.0019,-1.0019,-1.0019,-1.0019,-1.0019,-1.0019,-1.0019,-1.0019,-1.0019,-1.0019,-1.0019,-1.0019,-1.0019,-1.0019,-1.0019,-1.0019,-1.0019,-1.0019,-1.0019,-1.0019,-1.0019,-1.0019,-1.0019,-1.0019,-1.0019,-1.0019,-1.0019,-1.0019,-1.0019,-1.0019,-1.0019,-1.0019,-1.0019,-1.0008,-0.9932,-0.9812,-0.9856,-0.9688,-0.9568,-0.953,-0.9416,-0.9356,-0.9356,-0.9323,-0.9302,-0.9302,-0.9302,-0.9302,-0.9302,-0.9302,-0.9269,-0.9188,-0.903,-0.9046,-0.8976,-0.8976,-0.9014,-0.9166,-0.9177,-0.9215,-0.928,-0.9302,-0.9302,-0.9285,-0.9144,-0.9057,-0.9057,-0.9057,-0.9177,-0.9188,-0.9258,-0.9302,-0.9296,-0.9302,-0.9296,-0.9302,-0.928,-0.9302,-0.9302,-0.9296,-0.9302,-0.9302,-0.9302,-0.9374,-0.9735,-1.0095,-1.0455,-1.0822,-1.1181,-1.1469,-1.1548,-1.1606,-1.1619,-1.1619,-1.1619,-1.1619,-1.1619,-1.1619,-1.1619,-1.1619,-1.1619,-1.1613,-1.1586,-1.1599,-1.1606,-1.1613,-1.1606,-1.1599,-1.1579,-1.1511,-1.147,-1.0019,-1.0019,-1.0019,-1.0019,-1.0019,-1.0019,-1.0019,-1.0019,-1.0019,-1.0019,-1.0019,-1.0019,-1.0019,-1.0019,-1.0019,-1.0019,-1.0019,-1.0019,-1.0019,-1.0019,-1.0019,-1.0019,-1.0019,-1.0019,-1.0019,-1.0019,-1.0019,-1.0019,-1.0019,-1.0019,-1.0019,-1.0019,-1.0019,-1.0019,-1.0019,-1.0019,-1.0019,-1.0014,-1.0008,-1.0008,-0.9992,-0.9883,-0.9764,-0.9671,-0.9546,-0.9481,-0.947,-0.9367,-0.9307,-0.9307,-0.9307,-0.9302,-0.9302,-0.9302,-0.9296,-0.9285,-0.9285,-0.928,-0.9275,-0.9269,-0.9275,-0.9291,-0.928,-0.9296,-0.9302,-0.9302,-0.9302,-0.9302,-0.928,-0.9264,-0.9264,-0.9264,-0.928,-0.928,-0.9296,-0.9302,-0.9302,-0.9302,-0.9302,-0.9302,-0.9302,-0.9302,-0.9302,-0.9302,-0.9302,-0.9302,-0.9302,-0.9302,-0.9452,-0.9735,-1.0095,-1.0462,-1.0822,-1.1188,-1.1476,-1.1619,-1.1619,-1.1619,-1.1619,-1.1619,-1.1619,-1.1619,-1.1619,-1.1619,-1.1619,-1.1619,-1.1619,-1.1619,-1.1613,-1.1619,-1.1619,-1.1619,-1.1619,-1.1619,-1.1586,-1.0019,-1.0019,-1.0019,-1.0019,-1.0019,-1.0019,-1.0019,-1.0019,-1.0019,-1.0019,-1.0019,-1.0019,-1.0019,-1.0019,-1.0019,-1.0019,-1.0019,-1.0019,-1.0019,-1.0019,-1.0019,-1.0019,-1.0019,-1.0019,-1.0019,-1.0019,-1.0019,-1.0019,-1.0019,-1.0019,-1.0019,-1.0019,-1.0019,-1.0019,-1.0019,-1.0019,-1.0019,-1.0019,-1.0019,-1.0019,-1.0019,-0.9976,-0.9932,-0.9889,-0.9704,-0.9606,-0.9606,-0.9487,-0.9421,-0.9421,-0.9351,-0.9302,-0.9302,-0.9302,-0.9302,-0.9302,-0.9302,-0.9302,-0.9302,-0.9302,-0.9302,-0.9302,-0.9302,-0.9302,-0.9302,-0.9302,-0.9302,-0.9302,-0.9302,-0.9302,-0.9302,-0.9302,-0.9302,-0.9302,-0.9302,-0.9302,-0.9302,-0.9302,-0.9302,-0.9302,-0.9302,-0.9302,-0.9302,-0.9302,-0.9302,-0.9302,-0.9302,-0.9302,-0.9374,-0.9663,-0.9951,-1.0167,-1.0606,-1.1044,-1.1188,-1.1476,-1.1619,-1.1619,-1.1619,-1.1619,-1.1619,-1.1619,-1.1619,-1.1619,-1.1619,-1.1619,-1.1619,-1.1619,-1.1619,-1.1619,-1.1619,-1.1619,-1.1619,-1.1619,-1.1619,-1.0019,-1.0019,-1.0019,-1.0019,-1.0019,-1.0019,-1.0019,-1.0019,-1.0019,-1.0019,-1.0019,-1.0019,-1.0019,-1.0019,-1.0019,-1.0019,-1.0019,-1.0019,-1.0019,-1.0019,-1.0019,-1.0019,-1.0019,-1.0019,-1.0019,-1.0019,-1.0019,-1.0019,-1.0019,-1.0019,-1.0019,-1.0019,-1.0019,-1.0019,-1.0019,-1.0019,-1.0019,-1.0019,-1.0019,-1.0019,-1.0019,-1.0019,-1.0019,-0.9998,-0.9862,-0.9764,-0.9726,-0.9612,-0.9546,-0.9536,-0.9465,-0.9405,-0.9367,-0.9323,-0.9302,-0.9302,-0.9302,-0.9302,-0.9302,-0.9302,-0.9302,-0.9302,-0.9302,-0.9302,-0.9302,-0.9302,-0.9302,-0.9302,-0.9302,-0.9302,-0.9302,-0.9302,-0.9302,-0.9302,-0.9302,-0.9302,-0.9302,-0.9302,-0.9302,-0.9302,-0.9302,-0.9302,-0.9302,-0.9302,-0.9302,-0.9302,-0.9302,-0.9302,-0.9374,-0.9518,-0.9735,-0.9879,-1.0245,-1.0678,-1.0972,-1.126,-1.1476,-1.1548,-1.1619,-1.1619,-1.1619,-1.1619,-1.1619,-1.1619,-1.1619,-1.1619,-1.1619,-1.1619,-1.1619,-1.1619,-1.1619,-1.1619,-1.1619,-1.1619,-1.1619,-1.003,-1.0041,-1.0025,-1.0047,-1.0052,-1.0057,-1.0036,-1.0052,-1.0047,-1.0063,-1.0068,-1.0041,-1.0063,-1.0041,-1.0068,-1.0041,-1.0057,-1.0063,-1.0041,-1.0019,-1.0019,-1.0019,-1.0019,-1.0019,-1.0019,-1.0019,-1.0019,-1.0019,-1.0019,-1.0019,-1.0019,-1.0019,-1.0019,-1.0019,-1.0019,-1.0019,-1.0019,-1.0019,-1.0019,-1.0019,-1.0019,-1.0019,-1.0019,-1.0019,-0.9998,-0.9943,-0.984,-0.9731,-0.9666,-0.9671,-0.9655,-0.9606,-0.9492,-0.9394,-0.9323,-0.9334,-0.9323,-0.9318,-0.9323,-0.9334,-0.9345,-0.9345,-0.9323,-0.9345,-0.9356,-0.9345,-0.9345,-0.9351,-0.934,-0.9329,-0.9334,-0.934,-0.9329,-0.9302,-0.9302,-0.9302,-0.9302,-0.9302,-0.9302,-0.9302,-0.9302,-0.9302,-0.9302,-0.9302,-0.9302,-0.9302,-0.9302,-0.9302,-0.9302,-0.9374,-0.9518,-0.9735,-1.0023,-1.0311,-1.0678,-1.1044,-1.1266,-1.1482,-1.1548,-1.1619,-1.1619,-1.1619,-1.1619,-1.1619,-1.1619,-1.1619,-1.1619,-1.1619,-1.1619,-1.1619,-1.1619,-1.1626,-1.1619,-1.1619,-1.1619,-1.0269,-1.0269,-1.0275,-1.0275,-1.0269,-1.0275,-1.0275,-1.0269,-1.0269,-1.0275,-1.0269,-1.0269,-1.0269,-1.0269,-1.0275,-1.0269,-1.0269,-1.0264,-1.0188,-1.0047,-1.0025,-1.0025,-1.0025,-1.0025,-1.0019,-1.0019,-1.0019,-1.0019,-1.0019,-1.0019,-1.0019,-1.0019,-1.0019,-1.0019,-1.0019,-1.0019,-1.0019,-1.0019,-1.0019,-1.0019,-1.0019,-1.0019,-1.0019,-1.0019,-1.0019,-0.9998,-0.996,-0.9851,-0.9791,-0.9786,-0.9709,-0.965,-0.9612,-0.9579,-0.9557,-0.9557,-0.9557,-0.9557,-0.9557,-0.9552,-0.9546,-0.9552,-0.9552,-0.9557,-0.9557,-0.9546,-0.9546,-0.9546,-0.9557,-0.9557,-0.9557,-0.9557,-0.9481,-0.9323,-0.9302,-0.9318,-0.9323,-0.9318,-0.9302,-0.9302,-0.9302,-0.9302,-0.9307,-0.9313,-0.9323,-0.9323,-0.9318,-0.9318,-0.9313,-0.9329,-0.9302,-0.9518,-0.9735,-1.0058,-1.0601,-1.1008,-1.1332,-1.1537,-1.1655,-1.1714,-1.1694,-1.1687,-1.1674,-1.1667,-1.166,-1.1653,-1.1647,-1.1653,-1.1674,-1.1653,-1.166,-1.1653,-1.1626,-1.1633,-1.1653,-1.0384,-1.0384,-1.0384,-1.0384,-1.0384,-1.0384,-1.0384,-1.0384,-1.0384,-1.0384,-1.0384,-1.0384,-1.0384,-1.0384,-1.0384,-1.0384,-1.0384,-1.0384,-1.0302,-1.0172,-1.0155,-1.0155,-1.0155,-1.0155,-1.0128,-1.0095,-1.009,-1.0063,-1.0019,-1.0019,-1.0019,-1.0019,-1.0019,-1.0019,-1.0019,-1.0019,-1.0019,-1.0019,-1.0019,-1.0019,-1.0019,-1.0019,-1.0019,-1.0019,-1.0019,-1.0019,-1.0014,-0.9866,-0.9905,-0.9883,-0.9796,-0.9737,-0.9731,-0.9731,-0.9731,-0.9731,-0.9731,-0.9731,-0.9731,-0.9682,-0.9666,-0.9666,-0.9666,-0.9666,-0.9741,-0.9666,-0.9666,-0.9666,-0.9661,-0.9666,-0.9666,-0.9666,-0.9595,-0.9465,-0.9449,-0.9438,-0.9438,-0.9438,-0.9443,-0.9454,-0.9449,-0.9443,-0.9443,-0.9438,-0.9438,-0.9438,-0.9438,-0.9443,-0.9438,-0.9449,-0.9432,-0.9505,-0.9685,-1.0069,-1.0559,-1.0969,-1.1321,-1.1603,-1.187,-1.1864,-1.185,-1.1857,-1.185,-1.1857,-1.185,-1.1864,-1.1857,-1.1843,-1.1843,-1.1789,-1.1755,-1.1769,-1.1782,-1.1728,-1.1721,-1.0405,-1.0405,-1.0405,-1.0422,-1.0422,-1.0422,-1.0433,-1.0416,-1.0422,-1.0427,-1.0422,-1.0438,-1.0427,-1.0416,-1.0443,-1.0443,-1.0411,-1.0433,-1.0438,-1.0411,-1.04,-1.0389,-1.0346,-1.034,-1.0291,-1.0226,-1.0215,-1.0161,-1.0085,-1.0057,-1.003,-1.0047,-1.003,-1.0019,-1.0019,-1.0019,-1.0019,-1.0019,-1.0019,-1.0019,-1.0019,-1.0019,-1.0019,-1.0019,-1.0019,-1.0019,-1.0014,-1.0008,-1.0008,-1.0003,-0.99,-0.9851,-0.9769,-0.9769,-0.9851,-0.9851,-0.9845,-0.9862,-0.9835,-0.9807,-0.9764,-0.9786,-0.9786,-0.9709,-0.9856,-0.9807,-0.9802,-0.9791,-0.978,-0.9753,-0.9748,-0.9742,-0.9726,-0.9693,-0.965,-0.9633,-0.9661,-0.965,-0.9622,-0.9639,-0.9661,-0.9661,-0.9633,-0.9633,-0.9639,-0.9639,-0.9628,-0.9617,-0.9622,-0.9606,-0.965,-0.9714,-0.9675,-0.9962,-1.0447,-1.0667,-1.1096,-1.1632,-1.1904,-1.1972,-1.1999,-1.1986,-1.1979,-1.1993,-1.2101,-1.2115,-1.2101,-1.1986,-1.1972,-1.1959,-1.1945,-1.1959,-1.1925,-1.187,-1.183,-1.0645,-1.0645,-1.0645,-1.0645,-1.0645,-1.0645,-1.0639,-1.0645,-1.0639,-1.0628,-1.0639,-1.0645,-1.0628,-1.0645,-1.0639,-1.0645,-1.0628,-1.0634,-1.0645,-1.0645,-1.0645,-1.0536,-1.0416,-1.0389,-1.0378,-1.034,-1.0335,-1.0318,-1.0286,-1.0193,-1.0155,-1.015,-1.0068,-1.0025,-1.0019,-1.0025,-1.0019,-1.0019,-1.0019,-1.0019,-1.0019,-1.0019,-1.0019,-1.0019,-1.0019,-1.0019,-1.0019,-1.0019,-1.0019,-1.0019,-0.9992,-0.997,-0.9965,-0.997,-0.997,-0.997,-0.9976,-1.0014,-1.0074,-1.0063,-1.009,-1.0188,-1.0123,-1.0199,-1.0199,-1.0193,-1.0193,-1.0199,-1.0199,-1.0139,-1.0074,-1.0041,-1.0008,-0.9921,-0.9786,-0.9688,-0.9682,-0.9666,-0.9666,-0.9666,-0.9677,-0.9688,-0.9693,-0.9688,-0.9688,-0.9688,-0.9693,-0.9693,-0.9715,-0.9709,-0.9726,-0.9688,-0.973,-0.996,-1.0202,-1.0428,-1.086,-1.1568,-1.1871,-1.203,-1.2087,-1.2067,-1.2054,-1.2047,-1.2108,-1.2217,-1.2169,-1.2047,-1.2067,-1.2128,-1.2094,-1.2088,-1.2047,-1.2006,-1.1993,-1.0737,-1.0737,-1.0737,-1.0737,-1.0737,-1.0737,-1.0737,-1.0737,-1.0737,-1.0737,-1.0737,-1.0737,-1.0737,-1.0737,-1.0732,-1.0732,-1.0737,-1.0737,-1.0732,-1.0732,-1.0726,-1.0655,-1.0558,-1.0536,-1.0509,-1.046,-1.046,-1.0427,-1.0378,-1.0307,-1.0286,-1.0259,-1.0155,-1.0101,-1.0095,-1.0041,-1.0019,-1.0019,-1.0019,-1.0019,-1.0019,-1.0019,-1.0019,-1.0019,-1.0019,-1.0019,-1.0019,-1.0019,-1.0019,-1.0019,-1.0019,-1.0019,-1.0025,-1.0074,-1.0095,-1.0095,-1.0095,-1.0128,-1.0172,-1.0161,-1.0161,-1.021,-1.0231,-1.0231,-1.0215,-1.0231,-1.0231,-1.021,-1.0231,-1.0199,-1.015,-1.0128,-1.009,-1.0008,-0.9894,-0.9818,-0.9818,-0.9829,-0.9818,-0.9818,-0.9818,-0.9818,-0.9813,-0.9813,-0.9813,-0.9824,-0.984,-0.9835,-0.9835,-0.9813,-0.9802,-0.9786,-0.9862,-1.0041,-1.0205,-1.0485,-1.0886,-1.1523,-1.1913,-1.2086,-1.2172,-1.2203,-1.2223,-1.223,-1.2237,-1.2237,-1.221,-1.2216,-1.2277,-1.2305,-1.225,-1.221,-1.2182,-1.2155,-1.2149,-1.0737,-1.0737,-1.0737,-1.0737,-1.0737,-1.0737,-1.0737,-1.0737,-1.0737,-1.0737,-1.0737,-1.0737,-1.0737,-1.0737,-1.0737,-1.0737,-1.0737,-1.0737,-1.0737,-1.0737,-1.0737,-1.071,-1.0704,-1.0693,-1.065,-1.0585,-1.0574,-1.053,-1.0471,-1.0427,-1.0405,-1.0373,-1.028,-1.0215,-1.0172,-1.0095,-1.0041,-1.0019,-1.0019,-1.0019,-1.0019,-1.0019,-1.0019,-1.0019,-1.0019,-1.0019,-1.0019,-1.0019,-1.0019,-1.0019,-1.0019,-1.0019,-1.003,-1.0128,-1.0166,-1.0161,-1.015,-1.0161,-1.0188,-1.0117,-1.0074,-1.0112,-1.0112,-1.0057,-1.0117,-1.0144,-1.0144,-1.0155,-1.0063,-1.0101,-1.0074,-1.0047,-1.003,-1.0014,-1.0003,-1.0014,-1.0019,-1.0019,-1.0019,-1.0019,-1.0014,-1.0019,-1.0019,-1.0019,-1.0008,-0.9927,-0.9938,-0.9938,-0.9938,-0.9932,-0.9938,-0.9949,-1.0042,-1.007,-1.0302,-1.0469,-1.0922,-1.1463,-1.1921,-1.2152,-1.2383,-1.2406,-1.2447,-1.2454,-1.2386,-1.2386,-1.2413,-1.2447,-1.2461,-1.2454,-1.2386,-1.2359,-1.2345,-1.2318,-1.2305,-1.0737,-1.0737,-1.0737,-1.0737,-1.0737,-1.0737,-1.0737,-1.0737,-1.0737,-1.0737,-1.0737,-1.0737,-1.0737,-1.0737,-1.0737,-1.0737,-1.0737,-1.0737,-1.0737,-1.0737,-1.0737,-1.0737,-1.0737,-1.0737,-1.0721,-1.0688,-1.0693,-1.0677,-1.0639,-1.0558,-1.0601,-1.0503,-1.0405,-1.0302,-1.0221,-1.0182,-1.0106,-1.0041,-1.0019,-1.0019,-1.0019,-1.0019,-1.0019,-1.0019,-1.0019,-1.0019,-1.0019,-1.0019,-1.0019,-1.0019,-1.0019,-1.0019,-1.0025,-1.0047,-1.0068,-1.0074,-1.0074,-1.0106,-1.0172,-1.0166,-1.0199,-1.0248,-1.0242,-1.0307,-1.0307,-1.0275,-1.0286,-1.0307,-1.0307,-1.0221,-1.0144,-1.0068,-1.003,-1.0019,-1.0019,-1.0019,-1.0019,-1.0019,-1.0019,-1.0019,-1.0019,-1.0019,-1.0019,-1.0019,-1.0019,-1.0019,-1.0019,-1.0019,-1.0019,-1.0019,-1.0019,-1.0019,-1.0019,-1.0097,-1.0175,-1.033,-1.0796,-1.134,-1.1805,-1.2192,-1.2347,-1.2501,-1.2501,-1.2501,-1.2488,-1.2501,-1.2501,-1.2501,-1.2481,-1.2494,-1.2501,-1.2461,-1.2433,-1.2433,-1.242,-1.0737,-1.0737,-1.0737,-1.0737,-1.0737,-1.0737,-1.0737,-1.0737,-1.0737,-1.0737,-1.0737,-1.0737,-1.0737,-1.0737,-1.0737,-1.0737,-1.0737,-1.0737,-1.0737,-1.0737,-1.0737,-1.0737,-1.0737,-1.0737,-1.0737,-1.0737,-1.0732,-1.0737,-1.0715,-1.0677,-1.0639,-1.0628,-1.0525,-1.0449,-1.0346,-1.0264,-1.0172,-1.0106,-1.0047,-1.0019,-1.0019,-1.0019,-1.0019,-1.0019,-1.0019,-1.0019,-1.0019,-1.0019,-1.0019,-1.0019,-1.0019,-1.0019,-1.0019,-1.0019,-1.0019,-1.0019,-1.0019,-1.0041,-1.0101,-1.0117,-1.0134,-1.0215,-1.0215,-1.0215,-1.0215,-1.0215,-1.0215,-1.0215,-1.0199,-1.0177,-1.0123,-1.0074,-1.0025,-1.0019,-1.0019,-1.0019,-1.0019,-1.0019,-1.0019,-1.0019,-1.0019,-1.0019,-1.0019,-1.0019,-1.0019,-1.0019,-1.0019,-1.0019,-1.0019,-1.0019,-1.0019,-1.0019,-1.0019,-1.0019,-1.0097,-1.0253,-1.0563,-1.1029,-1.1572,-1.1882,-1.2114,-1.2347,-1.2501,-1.2501,-1.2501,-1.2501,-1.2501,-1.2501,-1.2501,-1.2501,-1.2501,-1.2501,-1.2494,-1.2474,-1.2467,-1.0737,-1.0737,-1.0737,-1.0737,-1.0737,-1.0737,-1.0737,-1.0737,-1.0737,-1.0737,-1.0737,-1.0737,-1.0737,-1.0737,-1.0737,-1.0737,-1.0737,-1.0737,-1.0737,-1.0737,-1.0737,-1.0737,-1.0737,-1.0737,-1.0737,-1.0737,-1.0737,-1.0737,-1.0737,-1.0732,-1.071,-1.071,-1.0639,-1.0558,-1.0503,-1.0378,-1.0248,-1.0182,-1.0106,-1.0041,-1.0025,-1.0019,-1.0019,-1.0019,-1.0019,-1.0019,-1.0019,-1.0019,-1.0019,-1.0019,-1.0019,-1.0019,-1.0019,-1.0019,-1.0019,-1.0019,-1.0019,-1.003,-1.0036,-1.0036,-1.0036,-1.0019,-1.0025,-1.003,-1.0036,-1.0052,-1.0057,-1.0047,-1.0052,-1.0052,-1.0025,-1.0025,-1.0019,-1.0019,-1.0019,-1.0019,-1.0019,-1.0019,-1.0019,-1.0019,-1.0019,-1.0019,-1.0019,-1.0019,-1.0019,-1.0019,-1.0019,-1.0019,-1.0019,-1.0019,-1.0019,-1.0019,-1.0019,-1.0019,-1.0019,-1.0097,-1.0408,-1.0719,-1.1262,-1.1495,-1.1805,-1.2037,-1.2269,-1.2501,-1.2501,-1.2501,-1.2501,-1.2501,-1.2501,-1.2501,-1.2501,-1.2501,-1.2501,-1.2501,-1.2501,-1.0737,-1.0737,-1.0737,-1.0737,-1.0737,-1.0737,-1.0737,-1.0737,-1.0737,-1.0737,-1.0737,-1.0737,-1.0737,-1.0737,-1.0737,-1.0737,-1.0737,-1.0737,-1.0737,-1.0737,-1.0737,-1.0737,-1.0737,-1.0737,-1.0737,-1.0737,-1.0737,-1.0737,-1.0737,-1.0737,-1.0737,-1.0648,-1.071,-1.0661,-1.0579,-1.0579,-1.0378,-1.0259,-1.0182,-1.0117,-1.0057,-1.0025,-1.0019,-1.0019,-1.0019,-1.0019,-1.0019,-1.0019,-1.0019,-1.0019,-1.0019,-1.0019,-1.0019,-1.0019,-1.0019,-1.0019,-1.0019,-1.0019,-1.0019,-1.0019,-1.0019,-1.0019,-1.0019,-1.0019,-1.0019,-1.0019,-1.0019,-1.0019,-1.0019,-1.0019,-1.0019,-1.0019,-1.0019,-1.0019,-1.0019,-1.0019,-1.0019,-1.0019,-1.0019,-1.0019,-1.0019,-1.0019,-1.0019,-1.0019,-1.0019,-1.0019,-1.0019,-1.0019,-1.0019,-1.0019,-1.0019,-1.0019,-1.0019,-1.0019,-1.0019,-1.0019,-1.0175,-1.0486,-1.0796,-1.1029,-1.134,-1.1727,-1.2037,-1.2269,-1.2424,-1.2501,-1.2501,-1.2501,-1.2501,-1.2501,-1.2501,-1.2501,-1.2501,-1.2501,-1.2501,-1.0737,-1.0737,-1.0737,-1.0737,-1.0737,-1.0737,-1.0737,-1.0737,-1.0737,-1.0737,-1.0737,-1.0737,-1.0737,-1.0737,-1.0737,-1.0737,-1.0737,-1.0737,-1.0737,-1.0737,-1.0737,-1.0737,-1.0737,-1.0737,-1.0737,-1.0737,-1.0737,-1.0737,-1.0737,-1.0737,-1.0737,-1.0737,-1.0737,-1.0704,-1.0645,-1.0579,-1.0503,-1.0373,-1.0269,-1.0182,-1.0112,-1.0063,-1.0025,-1.0019,-1.0019,-1.0019,-1.0019,-1.0019,-1.0019,-1.0019,-1.0019,-1.0019,-1.0019,-1.0019,-1.0019,-1.0019,-1.0019,-1.0019,-1.0019,-1.0019,-1.0019,-1.0019,-1.0019,-1.0019,-1.0019,-1.0019,-1.0019,-1.0019,-1.0019,-1.0019,-1.0019,-1.0019,-1.0019,-1.0019,-1.0019,-1.0019,-1.0019,-1.0019,-1.0019,-1.0019,-1.0019,-1.0019,-1.0019,-1.0019,-1.0019,-1.0019,-1.0019,-1.0019,-1.0019,-1.0019,-1.0019,-1.0019,-1.0019,-1.0019,-1.0019,-1.0019,-1.0019,-1.0253,-1.0486,-1.0641,-1.0952,-1.134,-1.1727,-1.2037,-1.2269,-1.2424,-1.2501,-1.2501,-1.2501,-1.2501,-1.2501,-1.2501,-1.2501,-1.2501,-1.2501,-1.0737,-1.0737,-1.0737,-1.0737,-1.0737,-1.0737,-1.0737,-1.0737,-1.0737,-1.0737,-1.0737,-1.0737,-1.0737,-1.0737,-1.0737,-1.0737,-1.0737,-1.0737,-1.0737,-1.0737,-1.0737,-1.0737,-1.0737,-1.0737,-1.0737,-1.0737,-1.0737,-1.0737,-1.0737,-1.0737,-1.0737,-1.0737,-1.0737,-1.0737,-1.0704,-1.0645,-1.0596,-1.0498,-1.0389,-1.0269,-1.0188,-1.0112,-1.0041,-1.0019,-1.0019,-1.0019,-1.0019,-1.0019,-1.0019,-1.0019,-1.0019,-1.0019,-1.0019,-1.0019,-1.0019,-1.0019,-1.0019,-1.0019,-1.0019,-1.0019,-1.0019,-1.0019,-1.0019,-1.0019,-1.0019,-1.0019,-1.0019,-1.0019,-1.0019,-1.0019,-1.0019,-1.0019,-1.0019,-1.0019,-1.0019,-1.0019,-1.0019,-1.0019,-1.0019,-1.0019,-1.0019,-1.0019,-1.0019,-1.0019,-1.0019,-1.0019,-1.0019,-1.0019,-1.0019,-1.0019,-1.0019,-1.0019,-1.0019,-1.0019,-1.0019,-1.0019,-1.0019,-1.0097,-1.0253,-1.0408,-1.0719,-1.1029,-1.1417,-1.1727,-1.2114,-1.2269,-1.2347,-1.2501,-1.2501,-1.2501,-1.2501,-1.2501,-1.2501,-1.2501,-1.2501,-1.0737,-1.0737,-1.0737,-1.0737,-1.0737,-1.0737,-1.0737,-1.0737,-1.0737,-1.0737,-1.0737,-1.0737,-1.0737,-1.0737,-1.0737,-1.0737,-1.0737,-1.0737,-1.0737,-1.0737,-1.0737,-1.0737,-1.0737,-1.0737,-1.0737,-1.0737,-1.0737,-1.0737,-1.0737,-1.0737,-1.0737,-1.0737,-1.0737,-1.0737,-1.0732,-1.0704,-1.0661,-1.0574,-1.052,-1.0405,-1.0242,-1.0188,-1.0117,-1.0057,-1.0019,-1.0019,-1.0019,-1.0019,-1.0019,-1.0019,-1.0019,-1.0019,-1.0019,-1.0019,-1.0019,-1.0019,-1.0019,-1.0019,-1.0019,-1.0019,-1.0019,-1.0019,-1.0019,-1.0019,-1.0019,-1.0019,-1.0019,-1.0019,-1.0019,-1.0019,-1.0019,-1.0019,-1.0019,-1.0019,-1.0019,-1.0019,-1.0019,-1.0019,-1.0019,-1.0019,-1.0019,-1.0019,-1.0019,-1.0019,-1.0019,-1.0019,-1.0019,-1.0019,-1.0019,-1.0019,-1.0019,-1.0019,-1.0019,-1.0019,-1.0019,-1.0019,-1.0019,-1.0019,-1.0097,-1.0175,-1.0408,-1.0719,-1.0952,-1.134,-1.1727,-1.2114,-1.2269,-1.2424,-1.2501,-1.2501,-1.2501,-1.2501,-1.2501,-1.2501,-1.2501,-1.0737,-1.0737,-1.0737,-1.0737,-1.0737,-1.0737,-1.0737,-1.0737,-1.0737,-1.0737,-1.0737,-1.0737,-1.0737,-1.0737,-1.0737,-1.0737,-1.0737,-1.0737,-1.0737,-1.0737,-1.0737,-1.0737,-1.0737,-1.0737,-1.0737,-1.0737,-1.0737,-1.0737,-1.0737,-1.0737,-1.0737,-1.0737,-1.0737,-1.0737,-1.0737,-1.0737,-1.071,-1.065,-1.0585,-1.0471,-1.0335,-1.0242,-1.0182,-1.0123,-1.0063,-1.003,-1.0025,-1.0019,-1.0019,-1.0019,-1.0019,-1.0019,-1.0019,-1.0019,-1.0019,-1.0019,-1.0019,-1.0019,-1.0019,-1.0019,-1.0019,-1.0019,-1.0019,-1.0019,-1.0019,-1.0019,-1.0019,-1.0019,-1.0019,-1.0019,-1.0019,-1.0019,-1.0019,-1.0019,-1.0019,-1.0019,-1.0019,-1.0019,-1.0019,-1.0019,-1.0019,-1.0019,-1.0019,-1.0019,-1.0019,-1.0019,-1.0019,-1.0019,-1.0019,-1.0019,-1.0019,-1.0019,-1.0019,-1.0019,-1.0019,-1.0019,-1.0019,-1.0019,-1.0019,-1.0097,-1.0097,-1.033,-1.0641,-1.1029,-1.1495,-1.1882,-1.2114,-1.2347,-1.2501,-1.2501,-1.2501,-1.2501,-1.2501,-1.2501,-1.2501,-1.0737,-1.0737,-1.0737,-1.0737,-1.0737,-1.0737,-1.0737,-1.0737,-1.0737,-1.0737,-1.0737,-1.0737,-1.0737,-1.0737,-1.0737,-1.0737,-1.0737,-1.0737,-1.0737,-1.0737,-1.0737,-1.0737,-1.0737,-1.0737,-1.0737,-1.0737,-1.0737,-1.0737,-1.0737,-1.0737,-1.0737,-1.0737,-1.0737,-1.0737,-1.0737,-1.0737,-1.0726,-1.0721,-1.065,-1.0552,-1.0433,-1.0346,-1.0291,-1.0226,-1.0144,-1.0068,-1.0063,-1.0025,-1.0019,-1.0019,-1.0019,-1.0019,-1.0019,-1.0019,-1.0019,-1.0019,-1.0019,-1.0019,-1.0019,-1.0019,-1.0019,-1.0019,-1.0019,-1.0019,-1.0019,-1.0019,-1.0019,-1.0019,-1.0019,-1.0019,-1.0019,-1.0019,-1.0019,-1.0019,-1.0019,-1.0019,-1.0019,-1.0019,-1.0019,-1.0019,-1.0019,-1.0019,-1.0019,-1.0019,-1.0019,-1.0019,-1.0019,-1.0019,-1.0019,-1.0019,-1.0019,-1.0019,-1.0019,-1.0019,-1.0019,-1.0019,-1.0019,-1.0019,-1.0019,-1.0019,-1.0097,-1.0175,-1.0408,-1.0874,-1.1262,-1.1572,-1.1882,-1.2192,-1.2501,-1.2501,-1.2501,-1.2501,-1.2501,-1.2501,-1.2501,-1.0737,-1.0737,-1.0737,-1.0737,-1.0737,-1.0737,-1.0737,-1.0737,-1.0737,-1.0737,-1.0737,-1.0737,-1.0737,-1.0737,-1.0737,-1.0737,-1.0737,-1.0737,-1.0737,-1.0737,-1.0737,-1.0737,-1.0737,-1.0737,-1.0737,-1.0737,-1.0737,-1.0737,-1.0737,-1.0737,-1.0737,-1.0737,-1.0737,-1.0737,-1.0737,-1.0737,-1.0737,-1.0737,-1.0704,-1.0655,-1.0568,-1.0503,-1.046,-1.0362,-1.0264,-1.0188,-1.0182,-1.0079,-1.0019,-1.0019,-1.0019,-1.0019,-1.0019,-1.0019,-1.0019,-1.0019,-1.0019,-1.0019,-1.0019,-1.0019,-1.0019,-1.0019,-1.0019,-1.0019,-1.0019,-1.0019,-1.0019,-1.0019,-1.0019,-1.0019,-1.0019,-1.0019,-1.0019,-1.0019,-1.0019,-1.0019,-1.0019,-1.0019,-1.0019,-1.0019,-1.0019,-1.0019,-1.0019,-1.0019,-1.0019,-1.0019,-1.0019,-1.0019,-1.0019,-1.0019,-1.0019,-1.0019,-1.0019,-1.0019,-1.0019,-1.0019,-1.0019,-1.0019,-1.0019,-1.0019,-1.0019,-1.0175,-1.0253,-1.0486,-1.0874,-1.1262,-1.165,-1.2037,-1.2347,-1.2424,-1.2501,-1.2501,-1.2501,-1.2501,-1.2501,-1.0737,-1.0737,-1.0737,-1.0737,-1.0737,-1.0737,-1.0737,-1.0737,-1.0737,-1.0737,-1.0737,-1.0737,-1.0737,-1.0737,-1.0737,-1.0737,-1.0737,-1.0737,-1.0737,-1.0737,-1.0737,-1.0737,-1.0737,-1.0737,-1.0737,-1.0737,-1.0737,-1.0737,-1.0737,-1.0737,-1.0737,-1.0737,-1.0737,-1.0737,-1.0737,-1.0737,-1.0737,-1.0737,-1.0737,-1.0704,-1.0672,-1.0585,-1.0536,-1.0487,-1.0286,-1.0215,-1.0182,-1.0079,-1.0036,-1.0019,-1.0019,-1.0019,-1.0019,-1.0019,-1.0019,-1.0019,-1.0019,-1.0019,-1.0019,-1.0019,-1.0019,-1.0019,-1.0019,-1.0019,-1.0019,-1.0019,-1.0019,-1.0019,-0.9942,-0.9786,-1.0019,-1.0019,-1.0019,-1.0019,-1.0019,-1.0019,-1.0019,-1.0019,-1.0019,-1.0019,-1.0019,-1.0019,-1.0019,-1.0019,-1.0019,-1.0019,-1.0019,-1.0019,-1.0019,-1.0019,-1.0019,-1.0019,-1.0019,-1.0019,-1.0019,-1.0019,-1.0019,-1.0019,-1.0019,-1.0019,-1.0019,-1.0019,-1.0175,-1.033,-1.0486,-1.0952,-1.1417,-1.1805,-1.2192,-1.2424,-1.2501,-1.2501,-1.2501,-1.2501,-1.2501,-1.0737,-1.0737,-1.0737,-1.0737,-1.0737,-1.0737,-1.0737,-1.0737,-1.0737,-1.0737,-1.0737,-1.0737,-1.0737,-1.0737,-1.0737,-1.0737,-1.0737,-1.0737,-1.0737,-1.0737,-1.0737,-1.0737,-1.0737,-1.0737,-1.0737,-1.0737,-1.0737,-1.0737,-1.0737,-1.0737,-1.0737,-1.0737,-1.0737,-1.0737,-1.0737,-1.0737,-1.0737,-1.0737,-1.0737,-1.0737,-1.0715,-1.0666,-1.0617,-1.0585,-1.0427,-1.0313,-1.0259,-1.0161,-1.0068,-1.0036,-1.0019,-1.0019,-1.0019,-1.0019,-1.0019,-1.0019,-1.0019,-1.0019,-1.0019,-1.0019,-1.0019,-1.0019,-1.0019,-1.0019,-1.0019,-1.0019,-1.0019,-0.9942,-0.963,-0.9392,-0.963,-0.9547,-0.9625,-0.9625,-0.9942,-1.0019,-1.0019,-1.0019,-1.0019,-1.0019,-1.0019,-1.0019,-1.0019,-1.0019,-1.0019,-1.0019,-1.0019,-1.0019,-1.0019,-1.0019,-1.0019,-1.0019,-1.0019,-1.0019,-1.0019,-1.0019,-1.0019,-1.0019,-1.0019,-1.0019,-1.0019,-1.0019,-1.0019,-1.0097,-1.033,-1.0719,-1.1107,-1.1572,-1.2037,-1.2424,-1.2501,-1.2501,-1.2501,-1.2501,-1.2501,-1.0737,-1.0737,-1.0737,-1.0737,-1.0737,-1.0737,-1.0737,-1.0737,-1.0737,-1.0737,-1.0737,-1.0737,-1.0737,-1.0737,-1.0737,-1.0737,-1.0737,-1.0737,-1.0737,-1.0737,-1.0737,-1.0737,-1.0737,-1.0737,-1.0737,-1.0737,-1.0737,-1.0737,-1.0737,-1.0737,-1.0737,-1.0737,-1.0737,-1.0737,-1.0737,-1.0737,-1.0737,-1.0737,-1.0737,-1.0737,-1.0732,-1.0715,-1.0704,-1.0666,-1.0563,-1.0443,-1.0373,-1.0237,-1.0134,-1.0068,-1.003,-1.0019,-1.0019,-1.0019,-1.0019,-1.0019,-1.0019,-1.0019,-1.0019,-1.0019,-1.0019,-1.0019,-1.0019,-1.0019,-1.0019,-1.0019,-0.9786,-0.947,-0.8691,-0.8535,-0.8691,-0.8764,-0.8925,-0.9236,-0.9547,-1.0019,-1.0019,-1.0019,-1.0019,-1.0019,-1.0019,-1.0019,-1.0019,-1.0019,-1.0019,-1.0019,-1.0019,-1.0019,-1.0019,-1.0019,-1.0019,-1.0019,-1.0019,-1.0019,-1.0019,-1.0019,-1.0019,-1.0019,-1.0019,-1.0019,-1.0019,-1.0019,-1.0019,-1.0019,-1.0175,-1.0408,-1.0874,-1.134,-1.1882,-1.2347,-1.2501,-1.2501,-1.2501,-1.2501,-1.2501,-1.0737,-1.0737,-1.0737,-1.0737,-1.0737,-1.0737,-1.0737,-1.0737,-1.0737,-1.0737,-1.0737,-1.0737,-1.0737,-1.0737,-1.0737,-1.0737,-1.0737,-1.0737,-1.0737,-1.0737,-1.0737,-1.0737,-1.0737,-1.0737,-1.0737,-1.0737,-1.0737,-1.0737,-1.0737,-1.0737,-1.0737,-1.0737,-1.0737,-1.0737,-1.0737,-1.0737,-1.0737,-1.0737,-1.0737,-1.0737,-1.0654,-1.0654,-1.0648,-1.0648,-1.054,-1.0541,-1.0481,-1.0324,-1.0204,-1.0123,-1.0079,-1.003,-1.0025,-1.0019,-1.0019,-1.0019,-1.0019,-1.0019,-1.0019,-1.0019,-1.0019,-1.0019,-1.0019,-1.0019,-1.0019,-1.0019,-0.947,-0.8608,-0.7829,-0.7439,-0.6577,-0.7513,-0.7985,-0.8375,-0.8842,-0.9708,-1.0019,-1.0019,-1.0019,-1.0019,-1.0019,-1.0019,-1.0019,-1.0019,-1.0019,-1.0019,-1.0019,-1.0019,-1.0019,-1.0019,-1.0019,-1.0019,-1.0019,-1.0019,-1.0019,-1.0019,-1.0019,-1.0019,-1.0019,-1.0019,-1.0019,-1.0019,-1.0019,-1.0019,-1.0097,-1.0175,-1.0796,-1.134,-1.1882,-1.2269,-1.2424,-1.2501,-1.2501,-1.2501,-1.2501,-1.0737,-1.0737,-1.0737,-1.0737,-1.0737,-1.0737,-1.0737,-1.0737,-1.0737,-1.0737,-1.0737,-1.0737,-1.0737,-1.0737,-1.0737,-1.0737,-1.0737,-1.0737,-1.0737,-1.0737,-1.0737,-1.0737,-1.0737,-1.0737,-1.0737,-1.0737,-1.0737,-1.0737,-1.0737,-1.0737,-1.0737,-1.0737,-1.0737,-1.0737,-1.0737,-1.0737,-1.0737,-1.0482,-1.0232,-0.9643,-0.9643,-0.9643,-0.9726,-0.9878,-1.0164,-1.0601,-1.0525,-1.0416,-1.028,-1.0215,-1.0134,-1.0057,-1.0041,-1.0019,-1.0019,-1.0019,-1.0019,-1.0019,-1.0019,-1.0019,-1.0019,-1.0019,-1.0019,-1.0019,-0.9786,-0.9392,-0.8608,-0.7829,-0.7123,-0.6577,-0.6108,-0.7045,-0.7669,-0.8063,-0.8925,-0.9864,-1.0019,-1.0019,-1.0019,-1.0019,-1.0019,-1.0019,-1.0019,-1.0019,-1.0019,-1.0019,-1.0019,-1.0019,-1.0019,-1.0019,-1.0019,-1.0019,-1.0019,-1.0019,-1.0019,-1.0019,-1.0019,-1.0019,-1.0019,-1.0019,-1.0019,-1.0019,-1.0019,-1.0019,-1.0019,-1.0253,-1.0874,-1.1417,-1.1882,-1.2269,-1.2501,-1.2501,-1.2501,-1.2501,-1.2501,-1.0737,-1.0737,-1.0737,-1.0737,-1.0737,-1.0737,-1.0737,-1.0737,-1.0737,-1.0737,-1.0737,-1.0737,-1.0737,-1.0737,-1.0737,-1.0737,-1.0737,-1.0737,-1.0737,-1.0737,-1.0737,-1.0737,-1.0737,-1.0737,-1.0737,-1.0737,-1.0737,-1.0737,-1.0737,-1.0737,-1.0737,-1.0737,-1.0737,-1.0737,-1.0737,-1.0737,-1.0737,-1.0398,-0.9309,-0.8804,-0.8637,-0.8136,-0.8052,-0.8378,-0.9198,-0.9911,-1.0184,-1.0356,-1.0405,-1.0313,-1.0221,-1.0139,-1.0074,-1.003,-1.0025,-1.0019,-1.0019,-1.0019,-1.0019,-1.0019,-1.0019,-0.9942,-0.9708,-0.9864,-0.9625,-0.8769,-0.7751,-0.6889,-0.6186,-0.642,-0.6577,-0.7279,-0.7985,-0.8686,-0.9553,-0.9942,-1.0019,-1.0019,-1.0019,-1.0019,-1.0019,-1.0019,-1.0019,-1.0019,-1.0019,-1.0019,-1.0019,-1.0019,-1.0019,-1.0019,-1.0019,-1.0019,-1.0019,-1.0019,-1.0019,-1.0019,-1.0019,-1.0019,-1.0019,-1.0019,-1.0019,-1.0019,-1.0019,-1.0019,-1.0019,-1.0253,-1.0796,-1.134,-1.1882,-1.2192,-1.2424,-1.2501,-1.2501,-1.2501,-1.2501,-1.0737,-1.0737,-1.0737,-1.0737,-1.0737,-1.0737,-1.0737,-1.0737,-1.0737,-1.0737,-1.0737,-1.0737,-1.0737,-1.0737,-1.0737,-1.0737,-1.0737,-1.0737,-1.0737,-1.0737,-1.0737,-1.0737,-1.0737,-1.0737,-1.0737,-1.0737,-1.0737,-1.0737,-1.0737,-1.0737,-1.0737,-1.0737,-1.0737,-1.0737,-1.0737,-1.0737,-1.0654,-1.0065,-0.872,-0.8052,-0.7379,-0.6794,-0.6459,-0.6627,-0.7885,-0.861,-0.8921,-0.9768,-1.0009,-1.0216,-1.0287,-1.0201,-1.0166,-1.0144,-1.0134,-1.003,-1.0019,-1.0019,-1.0019,-1.0019,-1.0019,-0.9708,-0.908,-0.9158,-0.908,-0.8297,-0.6889,-0.603,-0.5483,-0.5717,-0.6108,-0.6811,-0.7747,-0.8769,-0.9553,-0.9942,-1.0019,-1.0019,-1.0019,-1.0019,-1.0019,-1.0019,-1.0019,-1.0019,-1.0019,-1.0019,-1.0019,-1.0019,-1.0019,-1.0019,-1.0019,-1.0019,-1.0019,-1.0019,-1.0019,-1.0019,-1.0019,-1.0019,-1.0019,-1.0019,-1.0019,-1.0019,-1.0019,-1.0019,-1.0019,-1.0253,-1.0641,-1.1184,-1.1727,-1.2037,-1.2269,-1.2424,-1.2501,-1.2501,-1.2501,-1.0737,-1.0737,-1.0737,-1.0737,-1.0737,-1.0737,-1.0737,-1.0737,-1.0737,-1.0737,-1.0737,-1.0737,-1.0737,-1.0737,-1.0737,-1.0737,-1.0737,-1.0737,-1.0737,-1.0737,-1.0737,-1.0737,-1.0737,-1.0737,-1.0737,-1.0737,-1.0737,-1.0737,-1.0737,-1.0737,-1.0737,-1.0737,-1.0737,-1.0737,-1.0737,-1.0654,-1.0232,-0.9226,-0.8131,-0.7296,-0.6376,-0.5287,-0.4616,-0.47,-0.6124,-0.6794,-0.7125,-0.8314,-0.8536,-0.8501,-0.8341,-0.8284,-0.8349,-0.8552,-0.9667,-0.9656,-1.0019,-1.0019,-1.0019,-1.0019,-1.0019,-0.9786,-0.8925,-0.8842,-0.7747,-0.6651,-0.5792,-0.5014,-0.4936,-0.5014,-0.5561,-0.6183,-0.7435,-0.8608,-0.9314,-0.9942,-1.0019,-1.0019,-1.0019,-1.0019,-1.0019,-1.0019,-1.0019,-1.0019,-1.0019,-1.0019,-1.0019,-1.0019,-1.0019,-1.0019,-1.0019,-1.0019,-1.0019,-1.0019,-1.0019,-1.0019,-1.0019,-1.0019,-1.0019,-1.0019,-1.0019,-1.0019,-1.0019,-1.0019,-1.0019,-1.0253,-1.0486,-1.1029,-1.1495,-1.1805,-1.2114,-1.2424,-1.2501,-1.2501,-1.2501,-1.0737,-1.0737,-1.0737,-1.0737,-1.0737,-1.0737,-1.0737,-1.0737,-1.0737,-1.0737,-1.0737,-1.0737,-1.0737,-1.0737,-1.0737,-1.0737,-1.0737,-1.0737,-1.0737,-1.0737,-1.0737,-1.0737,-1.0737,-1.0737,-1.0737,-1.0737,-1.0737,-1.0737,-1.0737,-1.0737,-1.0737,-1.0737,-1.0737,-1.0565,-1.0148,-1.0065,-0.9309,-0.7714,-0.6292,-0.5203,-0.47,-0.3612,-0.252,-0.2772,-0.4031,-0.5203,-0.5287,-0.536,-0.5346,-0.5305,-0.536,-0.5502,-0.6013,-0.6588,-0.8027,-0.8605,-0.8821,-0.9198,-0.9266,-0.9334,-0.9786,-0.9786,-0.9708,-0.8925,-0.7591,-0.5792,-0.4933,-0.4936,-0.4936,-0.5405,-0.603,-0.7513,-0.892,-0.9314,-0.9708,-1.0019,-1.0019,-1.0019,-1.0019,-1.0019,-1.0019,-1.0019,-1.0019,-1.0019,-1.0019,-1.0019,-1.0019,-1.0019,-1.0019,-1.0019,-1.0019,-1.0019,-1.0019,-1.0019,-1.0019,-1.0019,-1.0019,-1.0019,-1.0019,-1.0019,-1.0019,-1.0019,-1.0019,-1.0019,-1.0019,-1.0175,-1.0408,-1.0952,-1.134,-1.165,-1.2037,-1.2424,-1.2501,-1.2501,-1.2501,-1.0737,-1.0737,-1.0737,-1.0737,-1.0737,-1.0737,-1.0737,-1.0737,-1.0737,-1.0737,-1.0737,-1.0737,-1.0737,-1.0737,-1.0737,-1.0737,-1.0737,-1.0737,-1.0737,-1.0737,-1.0737,-1.0737,-1.0737,-1.0737,-1.0737,-1.0737,-1.0737,-1.0737,-1.0737,-1.0737,-1.0737,-1.0654,-1.0565,-1.0065,-0.8975,-0.8887,-0.7797,-0.6041,-0.47,-0.3528,-0.3108,-0.185,-0.0673,-0.1262,-0.227,-0.3192,-0.3696,-0.453,-0.5028,-0.5349,-0.5349,-0.5316,-0.5262,-0.5523,-0.5808,-0.6104,-0.6612,-0.7228,-0.7844,-0.8207,-0.8494,-0.8476,-0.8393,-0.8379,-0.7517,-0.5561,-0.4623,-0.486,-0.5248,-0.5796,-0.6733,-0.853,-1.0019,-1.0019,-1.003,-1.003,-1.0036,-1.0041,-1.0041,-1.0036,-1.0036,-1.0041,-1.0041,-1.003,-1.0019,-1.0019,-1.0019,-1.0019,-1.0019,-1.0019,-1.0019,-1.0019,-1.0019,-1.0019,-1.0019,-1.0019,-1.0019,-1.0019,-1.0019,-1.0019,-1.0019,-1.0019,-1.0019,-1.0019,-1.0019,-1.0175,-1.0408,-1.0874,-1.1262,-1.1495,-1.196,-1.2269,-1.2424,-1.2424,-1.2501,-0.9981,-1.0654,-1.0737,-1.0737,-1.0737,-1.0737,-1.0737,-1.0737,-1.0737,-1.0737,-1.0737,-1.0737,-1.0737,-1.0737,-1.0737,-1.0737,-1.0737,-1.0737,-1.0737,-1.0737,-1.0737,-1.0737,-1.0737,-1.0737,-1.0737,-1.0737,-1.0737,-1.0737,-1.0737,-1.0737,-1.0737,-1.0482,-1.0065,-0.9059,-0.7885,-0.7296,-0.6041,-0.4281,-0.3024,-0.2354,0.0,0.0,0.0,0.0,0.0,0.0,-0.1682,-0.2522,-0.2772,-0.294,-0.2771,-0.342,-0.3555,-0.3853,-0.432,-0.4943,-0.5319,-0.538,-0.6088,-0.6543,-0.6907,-0.6824,-0.6673,-0.6536,-0.5266,-0.3592,-0.4191,-0.4424,-0.4941,-0.5483,-0.642,-0.7985,-0.947,-1.0019,-1.0095,-1.0144,-1.0188,-1.0226,-1.0226,-1.0226,-1.0226,-1.0226,-1.021,-1.0144,-1.0128,-1.0095,-1.0085,-1.0036,-1.003,-1.0036,-1.003,-1.0019,-1.0019,-1.0019,-1.0019,-1.0019,-1.0019,-1.0019,-1.0019,-1.0019,-1.0019,-1.0019,-1.0019,-1.0019,-1.0019,-1.0019,-1.033,-1.0719,-1.0874,-1.0952,-1.1572,-1.2192,-1.2269,-1.2424,-1.2501,-0.9142,-1.057,-1.0737,-1.0737,-1.0737,-1.0737,-1.0737,-1.0737,-1.0737,-1.0737,-1.0737,-1.0737,-1.0737,-1.0737,-1.0737,-1.0737,-1.0737,-1.0737,-1.0737,-1.0737,-1.0737,-1.0737,-1.0737,-1.0737,-1.0737,-1.0737,-1.0737,-1.0737,-1.0737,-1.0654,-1.0487,-1.0148,-0.9059,-0.7885,-0.7045,-0.5873,-0.4197,-0.2856,-0.185,-0.1346,0.0,0.0,0.0,0.0,0.0,0.0,0.0,0.0,0.0,0.0,0.0,-0.1256,-0.1833,-0.2237,-0.2804,-0.336,-0.3589,-0.3986,-0.4545,-0.4695,-0.4932,-0.5016,-0.4786,-0.4219,-0.3084,-0.2827,-0.3362,-0.398,-0.4426,-0.5434,-0.638,-0.7636,-0.9051,-0.9933,-1.0024,-1.0174,-1.0238,-1.0378,-1.0378,-1.0378,-1.0378,-1.0378,-1.0335,-1.0269,-1.0237,-1.0204,-1.0161,-1.0095,-1.0063,-1.0074,-1.0079,-1.0047,-1.0019,-1.0019,-1.0019,-1.0019,-1.0019,-1.0019,-1.0019,-1.0019,-1.0019,-1.0019,-1.0019,-1.0019,-1.0019,-1.0025,-1.0175,-1.0486,-1.0563,-1.0719,-1.1417,-1.2114,-1.2269,-1.2424,-1.2501,-0.9142,-1.0737,-1.0737,-1.0737,-1.0737,-1.0737,-1.0737,-1.0737,-1.0737,-1.0737,-1.0737,-1.0737,-1.0737,-1.0737,-1.0737,-1.0737,-1.0737,-1.0737,-1.0737,-1.0737,-1.0737,-1.0737,-1.0737,-1.0737,-1.0737,-1.0737,-1.0737,-1.0737,-1.057,-1.057,-0.9898,-0.8725,-0.8386,-0.6627,-0.3946,-0.3024,-0.2438,0.0,0.0,0.0,0.0,0.0,0.0,0.0,0.0,0.0,0.0,0.0,0.0,0.0,0.0,0.0,0.0,0.0,0.0,0.0,0.0,-0.2226,-0.2631,-0.2946,-0.3188,-0.4078,-0.3833,-0.3424,-0.2446,-0.1549,-0.219,-0.2918,-0.3709,-0.5311,-0.6511,-0.8189,-0.9552,-0.9727,-0.9783,-0.9965,-1.0082,-1.026,-1.0427,-1.0427,-1.0427,-1.0427,-1.0416,-1.0378,-1.0362,-1.0329,-1.0313,-1.0253,-1.0177,-1.0155,-1.0139,-1.0101,-1.0063,-1.0019,-1.0019,-1.0019,-1.0019,-1.0019,-1.0036,-1.0074,-1.0074,-1.0025,-1.0025,-1.0057,-1.0041,-1.0036,-1.0186,-1.0253,-1.0563,-1.0796,-1.1417,-1.196,-1.2192,-1.2347,-1.2347]}]]